[[{"header":{"parameterUnit":"m.s-1","parameterCategory":1,"la1":30.6,"la2":28.766,"lo1":-90.7593,"lo2":-88.6598,"dy":0.0162,"dx":0.0183,"nx":116,"ny":114,"refTime":"2024-04-27T12:00:00:Z","depth":0,"parameterNumber":2,"parameterNumberName":"U-component_of_WINDS"},"data":[0.0,0.0,0.0,0.0,0.0,0.0,0.0,0.0,0.0,0.0,0.0,0.0,0.0,0.0,0.0,0.0,0.0,0.0,0.0,0.0,0.0,0.0,0.0,0.0,0.0,0.0,0.0,0.0,0.0,0.0,0.0,0.0,0.0,0.0,0.0,0.0,0.0,0.0,0.0,0.0,0.0,0.0,0.0,0.0,0.0,0.0,0.0,0.0,0.0,0.0,0.0,0.0,0.0,0.0,0.0,0.0,0.0,0.0,0.0,0.0,0.0,0.0,0.0,0.0,0.0,0.0,0.0,0.0,0.0,0.0,0.0,0.0,0.0,0.0,0.0,0.0,0.0,0.0,0.0,0.0,0.0,0.0,0.0,0.0,0.0,0.0,0.0,0.0,0.0,0.0,0.0,0.0,0.0,0.0,0.0,0.0,0.0,0.0,0.0,0.0,0.0,0.0,0.0,0.0,0.0,0.0,0.0,0.0,0.0,0.0,0.0,0.0,0.0,0.0,0.0,0.0,0.0,0.0,0.0,0.0,0.0,0.0,0.0,0.0,0.0,0.0,0.0,0.0,0.0,0.0,0.0,0.0,0.0,0.0,0.0,0.0,0.0,0.0,0.0,0.0,0.0,0.0,0.0,0.0,0.0,0.0,0.0,0.0,0.0,0.0,0.0,0.0,0.0,0.0,0.0,0.0,0.0,0.0,0.0,0.0,0.0,0.0,0.0,0.0,0.0,0.0,0.0,0.0,0.0,0.0,0.0,0.0,0.0,0.0,0.0,0.0,0.0,0.0,0.0,0.0,0.0,0.0,0.0,0.0,0.0,0.0,0.0,0.0,0.0,0.0,0.0,0.0,0.0,0.0,0.0,0.0,0.0,0.0,0.0,0.0,0.0,0.0,0.0,0.0,0.0,0.0,0.0,0.0,0.0,0.0,0.0,0.0,0.0,0.0,0.0,0.0,0.0,0.0,0.0,0.0,0.0,0.0,0.0,0.0,0.0,0.0,0.0,0.0,0.0,0.0,0.0,0.0,0.0,0.0,0.0,0.0,0.0,0.0,0.0,0.0,0.0,0.0,0.0,0.0,0.0,0.0,0.0,0.0,0.0,0.0,0.0,0.0,0.0,0.0,0.0,0.0,0.0,0.0,0.0,0.0,0.0,0.0,0.0,0.0,0.0,0.0,0.0,0.0,0.0,0.0,0.0,0.0,0.0,0.0,0.0,0.0,0.0,0.0,0.0,0.0,0.0,0.0,0.0,0.0,0.0,0.0,0.0,0.0,0.0,0.0,0.0,0.0,0.0,0.0,0.0,0.0,0.0,0.0,0.0,0.0,0.0,0.0,0.0,0.0,0.0,0.0,0.0,0.0,0.0,0.0,0.0,0.0,0.0,0.0,0.0,0.0,0.0,0.0,0.0,0.0,0.0,0.0,0.0,0.0,0.0,0.0,0.0,0.0,0.0,0.0,0.0,0.0,0.0,0.0,0.0,0.0,0.0,0.0,0.0,0.0,0.0,0.0,0.0,0.0,0.0,0.0,0.0,0.0,0.0,0.0,0.0,0.0,0.0,0.0,0.0,0.0,0.0,0.0,0.0,0.0,0.0,0.0,0.0,0.0,0.0,0.0,0.0,0.0,0.0,0.0,0.0,0.0,0.0,0.0,0.0,0.0,0.0,0.0,0.0,0.0,0.0,0.0,0.0,0.0,0.0,0.0,0.0,0.0,0.0,0.0,0.0,0.0,0.0,0.0,0.0,0.0,0.0,0.0,0.0,0.0,0.0,0.0,0.0,0.0,0.0,0.0,0.0,0.0,0.0,0.0,0.0,0.0,0.0,0.0,0.0,0.0,0.0,0.0,0.0,0.0,0.0,0.0,0.0,0.0,0.0,0.0,0.0,0.0,0.0,0.0,0.0,0.0,0.0,0.0,0.0,0.0,0.0,0.0,0.0,0.0,0.0,0.0,0.0,0.0,0.0,0.0,0.0,0.0,0.0,0.0,0.0,0.0,0.0,0.0,0.0,0.0,0.0,0.0,0.0,0.0,0.0,0.0,0.0,0.0,0.0,0.0,0.0,0.0,0.0,0.0,0.0,0.0,0.0,0.0,0.0,0.0,0.0,0.0,0.0,0.0,0.0,0.0,0.0,0.0,0.0,0.0,0.0,0.0,0.0,0.0,0.0,0.0,0.0,0.0,0.0,0.0,0.0,0.0,0.0,0.0,0.0,0.0,0.0,0.0,0.0,0.0,0.0,0.0,0.0,0.0,0.0,0.0,0.0,0.0,0.0,0.0,0.0,0.0,0.0,0.0,0.0,0.0,0.0,0.0,0.0,0.0,0.0,0.0,0.0,0.0,0.0,0.0,0.0,0.0,0.0,0.0,0.0,0.0,0.0,0.0,0.0,0.0,0.0,0.0,0.0,0.0,0.0,0.0,0.0,0.0,0.0,0.0,0.0,0.0,0.0,0.0,0.0,0.0,0.0,0.0,0.0,0.0,0.0,0.0,0.0,0.0,0.0,0.0,0.0,0.0,0.0,0.0,0.0,0.0,0.0,0.0,0.0,0.0,0.0,0.0,0.0,0.0,0.0,0.0,0.0,0.0,0.0,0.0,0.0,0.0,0.0,0.0,0.0,0.0,0.0,0.0,0.0,0.0,0.0,0.0,0.0,0.0,0.0,0.0,0.0,0.0,0.0,0.0,0.0,0.0,0.0,0.0,0.0,0.0,0.0,0.0,0.0,0.0,0.0,0.0,0.0,0.0,0.0,0.0,0.0,0.0,0.0,0.0,0.0,0.0,0.0,0.0,0.0,0.0,0.0,0.0,0.0,0.0,0.0,0.0,0.0,0.0,0.0,0.0,0.0,0.0,0.0,0.0,0.0,0.0,0.0,0.0,0.0,0.0,0.0,0.0,0.0,0.0,0.0,0.0,0.0,0.0,0.0,0.0,0.0,0.0,0.0,0.0,0.0,0.0,0.0,0.0,0.0,0.0,0.0,0.0,0.0,0.0,0.0,0.0,0.0,0.0,0.0,0.0,0.0,0.0,0.0,0.0,0.0,0.0,0.0,0.0,0.0,0.0,0.0,0.0,0.0,0.0,0.0,0.0,0.0,0.0,0.0,0.0,0.0,0.0,0.0,0.0,0.0,0.0,0.0,0.0,0.0,0.0,0.0,0.0,0.0,0.0,0.0,0.0,0.0,0.0,0.0,0.0,0.0,0.0,0.0,0.0,0.0,0.0,0.0,0.0,0.0,0.0,0.0,0.0,0.0,0.0,0.0,0.0,0.0,0.0,0.0,0.0,0.0,0.0,0.0,0.0,0.0,0.0,0.0,0.0,0.0,0.0,0.0,0.0,0.0,0.0,0.0,0.0,0.0,0.0,0.0,0.0,0.0,0.0,0.0,0.0,0.0,0.0,0.0,0.0,0.0,0.0,0.0,0.0,0.0,0.0,0.0,0.0,0.0,0.0,0.0,0.0,0.0,0.0,0.0,0.0,0.0,0.0,0.0,0.0,0.0,0.0,0.0,0.0,0.0,0.0,0.0,0.0,0.0,0.0,0.0,0.0,0.0,0.0,0.0,0.0,0.0,0.0,0.0,0.0,0.0,0.0,0.0,0.0,0.0,0.0,0.0,0.0,0.0,0.0,0.0,0.0,0.0,0.0,0.0,0.0,0.0,0.0,0.0,0.0,0.0,0.0,0.0,0.0,0.0,0.0,0.0,0.0,0.0,0.0,0.0,0.0,0.0,0.0,0.0,0.0,0.0,0.0,0.0,0.0,0.0,0.0,0.0,0.0,0.0,0.0,0.0,0.0,0.0,0.0,0.0,0.0,0.0,0.0,0.0,0.0,0.0,0.0,0.0,0.0,0.0,0.0,0.0,0.0,0.0,0.0,0.0,0.0,0.0,0.0,0.0,0.0,0.0,0.0,0.0,0.0,0.0,0.0,0.0,0.0,0.0,0.0,0.0,0.0,0.0,0.0,0.0,0.0,0.0,0.0,0.0,0.0,0.0,0.0,0.0,0.0,0.0,0.0,0.0,0.0,0.0,0.0,0.0,0.0,0.0,0.0,0.0,0.0,0.0,0.0,0.0,0.0,0.0,0.0,0.0,0.0,0.0,0.0,0.0,0.0,0.0,0.0,0.0,0.0,0.0,0.0,0.0,0.0,0.0,0.0,0.0,0.0,0.0,0.0,0.0,0.0,0.0,0.0,0.0,0.0,0.0,0.0,0.0,0.0,0.0,0.0,0.0,0.0,0.0,0.0,0.0,0.0,0.0,0.0,0.0,0.0,0.0,0.0,0.0,0.0,0.0,0.0,0.0,0.0,0.0,0.0,0.0,0.0,0.0,0.0,0.0,0.0,0.0,0.0,0.0,0.0,0.0,0.0,0.0,0.0,0.0,0.0,0.0,0.0,0.0,0.0,0.0,0.0,0.0,0.0,0.0,0.0,0.0,0.0,0.0,0.0,0.0,0.0,0.0,0.0,0.0,0.0,0.0,0.0,0.0,0.0,0.0,0.0,0.0,0.0,0.0,0.0,0.0,0.0,0.0,0.0,0.0,0.0,0.0,0.0,0.0,0.0,0.0,0.0,0.0,0.0,0.0,0.0,0.0,0.0,0.0,0.0,0.0,0.0,0.0,0.0,0.0,0.0,0.0,0.0,0.0,0.0,0.0,0.0,0.0,0.0,0.0,0.0,0.0,0.0,0.0,0.0,0.0,0.0,0.0,0.0,0.0,0.0,0.0,0.0,0.0,0.0,0.0,0.0,0.0,0.0,0.0,0.0,0.0,0.0,0.0,0.0,0.0,0.0,0.0,0.0,0.0,0.0,0.0,0.0,0.0,0.0,0.0,0.0,0.0,0.0,0.0,0.0,0.0,0.0,0.0,0.0,0.0,0.0,0.0,0.0,0.0,0.0,0.0,0.0,0.0,0.0,0.0,0.0,0.0,0.0,0.0,0.0,0.0,0.0,0.0,0.0,0.0,0.0,0.0,0.0,0.0,0.0,0.0,0.0,0.0,0.0,0.0,0.0,0.0,0.0,0.0,0.0,0.0,0.0,0.0,0.0,0.0,0.0,0.0,0.0,0.0,0.0,0.0,0.0,0.0,0.0,0.0,0.0,0.0,0.0,0.0,0.0,0.0,0.0,0.0,0.0,0.0,0.0,0.0,0.0,0.0,0.0,0.0,0.0,0.0,0.0,0.0,0.0,0.0,0.0,0.0,0.0,0.0,0.0,0.0,0.0,0.0,0.0,0.0,0.0,0.0,0.0,0.0,0.0,0.0,0.0,0.0,0.0,0.0,0.0,0.0,0.0,0.0,0.0,0.0,0.0,0.0,0.0,0.0,0.0,0.0,0.0,0.0,0.0,0.0,0.0,0.0,0.0,0.0,0.0,0.0,0.0,0.0,0.0,0.0,0.0,0.0,0.0,0.0,0.0,0.0,0.0,0.0,0.0,0.0,0.0,0.0,0.0,0.0,0.0,0.0,0.0,0.0,0.0,0.0,0.0,0.0,0.0,0.0,0.0,0.0,0.0,0.0,0.0,0.0,0.0,0.0,0.0,0.0,0.0,0.0,0.0,0.0,0.0,0.0,0.0,0.0,0.0,0.0,0.0,0.0,0.0,0.0,0.0,0.0,0.0,0.0,0.0,0.0,0.0,0.0,0.0,0.0,0.0,0.0,0.0,0.0,0.0,0.0,0.0,0.0,0.0,0.0,0.0,0.0,0.0,0.0,0.0,0.0,0.0,0.0,0.0,0.0,0.0,0.0,0.0,0.0,0.0,0.0,0.0,0.0,0.0,0.0,0.0,0.0,0.0,0.0,0.0,0.0,0.0,0.0,0.0,0.0,0.0,0.0,0.0,0.0,0.0,0.0,0.0,0.0,0.0,0.0,0.0,0.0,0.0,0.0,0.0,0.0,0.0,0.0,0.0,0.0,0.0,0.0,0.0,0.0,0.0,0.0,0.0,0.0,0.0,0.0,0.0,0.0,0.0,0.0,0.0,0.0,0.0,0.0,0.0,0.0,0.0,0.0,0.0,0.0,0.0,0.0,0.0,0.0,0.0,0.0,0.0,0.0,0.0,0.0,0.0,0.0,0.0,0.0,0.0,-1.7811,0.0,0.0,0.0,0.0,0.0,0.0,0.0,0.0,0.0,0.0,0.0,0.0,0.0,0.0,0.0,0.0,0.0,0.0,0.0,0.0,0.0,0.0,0.0,0.0,-1.9101,-1.9101,-1.9101,-1.9101,-1.884,-1.8259,0.0,0.0,0.0,0.0,0.0,-1.6721,-1.6443,-1.624,-1.6198,-1.6866,-1.7458,-1.7974,-1.7974,-1.7354,-1.6185,0.0,0.0,0.0,0.0,0.0,0.0,0.0,0.0,0.0,0.0,0.0,0.0,0.0,0.0,0.0,0.0,0.0,0.0,0.0,0.0,0.0,0.0,0.0,0.0,0.0,0.0,0.0,0.0,0.0,0.0,0.0,0.0,0.0,0.0,0.0,0.0,0.0,0.0,0.0,0.0,0.0,0.0,0.0,0.0,0.0,0.0,0.0,0.0,0.0,0.0,0.0,0.0,0.0,0.0,0.0,0.0,0.0,0.0,0.0,0.0,0.0,0.0,0.0,0.0,0.0,0.0,0.0,0.0,0.0,0.0,0.0,-1.8295,0.0,0.0,0.0,0.0,0.0,0.0,0.0,0.0,0.0,0.0,0.0,0.0,0.0,0.0,0.0,0.0,0.0,0.0,0.0,0.0,0.0,-1.9101,-1.9101,-1.9101,-1.9101,-1.9101,-1.8995,-1.8629,-1.8067,-1.7905,0.0,0.0,-1.6311,-1.6021,-1.6006,-1.5529,-1.5674,-1.6514,-1.7945,-1.9479,-2.1141,-2.1079,-1.9912,-1.7856,-1.7222,0.0,0.0,0.0,0.0,0.0,0.0,0.0,0.0,0.0,0.0,0.0,0.0,0.0,0.0,0.0,0.0,0.0,0.0,0.0,0.0,0.0,0.0,0.0,0.0,0.0,0.0,0.0,0.0,0.0,0.0,0.0,0.0,0.0,0.0,0.0,0.0,0.0,0.0,0.0,0.0,0.0,0.0,0.0,0.0,0.0,0.0,0.0,0.0,0.0,0.0,0.0,0.0,0.0,0.0,0.0,0.0,0.0,0.0,0.0,0.0,0.0,0.0,0.0,-2.1862,-2.2317,-2.2906,-2.2408,-2.2419,-2.2735,-2.1277,-2.0813,-2.1034,0.0,0.0,0.0,0.0,0.0,0.0,0.0,0.0,0.0,0.0,0.0,0.0,0.0,0.0,0.0,0.0,0.0,0.0,0.0,0.0,-1.9101,-1.9101,-1.9101,-1.9101,-1.9101,-1.8505,-1.7874,-1.7274,-1.6642,-1.5974,-1.5315,-1.5306,-1.5277,-1.5172,-1.5191,-1.6029,-1.7758,-1.9505,-2.0825,-2.1686,-2.1468,-2.1225,-2.0969,-2.0546,-1.9459,-1.7916,0.0,0.0,0.0,0.0,0.0,0.0,0.0,0.0,0.0,0.0,0.0,0.0,0.0,0.0,0.0,0.0,0.0,0.0,0.0,0.0,0.0,0.0,0.0,0.0,0.0,0.0,0.0,0.0,0.0,0.0,0.0,0.0,0.0,0.0,0.0,0.0,0.0,0.0,0.0,0.0,0.0,-1.5863,-1.7823,0.0,0.0,0.0,0.0,0.0,0.0,0.0,0.0,0.0,0.0,0.0,0.0,0.0,-2.1367,-2.1367,-2.2717,-2.3608,-2.3938,-2.5096,-2.5777,-2.6097,-2.6416,-2.6265,-2.5698,-2.478,0.0,-2.2667,-2.2505,0.0,0.0,0.0,0.0,0.0,0.0,0.0,0.0,0.0,0.0,0.0,0.0,0.0,0.0,0.0,0.0,0.0,0.0,0.0,0.0,0.0,-1.9701,-2.0155,-2.0096,-2.0501,-2.0038,-1.8267,-1.7856,-1.6883,-1.5084,-1.5058,-1.5058,-1.4998,-1.5445,-1.7303,-2.0699,-2.2256,-2.3721,-2.5098,-2.4653,-2.4455,-2.4529,-2.4336,-2.254,-1.969,-1.9989,0.0,0.0,0.0,0.0,0.0,0.0,0.0,0.0,0.0,0.0,0.0,0.0,0.0,0.0,0.0,0.0,0.0,0.0,0.0,0.0,0.0,0.0,0.0,0.0,0.0,0.0,0.0,0.0,0.0,0.0,0.0,0.0,0.0,0.0,0.0,0.0,0.0,0.0,0.0,-1.6876,-1.8331,-1.9636,-1.9804,-1.9268,0.0,0.0,0.0,0.0,0.0,0.0,0.0,0.0,0.0,-2.2179,-2.3053,-2.3699,-2.4101,-2.5855,-2.7029,-2.7614,-2.8584,-2.9124,-2.925,-2.9414,-2.9334,-2.899,-2.8264,-2.7309,-2.613,-2.4313,-2.3578,-2.3456,0.0,0.0,0.0,0.0,-1.8318,-1.8115,0.0,0.0,0.0,0.0,0.0,0.0,0.0,0.0,0.0,0.0,0.0,0.0,-1.9566,-2.0686,-2.1489,-2.1447,-2.2214,-2.1642,-1.9142,-1.8844,-1.759,-1.5051,-1.4981,-1.4981,-1.495,-1.6455,-1.9295,-2.3548,-2.4838,-2.6309,-2.79,-2.7409,-2.7178,-2.7231,-2.7231,-2.5127,-2.1557,-2.16,-2.0485,-1.8616,0.0,0.0,0.0,0.0,0.0,0.0,0.0,0.0,0.0,0.0,0.0,0.0,0.0,0.0,0.0,0.0,0.0,0.0,0.0,0.0,0.0,0.0,0.0,0.0,0.0,0.0,0.0,0.0,0.0,0.0,0.0,0.0,0.0,0.0,0.0,0.0,0.0,-1.9441,-2.0303,-2.1374,-2.1461,-2.0865,0.0,0.0,0.0,0.0,0.0,0.0,-2.3122,-2.3479,-2.3888,-2.438,-2.5569,-2.6433,-2.6932,-2.8576,-2.9657,-3.0165,-3.0815,-3.1067,-3.1017,-3.1175,-3.1175,-3.0986,-3.0647,-3.0016,-2.8979,-2.6111,-2.5037,-2.5094,-2.4663,-2.3812,-2.2726,-2.2037,-2.169,-2.1564,0.0,0.0,0.0,0.0,0.0,0.0,0.0,0.0,0.0,0.0,0.0,-2.0942,-2.1094,-2.2105,-2.2868,-2.2995,-2.2484,-2.122,-1.9066,-1.8366,-1.709,-1.4908,-1.4871,-1.4886,-1.4824,-1.8579,-2.2211,-2.5564,-2.6753,-2.7733,-2.8453,-2.8225,-2.8225,-2.8396,-2.8396,-2.6606,-2.3558,-2.3558,-2.2441,-2.0481,-1.8541,0.0,0.0,0.0,0.0,0.0,0.0,0.0,0.0,0.0,0.0,0.0,0.0,0.0,0.0,0.0,0.0,0.0,0.0,0.0,0.0,0.0,0.0,0.0,0.0,0.0,0.0,0.0,0.0,0.0,0.0,0.0,0.0,0.0,0.0,0.0,0.0,0.0,0.0,-2.3348,-2.4857,0.0,0.0,0.0,0.0,-2.2026,-2.2045,-2.3244,-2.5846,-2.6014,-2.7187,-2.974,-2.9889,-2.995,-2.998,-3.0356,-3.0469,-3.0407,-3.069,-3.0695,-3.0469,-3.1111,-3.105,-3.0469,-3.1081,-3.0931,-3.0192,-2.8279,-2.7767,-2.8049,-2.6704,-2.6919,-2.7711,-2.5096,-2.4912,-2.5782,0.0,0.0,0.0,0.0,0.0,-1.7888,-1.8206,-1.85,-1.8627,-1.844,-1.9904,-2.0863,-2.0477,-2.2643,-2.4152,-2.4247,-2.4805,-2.4268,-2.2191,-2.0275,-1.8483,-1.6792,-1.5507,-1.5802,-1.7832,-2.1456,-2.4274,-2.6289,-2.7641,-2.8595,-2.9175,-2.8741,-2.8568,-2.8624,-2.8624,-2.7959,-2.678,-2.6428,-2.4896,-2.2682,-2.1967,-2.0168,0.0,0.0,0.0,0.0,0.0,0.0,0.0,0.0,0.0,0.0,0.0,0.0,0.0,0.0,0.0,0.0,0.0,0.0,0.0,0.0,0.0,0.0,0.0,0.0,0.0,0.0,0.0,0.0,0.0,0.0,0.0,0.0,0.0,0.0,0.0,0.0,0.0,-2.4334,-2.4715,0.0,-2.4641,-2.5124,-2.5404,-2.5396,-2.6817,-2.8037,-2.8855,-2.9173,-2.9737,-3.0556,-3.0715,-3.1004,-3.1472,-3.1754,-3.2,-3.2264,-3.28,-3.2901,-3.2679,-3.308,-3.3125,-3.2901,-3.2652,-3.2203,-3.1538,-3.0518,-2.9678,-2.8972,-2.8479,-2.8049,-2.7642,-2.6657,-2.6318,-2.6349,0.0,0.0,0.0,-1.7193,-1.7564,-1.7968,-1.8285,-1.8539,-1.8798,-1.8988,-2.0582,-2.1719,-2.1698,-2.42,-2.5857,-2.5908,-2.6873,-2.6355,-2.3629,-2.1867,-1.9881,-1.7555,-1.682,-1.8105,-2.1591,-2.3875,-2.5997,-2.7932,-2.8884,-2.9639,-3.0219,-3.0074,-2.9842,-2.9639,-2.9639,-2.9378,-2.8857,-2.8479,-2.7062,-2.4986,-2.4375,-2.1996,-1.8798,0.0,0.0,0.0,0.0,0.0,0.0,0.0,0.0,0.0,0.0,0.0,0.0,0.0,0.0,0.0,0.0,0.0,0.0,0.0,0.0,0.0,0.0,0.0,0.0,0.0,0.0,0.0,0.0,0.0,0.0,0.0,0.0,0.0,0.0,0.0,-2.4407,-2.559,-2.6069,-2.642,-2.6787,-2.7286,-2.7841,-2.8367,-2.9887,-3.0984,-3.1348,-3.1683,-3.2,-3.2348,-3.2478,-3.2803,-3.3251,-3.3539,-3.3794,-3.3999,-3.4555,-3.4659,-3.4398,-3.4607,-3.4375,-3.3848,-3.3797,-3.3232,-3.2322,-3.2149,-3.1446,-3.0412,-3.0166,-2.9673,-2.9058,-2.8812,-2.8319,-2.7734,0.0,-1.6952,-1.6931,-1.6989,-1.7523,-1.7968,-1.7981,-1.8597,-1.9498,-2.0727,-2.217,-2.3574,-2.4886,-2.6711,-2.791,-2.791,-2.8497,-2.7164,-2.3074,-2.291,-2.115,-1.7082,-1.8817,-2.17,-2.5651,-2.5795,-2.7409,-3.0598,-3.0656,-3.0945,-3.1524,-3.2191,-3.2133,-3.1524,-3.1524,-3.0828,-2.9639,-2.9639,-2.8857,-2.7389,-2.5411,-2.312,-2.0731,0.0,0.0,0.0,0.0,0.0,0.0,0.0,0.0,0.0,0.0,0.0,0.0,0.0,0.0,0.0,0.0,0.0,0.0,0.0,0.0,0.0,0.0,0.0,0.0,0.0,0.0,0.0,0.0,0.0,0.0,0.0,0.0,0.0,-2.1394,-2.486,-2.738,-2.7316,-2.9168,-3.0365,-3.0291,-3.0426,-3.0608,-3.089,-3.0916,-3.1638,-3.3245,-3.3303,-3.3904,-3.5292,-3.5324,-3.5324,-3.5324,-3.5632,-3.5664,-3.5387,-3.5692,-3.5692,-3.5415,-3.5415,-3.4549,-3.3056,-3.4373,-3.4017,-3.2561,-3.318,-3.3088,-3.241,-3.1701,-3.1767,-3.2259,-3.1582,-3.0966,-3.0233,-1.6968,-1.6968,-1.7094,-1.7447,-1.7261,-1.7206,-1.772,-1.8007,-1.8149,-1.8173,-2.0967,-2.2971,-2.2922,-2.5824,-2.7804,-2.7883,-2.8414,-2.7636,-2.5048,-2.3213,-2.1231,-1.9065,-2.0861,-2.331,-2.6289,-2.8277,-2.9697,-3.0598,-3.1526,-3.2077,-3.222,-3.2394,-3.2394,-3.2251,-3.2251,-3.1756,-3.0973,-3.0973,-3.0218,-2.8885,-2.7411,-2.5535,-2.3524,0.0,0.0,0.0,0.0,0.0,0.0,0.0,0.0,0.0,0.0,0.0,0.0,0.0,0.0,0.0,0.0,0.0,0.0,0.0,0.0,0.0,0.0,0.0,0.0,0.0,0.0,0.0,0.0,0.0,0.0,0.0,0.0,-2.557,-2.5035,-2.638,-2.7926,-2.9346,-3.0479,-3.1305,-3.1743,-3.2262,-3.281,-3.3447,-3.3478,-3.3692,-3.4149,-3.3187,-3.2924,-3.349,-3.3576,-3.3684,-3.3878,-3.5154,-3.5664,-3.5387,-3.5964,-3.6072,-3.5856,-3.605,-3.5878,-3.5444,-3.583,-3.555,-3.4872,-3.4956,-3.4673,-3.4019,-3.2153,-3.1213,-3.0936,-3.0725,-3.0874,-3.0936,-1.7073,-1.7031,-1.7094,-1.7447,-1.724,-1.7239,-1.7821,-1.8004,-1.8269,-1.8681,-2.1191,-2.3059,-2.3211,-2.5945,-2.7892,-2.8209,-2.8504,-2.7608,-2.4994,-2.2717,-2.1823,-2.2682,-2.4043,-2.5885,-2.822,-3.0045,-3.109,-3.138,-3.2425,-3.2919,-3.2919,-3.318,-3.318,-3.2919,-3.2919,-3.2542,-3.1901,-3.1611,-3.106,-3.0277,-2.9,-2.7147,-2.5044,-2.4409,-2.2948,-2.114,-2.0882,-2.1152,-2.1452,-2.0522,0.0,0.0,0.0,0.0,0.0,0.0,0.0,0.0,0.0,0.0,0.0,0.0,0.0,0.0,0.0,0.0,0.0,0.0,0.0,0.0,0.0,0.0,0.0,0.0,-2.6015,-2.8073,-2.8812,-2.9489,-3.0228,-3.1151,-3.2105,-3.2872,-3.3242,-3.3614,-3.4129,-3.4823,-3.4883,-3.5123,-3.5631,-3.4904,-3.4234,-3.3826,-3.4736,-3.485,-3.409,-3.5974,-3.6809,-3.6642,-3.7062,-3.7172,-3.7003,-3.7172,-3.6848,0.0,-3.6772,-3.6401,-3.5447,-3.5651,-3.5491,0.0,0.0,0.0,0.0,0.0,-3.149,-3.1613,-1.7136,-1.7073,-1.7031,-1.7157,-1.7344,-1.7585,-1.7953,-1.8257,-1.9021,-2.0625,-2.2149,-2.3512,-2.4679,-2.6666,-2.8092,-2.8651,-2.8564,-2.7147,-2.3942,-2.1966,-2.2688,-2.6736,-2.7463,-2.8681,-3.0685,-3.138,-3.2019,-3.2629,-3.3267,-3.362,-3.362,-3.4138,-3.4109,-3.362,-3.362,-3.3209,-3.2568,-3.199,-3.1642,-3.1379,-3.0277,-2.8335,-2.6055,-2.5391,-2.4043,-2.2396,-2.1815,-2.1729,-2.187,-2.1412,0.0,0.0,0.0,0.0,0.0,0.0,0.0,0.0,0.0,0.0,0.0,0.0,0.0,0.0,0.0,0.0,0.0,0.0,0.0,0.0,0.0,0.0,0.0,0.0,-2.7589,-2.973,-3.2167,-3.3152,-3.3398,-3.2721,-3.3827,-3.4628,-3.4628,-3.469,-3.4955,-3.5474,-3.5502,-3.6073,-3.7251,0.0,0.0,0.0,0.0,-3.733,-3.5453,-3.7487,-3.852,-3.852,-3.852,-3.8549,-3.8577,-3.8549,-3.7693,-3.6364,-3.7527,-3.6988,-3.5334,-3.5841,-3.5915,-3.5552,-3.4782,-3.4505,-3.432,-3.2906,-3.2505,-3.2444,-1.6973,-1.6968,-1.6989,-1.7031,-1.7073,-1.7063,-1.7008,-1.7628,-1.8516,-1.9717,-2.1672,-2.3426,-2.4679,-2.6562,-2.8011,-2.8651,-2.7779,-2.6445,-2.4742,-2.274,-2.3374,-2.7347,-2.8047,-2.9262,-3.1293,-3.2483,-3.3184,-3.3329,-3.3906,-3.4225,-3.4225,-3.437,-3.4341,-3.4225,-3.4225,-3.3877,-3.33,-3.3184,-3.2483,-3.1466,-3.1234,-3.0219,-2.8769,-2.8159,-2.7666,-2.7263,-2.6625,-2.6419,-2.6184,-2.4495,-2.388,-2.3952,-2.4591,-2.3999,0.0,0.0,0.0,0.0,0.0,0.0,0.0,0.0,0.0,0.0,0.0,0.0,0.0,0.0,0.0,0.0,0.0,0.0,0.0,-2.8618,-3.0449,-3.2122,-3.3059,-3.4291,-3.4874,-3.4166,-3.4813,-3.5337,-3.5337,-3.5799,-3.6168,-3.6291,-3.6291,-3.6631,-3.7406,-3.6442,0.0,-3.6554,-3.7021,-3.714,-3.6904,-3.8486,-3.931,-3.931,0.0,0.0,-3.9676,-3.9432,-3.9106,-3.8804,-3.871,-3.8328,-3.7705,-3.7282,-3.678,-3.6168,-3.4967,-3.4505,-3.432,-3.2906,-3.3121,-3.3889,-1.6905,-1.6952,-1.6968,-1.7073,-1.701,-1.7016,-1.717,-1.7658,-1.8258,-1.9002,-2.0752,-2.2446,-2.3699,-2.4447,-2.5346,-2.6596,-2.5503,-2.504,-2.5702,-2.4784,-2.5676,-2.9029,-2.9696,-3.0652,-3.1959,-3.3009,-3.3682,-3.4101,-3.4288,-3.4462,-3.4563,-3.4462,-3.4399,-3.4399,-3.4399,-3.4225,-3.3906,-3.3649,-3.3126,-3.2425,-3.1787,-3.1118,-3.0451,-2.9523,-2.9145,-2.9029,-2.8126,-2.7883,-2.7786,-2.6469,-2.6051,-2.6087,-2.6434,-2.6008,-2.513,0.0,0.0,0.0,0.0,0.0,0.0,0.0,0.0,0.0,0.0,0.0,0.0,0.0,0.0,-2.6238,-2.6174,0.0,-2.8962,-2.9811,-3.1385,-3.2959,-3.4289,-3.5059,-3.5398,-3.5059,-3.5614,-3.6107,-3.6445,-3.6784,-3.7186,-3.7715,-3.7746,-3.8059,-3.8717,-3.812,-3.758,-3.7089,-3.8193,-3.8285,-3.7317,-3.9104,-3.9999,-3.9999,-3.9999,-3.9999,-3.9968,-3.9814,-3.9654,-3.9487,-3.9273,-3.9113,-3.8914,-3.8399,-3.7997,-3.7622,-3.6477,-3.5799,-3.5398,-3.4321,-3.4412,-3.4874,-1.6968,-1.6947,-1.6947,-1.7136,-1.7052,-1.7094,-1.7523,-1.7767,-1.813,-1.8798,-2.0047,-2.1376,-2.2743,-2.2359,-2.2446,-2.3484,-2.3201,-2.3836,-2.5914,-2.6544,-2.7958,-3.051,-3.1293,-3.193,-3.2481,-3.3267,-3.4006,-3.4631,-3.4496,-3.4496,-3.4631,-3.4496,-3.4399,-3.4399,-3.4399,-3.4399,-3.437,-3.3877,-3.3532,-3.3213,-3.2135,-3.1555,-3.1206,-3.019,-2.9784,-2.9639,-2.8471,-2.8221,-2.8343,-2.7602,-2.7564,-2.7815,-2.7715,-2.7715,-2.7308,-2.5075,-2.5246,0.0,0.0,0.0,0.0,0.0,0.0,0.0,0.0,0.0,-2.671,-2.6395,-2.7127,-2.7793,-2.7813,-2.8776,-2.9943,-3.0997,-3.2225,-3.364,-3.5275,-3.5614,-3.5768,-3.5861,-3.6353,-3.6907,-3.7461,-3.7615,-3.802,-3.8836,-3.8899,-3.9186,-3.9849,-3.9881,-3.9305,-3.7947,-3.9608,-3.9672,-3.7943,-3.964,-4.0537,-4.0628,-4.0628,-4.0537,-4.0415,-4.0353,-4.0133,-3.9818,-3.9566,-3.9472,-3.9377,-3.9092,-3.8964,-3.8836,-3.7989,-3.7369,-3.6784,-3.5984,-3.5676,-3.5645,-1.7115,-1.7073,-1.6989,-1.701,-1.7094,-1.7199,-1.7261,-1.7447,-1.8131,-1.9724,-2.0238,-2.1083,-2.2721,-2.2359,-2.1373,-1.9758,-2.22,-2.3938,-2.4086,-2.641,-2.8618,-3.051,-3.1758,-3.2394,-3.2481,-3.3703,-3.4341,-3.4428,-3.4399,-3.4399,-3.4428,-3.4399,-3.4399,-3.4399,-3.4399,-3.4399,-3.4399,-3.4341,-3.3674,-3.26,-3.2454,-3.17,-3.0685,-3.0539,-3.051,-3.0336,-2.9058,-2.8788,-2.883,-2.762,-2.7564,-2.7995,-2.797,-2.8143,-2.8032,-2.661,-2.6315,-2.5895,-2.3289,-2.1802,-2.1241,-2.2518,-2.4209,-2.555,0.0,0.0,-2.9886,-2.8551,-2.9745,-3.1212,-3.1693,-3.2516,-3.3318,-3.3948,-3.4747,-3.5393,-3.5491,-3.5984,-3.6599,-3.7215,-3.7338,-3.743,-3.7492,-3.8046,-3.8415,-3.8541,-3.8573,-3.8851,-3.9504,-3.9568,-3.9753,-4.0158,-4.0375,-4.0375,-4.0158,-4.0375,-4.0668,-4.1037,-4.1037,-4.1334,-4.1853,-4.1563,-4.1246,-4.0863,-3.9913,-3.9345,-3.9028,-3.8996,-3.8834,-3.8541,-3.8415,-3.8354,-3.8138,-3.6846,-3.6384,-3.6384,-1.7094,-1.7157,-1.7115,-1.7115,-1.7094,-1.7115,-1.7199,-1.7447,-1.7854,-1.8512,-1.8817,-1.9621,-2.1275,-2.0715,-1.9749,-1.8526,-2.0376,-2.2395,-2.4178,-2.6504,-2.865,-3.051,-3.1438,-3.1901,-3.1901,-3.28,-3.3358,-3.3488,-3.374,-3.3914,-3.4014,-3.4259,-3.4399,-3.4399,-3.4399,-3.4196,-3.3877,-3.3877,-3.3354,-3.2452,-3.2075,-3.1613,-3.109,-3.0743,-3.0425,-2.993,-2.8351,-2.7844,0.0,-2.6822,-2.6639,-2.7005,-2.7948,-2.781,-2.718,-2.6669,-2.5992,-2.5227,-2.4522,-2.4511,-2.4937,-2.5934,-2.7453,-2.8639,-2.8646,-3.0154,-3.1481,-3.1268,-3.2264,-3.3333,-3.3771,-3.383,-3.4113,0.0,-3.5057,-3.5242,-3.5984,-3.6661,-3.7184,-3.7461,-3.7492,-3.7492,-3.7492,-3.8477,-3.8939,-3.8539,-3.9213,-3.9902,-4.0383,-4.0448,-4.064,-4.1122,-4.1122,-4.1122,-4.1122,-4.1122,-4.1223,-4.139,-4.139,-4.1423,-4.1522,-4.1555,-4.1398,-4.1112,-4.0829,-4.0541,-4.0245,-4.0245,-4.0146,-3.9949,-3.9313,-3.9059,-3.8939,-3.7584,-3.7092,-3.703,-1.6947,-1.7136,-1.7199,-1.7199,-1.7115,-1.7094,-1.7199,-1.7385,-1.7503,-1.7544,-1.7707,-1.8262,-1.948,-1.9103,-1.8487,-1.7816,-1.9248,-2.1347,-2.4004,-2.6393,-2.8507,-3.0248,-3.109,-3.1495,-3.1495,-3.2133,-3.2544,-3.2733,-3.3042,-3.3245,-3.3375,-3.374,-3.3906,-3.3906,-3.3906,-3.3645,-3.3209,-3.3209,-3.2832,-3.2162,-3.1698,-3.1292,-3.0945,-3.048,-2.9755,-2.8791,-2.7498,-2.6843,-2.649,-2.5424,-2.5356,-2.5895,-2.6734,-2.6778,-2.6444,-2.6063,-2.5041,-2.4262,-2.5363,-2.6112,-2.6945,-2.8467,-2.9866,-3.0992,-3.1367,-3.2254,-3.3145,-3.359,-3.412,-3.46,-3.5036,-3.4698,-3.4674,-3.5613,-3.5367,-3.546,-3.6599,-3.7184,-3.743,-3.7246,-3.7215,-3.6999,-3.6415,-3.8108,-3.9185,-3.9062,-3.9951,-4.0643,-4.0919,-4.0919,-4.1055,-4.129,-4.129,-4.129,-4.129,-4.139,-4.1522,-4.1588,-4.1588,-4.1522,-4.139,-4.1423,-4.1323,-4.1088,-4.1223,-4.1156,-4.0919,-4.0919,-4.0919,-4.0854,-4.0087,-3.9767,-3.9613,-3.8477,-3.7923,-3.7707,0.0,-1.6989,-1.7199,-1.7199,-1.7199,-1.7199,-1.7199,-1.7094,-1.7178,-1.7625,-1.7482,-1.7384,-1.7571,-1.7977,-1.7934,-1.717,-1.9469,-2.1497,-2.2768,-2.5904,-2.8275,-2.9552,-3.0828,-3.1495,-3.1495,-3.2133,-3.2481,-3.2513,-3.2542,-3.2542,-3.2542,-3.2571,-3.2539,-3.2539,-3.2539,-3.2571,-3.2542,-3.2542,-3.2133,-3.1524,-3.1495,-3.0741,-2.9639,-2.9639,-2.8507,-2.6878,-2.682,-2.626,-2.5265,-2.3357,-2.3773,-2.4954,-2.3886,-2.4926,-2.628,-2.502,-2.3702,-2.3129,-2.5227,-2.484,-2.4632,-2.8049,-3.0012,-3.142,-3.2714,-3.4207,-3.5272,-3.5162,-3.4992,-3.5036,-3.5576,-3.555,-3.5675,-3.6353,-3.6445,-3.6661,-3.7369,-3.7492,-3.7246,-3.6599,-3.6507,-3.5737,0.0,-3.6569,-3.9062,-4.032,-4.0474,-4.0505,-4.0539,-4.0539,-4.0539,-4.0509,-4.0509,-4.0509,-4.0509,-4.0919,-4.129,-4.1588,-4.1588,-4.1753,-4.2045,-4.139,-4.1088,-4.1055,-4.0681,-4.0539,-4.0539,-4.0539,-4.0539,-4.0539,-4.0474,-4.0474,-4.0382,-3.9674,-3.9031,-3.8477,0.0,0.0,-1.6799,-1.6968,-1.6989,-1.6989,-1.6989,-1.7073,-1.7157,-1.724,-1.7276,0.0,0.0,0.0,0.0,0.0,-1.8879,-2.0039,-2.2135,-2.4505,-2.6591,-2.8275,-2.9987,-3.0887,-3.0887,-3.1119,-3.1235,-3.1235,-3.1642,-3.1845,-3.1843,-3.2278,-3.2481,-3.2481,-3.2481,-3.2249,-3.1845,-3.1845,-3.1205,-3.0219,-3.0219,-2.9755,-2.8913,-2.7988,-2.7055,-2.5995,0.0,-2.3184,-2.2583,-2.1255,-2.1243,-2.1889,-2.2471,-2.2566,-2.2313,-2.1579,-2.2961,-2.4892,-2.5716,-2.728,-2.9171,-3.1275,-3.2877,-3.4076,-3.4518,-3.5019,-3.5493,-3.5794,-3.4701,-3.3838,-3.427,-3.3624,-3.3293,-3.4289,-3.4075,-3.4629,-3.7153,-3.6353,-3.623,-3.8262,-3.7307,0.0,0.0,0.0,0.0,-3.7861,-3.949,-4.0505,-4.0505,-4.0505,-4.0505,-4.0505,-4.0505,-4.0505,-4.0505,-4.0612,-4.0749,-4.0851,-4.0851,-4.1055,-4.1423,-4.1189,-4.1088,-4.1088,-4.0953,-4.078,-4.0505,-4.0505,-4.0505,-4.0505,-4.0505,-4.0505,-4.0474,-4.0228,-4.0013,-3.9674,0.0,0.0,0.0,-1.6714,-1.6846,0.0,0.0,0.0,0.0,0.0,0.0,0.0,0.0,0.0,0.0,0.0,0.0,-1.9209,-2.1298,-2.2952,-2.4704,-2.6593,-2.7868,-2.8623,-2.8883,-2.9319,-2.9552,-2.9552,-3.0655,-3.1061,-3.0828,-3.1263,-3.135,-3.1148,-3.1148,-3.0916,-3.051,-3.051,-3.0045,-2.9261,-2.9,-2.8419,-2.752,-2.6396,-2.523,0.0,-2.191,-2.0837,-2.0193,-1.9378,-1.9662,-2.0411,-2.0813,-2.0736,-2.078,-2.1984,-2.3847,-2.5863,-2.744,-2.9706,-3.1981,-3.3625,-3.492,-3.5774,-3.5774,-3.5935,-3.6132,-3.6485,-3.5454,-3.4366,-3.383,-3.2998,-3.2664,-3.336,-3.3272,-3.4229,-3.743,-3.6938,-3.6907,-3.86,-3.7646,-3.7338,0.0,0.0,0.0,-3.7215,-3.8816,-3.9767,-3.9767,-4.0013,-4.0351,-4.0909,-4.1155,-4.112,-4.0909,-4.1013,-4.0928,-4.0715,-4.0715,-4.0749,-4.0916,-4.0916,-4.0637,-4.0202,-4.0699,-4.0467,-3.9797,-4.029,-4.0505,-4.0505,-4.0505,-4.0505,-4.0505,-4.0505,-4.0505,-4.0382,0.0,0.0,0.0,0.0,0.0,0.0,0.0,0.0,0.0,0.0,0.0,0.0,0.0,0.0,0.0,0.0,0.0,0.0,-2.0218,-2.1363,-2.2794,-2.4621,-2.4824,-2.5172,-2.5861,-2.7055,-2.7637,-2.7637,-2.9493,-3.0074,-2.9465,-2.9465,-2.9145,-2.8622,-2.8564,-2.8564,-2.8622,-2.8564,-2.8564,-2.8505,-2.7868,-2.6852,-2.5629,-2.4911,-2.3142,-2.093,-2.0291,-1.934,-1.8361,-1.7855,-1.9054,-2.054,-1.9167,-1.9782,-2.1788,-2.5819,-2.6167,-2.6187,-3.0148,-3.1823,-3.2987,-3.4984,-3.5995,-3.644,-3.644,-3.6857,-3.7177,-3.699,-3.6808,-3.597,-3.3793,0.0,-3.328,-3.3382,-3.3884,-3.5275,-3.8015,-3.8939,-3.8877,0.0,0.0,0.0,0.0,0.0,0.0,-3.8508,0.0,-3.8662,-3.8662,-3.9308,-4.0293,-4.1617,-4.2263,-4.2294,-4.1648,-4.1969,-4.1803,-4.1117,-4.1117,-4.0913,-4.0505,-4.0505,-3.9797,-3.8692,-3.9951,-3.9767,-3.8723,-3.9982,-4.0505,-4.0505,-4.0505,-4.0505,-4.0505,-4.0505,-4.0505,-4.0505,0.0,0.0,0.0,0.0,0.0,0.0,0.0,0.0,0.0,0.0,0.0,0.0,0.0,0.0,0.0,0.0,0.0,0.0,-1.8959,-2.0543,-2.2049,-2.3322,-2.4766,-2.5865,-2.653,-2.6852,-2.7026,-2.7026,-2.7547,-2.7665,-2.749,-2.749,-2.7432,-2.7256,-2.6762,-2.682,-2.7256,-2.6841,-2.6637,-2.653,-2.6462,-2.5617,-2.4239,-2.3022,-2.1917,-2.0822,-1.9584,-1.9036,-1.8804,-1.797,-1.8906,-2.0632,-2.1835,-2.2917,-2.3939,-2.5118,0.0,-2.9864,-3.0914,-3.3245,-3.5616,-3.669,-3.7069,-3.7196,-3.7196,-3.7354,-3.6792,-3.4457,-3.2828,-3.0898,-2.7999,-2.717,0.0,-3.0063,-3.1102,0.0,-3.6507,-3.6722,0.0,-3.8108,0.0,-3.8508,-3.9152,-3.9521,0.0,0.0,-4.0232,-4.0816,-4.0816,-4.1463,-4.1986,-4.2325,-4.2509,-4.2509,-4.2355,-4.2433,-4.2129,-4.1449,-4.1449,-4.1137,-4.0505,-4.0505,-4.029,-4.0013,-4.0351,-4.029,-4.0013,-4.0351,-4.0505,-4.0505,-4.0505,-4.0505,-4.0505,-4.0505,-4.0505,-4.0505,0.0,0.0,0.0,0.0,0.0,0.0,0.0,0.0,0.0,0.0,0.0,0.0,0.0,0.0,0.0,0.0,0.0,0.0,0.0,-1.9445,-2.0706,-2.199,-2.2875,-2.374,-2.4646,-2.5251,-2.5542,-2.5542,-2.6358,-2.6646,-2.6358,-2.6358,-2.6184,-2.5923,-2.5546,-2.5604,-2.5894,-2.5592,-2.53,0.0,0.0,-2.3821,-2.2497,-2.1476,-2.0666,-2.0059,-1.9248,-1.9101,-1.9431,-1.9983,-2.0431,-2.1324,-2.4751,-2.5727,-2.6114,-2.8352,0.0,-3.2303,-3.3219,-3.5173,-3.6975,-3.7415,-3.751,-3.7194,-3.596,-3.5619,-3.4624,-3.1387,-3.0064,-2.8599,-2.5579,-2.531,0.0,0.0,0.0,0.0,-3.6045,-3.6723,-3.731,0.0,-3.8606,0.0,-4.0921,-4.1036,-4.097,0.0,-4.0755,-4.0816,-4.1124,-4.1801,-4.2417,-4.3002,-4.331,-4.334,-4.3033,-4.2756,-4.2417,-4.2048,-4.2048,-4.1832,-4.1397,-4.1397,-4.1058,-4.0536,0.0,-4.1058,-4.0536,-4.0878,-4.1001,-4.0935,-4.0628,-4.0505,-4.0505,-4.0505,-4.0505,-4.0505,0.0,0.0,0.0,0.0,0.0,0.0,0.0,0.0,0.0,0.0,-1.6968,-1.7031,0.0,0.0,0.0,0.0,0.0,0.0,0.0,0.0,-1.9262,-2.093,-2.0494,-2.0814,-2.2091,-2.3194,-2.3775,-2.3775,-2.5458,-2.5981,-2.54,-2.54,-2.511,-2.4563,-2.453,-2.453,-2.4588,-2.45,-2.4152,-2.3601,-2.3049,-2.2033,-2.0814,0.0,-1.9682,-1.9101,-1.9101,-1.9269,-1.9934,-2.2532,-2.2697,-2.2663,-2.7501,-2.8419,-2.8566,-3.2903,-3.3941,-3.4099,-3.5777,-3.688,-3.751,-3.751,-3.751,-3.6877,-3.4415,-3.3392,-3.2054,-2.8732,-2.8144,-2.7525,-2.5123,-2.5748,-2.7297,-2.9452,0.0,-3.3393,-3.5614,-3.7558,-3.8643,-3.8553,-3.8738,-3.9634,-4.162,-4.1599,-4.1801,-4.2663,-4.1063,-4.0324,-4.0874,-4.1617,-4.2509,-4.3716,-4.4302,-4.4332,-4.3747,-4.3156,-4.2817,-4.2725,-4.2725,-4.2694,-4.2602,-4.2602,-4.1955,-4.0843,0.0,0.0,-4.0812,-4.1463,-4.1678,-4.1524,-4.0909,-4.0566,-4.0505,-4.0505,-4.0505,-4.0505,0.0,0.0,0.0,0.0,0.0,0.0,0.0,0.0,0.0,-1.679,-1.691,-1.6989,0.0,0.0,0.0,0.0,0.0,0.0,0.0,0.0,0.0,-2.107,-2.0942,-2.1452,-2.2736,-2.2968,-2.3084,-2.3084,-2.3403,-2.3519,-2.3403,-2.3403,-2.3391,-2.3366,-2.2774,-2.2832,-2.3366,-2.2863,-2.2527,-2.2345,-2.2316,-2.1478,-2.0233,-2.0146,0.0,0.0,-1.9101,-1.9111,-1.9556,-2.2482,-2.3954,-2.5207,-2.9069,-3.099,-3.205,-3.3161,-3.4636,-3.5808,-3.5647,-3.6529,-3.751,-3.751,-3.751,-3.7383,-3.6877,-3.451,0.0,0.0,-2.665,-2.4701,-2.4564,-2.5383,-2.7024,-2.9836,0.0,0.0,0.0,0.0,-3.8367,0.0,0.0,0.0,0.0,0.0,0.0,0.0,0.0,-4.2946,-4.3069,-4.3716,-4.4209,-4.4425,-4.4548,-4.451,-4.4456,-4.4295,-4.3956,-4.3439,-4.3439,-4.3125,-4.2602,-4.2602,-4.2479,-4.2263,-4.2509,0.0,-4.2263,-4.2386,-4.2109,-4.1586,-4.1463,-4.1063,-4.0505,-4.0505,-4.0505,-4.0505,0.0,0.0,0.0,0.0,0.0,0.0,-1.6137,-1.651,-1.6694,-1.6464,-1.6675,-1.6867,-1.6952,-1.6989,-1.701,0.0,0.0,0.0,0.0,0.0,0.0,-2.0718,-2.1252,-2.1953,-2.2888,-2.2888,-2.2888,-2.2888,0.0,-2.2888,-2.2888,-2.2955,-2.2978,-2.2978,-2.2709,-2.2738,-2.2971,-2.2353,-2.1865,-2.1474,-2.1195,-2.0497,-1.9566,-1.9566,0.0,0.0,-1.9074,-1.9055,-1.9401,-2.1568,-2.3238,-2.5083,-2.928,-3.1898,-3.3337,-3.2883,-3.4762,-3.6658,-3.5205,-3.615,-3.751,-3.751,-3.751,-3.6751,-3.3783,0.0,0.0,0.0,-2.3393,-2.2303,-2.2449,-2.3168,0.0,-2.8979,0.0,0.0,0.0,0.0,0.0,0.0,0.0,0.0,0.0,0.0,0.0,0.0,0.0,-4.3371,-4.4086,-4.4456,-4.461,-4.461,-4.461,-4.461,-4.461,-4.461,-4.4456,-4.4148,-4.4148,-4.3925,-4.3618,-4.3618,-4.3618,-4.3618,-4.3618,0.0,-4.2633,-4.2971,-4.2509,-4.1648,-4.1986,-4.1709,-4.1093,-4.1093,-4.0812,-4.0505,0.0,0.0,0.0,0.0,0.0,0.0,-1.6021,-1.6248,-1.6357,-1.6137,-1.6495,-1.6809,-1.6917,-1.6923,-1.691,0.0,0.0,0.0,0.0,0.0,0.0,0.0,0.0,0.0,-2.2888,0.0,0.0,0.0,-2.2888,0.0,0.0,0.0,0.0,0.0,-2.3016,-2.2987,-2.2745,-2.2273,-2.1661,0.0,0.0,-1.9701,0.0,0.0,0.0,0.0,0.0,-1.9055,-1.9304,-2.0722,-2.2173,-2.4116,-2.8172,-3.1042,-3.2877,-3.241,-3.4415,-3.6532,-3.53,-3.6245,-3.751,-3.751,-3.748,-3.6124,-3.111,-2.9383,0.0,-2.2666,-2.1181,-2.0963,-2.1739,-2.229,-2.4128,0.0,-2.9875,-3.161,0.0,0.0,0.0,0.0,0.0,0.0,0.0,0.0,0.0,0.0,0.0,0.0,-4.451,-4.461,-4.461,-4.461,-4.461,-4.461,-4.461,-4.461,-4.461,-4.461,-4.461,-4.461,-4.461,-4.461,-4.461,-4.461,-4.461,0.0,0.0,-4.3501,-4.2946,-4.1678,-4.2509,-4.2386,-4.1801,-4.1648,-4.1247,-4.0689,0.0,0.0,0.0,0.0,0.0,0.0,-1.6572,-1.6955,-1.6954,-1.5969,-1.6506,-1.6983,-1.7006,-1.6957,-1.691,0.0,0.0,0.0,0.0,0.0,0.0,0.0,0.0,0.0,0.0,0.0,0.0,0.0,0.0,0.0,0.0,0.0,0.0,0.0,0.0,0.0,-2.2363,-2.2304,0.0,0.0,0.0,0.0,0.0,0.0,0.0,0.0,0.0,-1.9074,-1.9238,-2.0702,-2.1919,-2.3116,-2.4989,-2.7588,-3.0235,-3.1817,0.0,0.0,-3.6722,-3.7352,-3.751,-3.751,-3.7359,-3.6423,-3.3491,0.0,-2.7319,-2.5592,-2.273,-2.1682,-2.5383,-2.5759,-2.6857,-3.0879,-3.0123,-3.041,0.0,0.0,0.0,0.0,0.0,0.0,0.0,0.0,0.0,0.0,0.0,0.0,-4.4572,-4.461,-4.461,-4.461,-4.461,-4.461,-4.461,-4.461,-4.461,-4.461,-4.461,-4.461,-4.461,-4.461,-4.461,-4.461,-4.461,0.0,0.0,-4.3956,-4.334,-4.174,-4.3039,-4.3094,-4.2448,-4.1832,-4.1555,-4.1401,0.0,0.0,0.0,0.0,0.0,0.0,-1.7108,-1.714,-1.705,-1.674,-1.6829,-1.6886,-1.6722,-1.6996,-1.733,-1.7637,-1.789,0.0,0.0,0.0,0.0,0.0,0.0,0.0,0.0,0.0,-2.2431,-2.2888,-2.2888,0.0,0.0,0.0,0.0,0.0,0.0,0.0,0.0,-2.1541,0.0,0.0,0.0,0.0,0.0,0.0,0.0,0.0,0.0,0.0,-1.9046,-1.934,-2.0283,-2.1317,-2.1394,-2.3101,-2.5407,0.0,-3.0557,-3.3549,-3.3214,-3.5264,-3.748,-3.7359,-3.727,-3.6016,-3.162,-2.9452,-2.7391,-2.3928,-2.2155,-2.1811,-2.3815,-2.4128,-2.5012,-2.7843,-2.7579,-2.8842,-3.4017,0.0,0.0,0.0,0.0,0.0,0.0,0.0,0.0,0.0,0.0,0.0,-4.4579,-4.461,-4.461,-4.461,-4.461,-4.461,-4.461,-4.461,-4.461,-4.461,-4.461,-4.461,-4.461,-4.461,-4.461,-4.461,-4.461,0.0,0.0,-4.3679,-4.3156,-4.1186,-4.334,-4.3809,-4.3094,-4.2448,-4.1955,-4.1494,0.0,0.0,0.0,0.0,0.0,-1.7611,-1.7611,-1.7444,-1.7365,-1.7517,-1.7388,-1.7189,-1.689,-1.7489,-1.8005,-1.8309,-1.8407,0.0,0.0,0.0,0.0,0.0,0.0,0.0,0.0,0.0,-2.2194,-2.2684,-2.282,-2.2591,0.0,0.0,0.0,0.0,0.0,0.0,0.0,0.0,0.0,0.0,0.0,0.0,0.0,0.0,0.0,0.0,0.0,0.0,0.0,0.0,0.0,-2.0004,-1.9394,-2.0254,-2.1934,-2.4143,-2.8158,-3.1734,-3.1009,-3.3882,-3.7076,-3.6925,-3.6366,-3.4617,-2.9897,-2.8116,-2.6336,-2.2338,-2.1726,-2.2123,-2.2792,-2.3048,-2.3935,-2.6261,-2.6398,-2.8089,-3.3505,0.0,0.0,0.0,0.0,0.0,0.0,0.0,0.0,0.0,0.0,0.0,0.0,-4.461,-4.461,-4.461,-4.461,-4.461,-4.461,-4.461,-4.461,-4.461,-4.461,-4.4394,-4.4018,-4.4425,-4.4356,-4.4018,0.0,0.0,0.0,-4.3618,-4.3217,-4.1335,-4.3679,-4.4332,-4.3809,-4.291,-4.2294,-4.1771,0.0,0.0,0.0,0.0,0.0,-1.8084,-1.8084,-1.8111,-1.8088,-1.8088,-1.8154,-1.808,-1.7824,-1.8484,-1.8908,-1.8709,-1.8884,0.0,0.0,0.0,0.0,0.0,0.0,0.0,-2.1431,-2.1431,-2.167,-2.2194,-2.2684,-2.2591,-2.2004,-2.2004,-2.1307,0.0,0.0,0.0,0.0,0.0,0.0,0.0,0.0,0.0,-1.9101,0.0,0.0,0.0,0.0,0.0,0.0,0.0,0.0,0.0,0.0,-1.9887,-2.0755,-2.3881,-2.6741,-2.9351,-3.164,-3.4179,-3.6205,-3.6205,-3.4469,-3.2035,-2.9235,-2.639,-2.3763,-2.172,-2.1935,-2.2711,-2.3441,-2.3693,-2.4721,-2.762,-2.7525,-2.85,-3.2478,0.0,0.0,0.0,0.0,0.0,0.0,0.0,0.0,0.0,0.0,0.0,0.0,-4.461,-4.461,-4.461,-4.461,-4.461,-4.461,-4.461,-4.461,-4.461,-4.461,-4.3895,-4.2663,-4.3987,-4.3864,0.0,0.0,0.0,0.0,-4.4018,-4.3802,-4.2725,-4.4048,-4.461,-4.4456,-4.3094,-4.2602,-4.2422,0.0,0.0,0.0,0.0,0.0,0.0,-1.8644,-1.8341,-1.8166,-1.8356,-1.8072,-1.7833,-1.7799,-1.8338,-1.8759,-1.8884,-1.9309,0.0,0.0,0.0,0.0,-2.0721,-2.0497,-2.0746,-2.15,-2.1455,-2.167,-2.2194,-2.2684,-2.2591,-2.1975,-2.154,-2.0872,-2.0117,-2.0331,0.0,0.0,0.0,0.0,0.0,0.0,-1.9101,-1.9101,0.0,0.0,0.0,0.0,0.0,0.0,0.0,0.0,0.0,0.0,0.0,0.0,-2.1656,-2.3886,-2.6112,-2.6867,-2.9116,-3.1168,-3.1035,-3.0435,-2.918,-2.6426,-2.5018,-2.3773,-2.1903,-2.2082,-2.2805,-2.3587,-2.4217,-2.523,-2.7115,-2.7241,-2.8612,0.0,0.0,0.0,0.0,0.0,0.0,0.0,0.0,0.0,0.0,0.0,0.0,0.0,-4.461,-4.461,-4.461,-4.461,-4.461,-4.461,-4.461,-4.461,-4.461,-4.461,-4.3895,-4.2663,-4.3987,0.0,0.0,0.0,0.0,0.0,-4.4048,-4.3802,-4.2725,-4.4079,-4.4685,-4.4706,-4.3661,-4.3081,-4.2695,0.0,0.0,0.0,0.0,0.0,0.0,-1.8873,-1.8621,-1.8534,-1.8886,-1.8577,-1.8222,-1.7935,-1.8403,-1.8729,-1.8709,-1.928,0.0,0.0,0.0,0.0,-2.0421,-2.0064,-2.011,-2.0625,-2.0671,-2.0867,-2.1217,-2.1877,-2.1896,-2.132,-2.0681,-2.0194,-1.9801,-1.9591,-1.9344,0.0,0.0,0.0,0.0,-1.9101,-1.9101,-1.9101,0.0,0.0,0.0,0.0,0.0,0.0,0.0,0.0,0.0,0.0,0.0,0.0,0.0,-2.1896,-2.3392,-2.4295,-2.6433,-2.8389,-2.8264,-2.7604,-2.6536,-2.4792,-2.3577,-2.254,-2.1667,-2.2667,-2.3721,-2.3725,-2.5035,-2.6136,-2.623,-2.7532,-2.9422,0.0,0.0,0.0,0.0,0.0,0.0,0.0,0.0,0.0,0.0,0.0,0.0,0.0,-4.461,-4.461,-4.461,-4.461,-4.461,-4.461,-4.461,-4.461,-4.461,-4.461,-4.3895,-4.2663,-4.3987,0.0,0.0,0.0,0.0,0.0,-4.4271,-4.4079,-4.3433,-4.4264,-4.4723,-4.4781,-4.4019,-4.3339,-4.2833,0.0,0.0,0.0,0.0,0.0,0.0,-1.881,-1.8827,-1.9011,-1.9516,-1.9378,-1.8946,-1.8212,-1.8652,-1.8809,-1.8327,-1.8996,0.0,0.0,-2.0371,-2.0446,-1.9761,-1.9851,-1.9614,-1.8982,-1.9443,-1.9673,-1.9673,-2.0585,-2.0783,-2.0314,-1.9677,-1.9368,-1.9299,-1.8762,-1.8731,-1.9101,-1.9101,-1.9101,-1.9101,-1.9101,-1.913,0.0,0.0,0.0,0.0,0.0,0.0,0.0,0.0,0.0,0.0,0.0,0.0,0.0,0.0,0.0,0.0,0.0,-2.5534,-2.7077,-2.7077,-2.5534,-2.401,-2.401,-2.212,0.0,-2.143,-2.371,-2.5247,-2.4095,-2.6197,-2.74,-2.5351,-2.8426,0.0,0.0,0.0,0.0,0.0,0.0,0.0,0.0,0.0,0.0,0.0,0.0,0.0,0.0,-4.461,-4.461,-4.461,-4.461,-4.461,-4.461,-4.461,-4.4579,-4.4486,-4.4541,-4.3833,-4.2509,-4.3925,0.0,0.0,0.0,0.0,0.0,-4.461,-4.461,-4.461,-4.461,-4.4723,-4.4849,-4.4192,-4.3541,-4.2967,0.0,0.0,0.0,0.0,0.0,0.0,0.0,0.0,0.0,0.0,-1.8419,-1.8413,-1.8464,-1.8786,-1.903,0.0,0.0,0.0,0.0,-1.9965,-1.9763,-1.9208,-1.9231,-1.9122,-1.8853,-1.984,-2.0297,-2.0201,-2.0901,-2.0996,-2.0502,-1.9747,-1.9388,-1.936,-1.9075,-1.9007,-1.9101,-1.9101,-1.9101,-1.9101,-1.9101,-1.942,0.0,0.0,0.0,0.0,-1.8753,-1.8299,0.0,0.0,0.0,0.0,0.0,0.0,0.0,0.0,-2.0901,-2.0982,-2.137,0.0,-2.2022,-2.2022,-2.1615,-2.1227,0.0,-2.1134,-2.1707,0.0,0.0,0.0,0.0,-2.8568,-2.9411,-2.7485,-2.9671,0.0,0.0,0.0,0.0,0.0,0.0,0.0,0.0,0.0,0.0,0.0,0.0,0.0,0.0,-4.461,-4.461,-4.461,-4.461,-4.461,-4.461,-4.461,-4.4079,-4.3094,-4.4079,-4.331,-4.1058,-4.3494,0.0,0.0,0.0,0.0,-4.461,-4.461,-4.461,-4.461,-4.461,-4.483,-4.5061,-4.4794,-4.4444,-4.4042,0.0,0.0,0.0,0.0,0.0,0.0,0.0,0.0,0.0,0.0,-1.8084,-1.822,-1.8572,-1.8709,-1.8972,0.0,0.0,0.0,-1.9811,-1.9811,-1.9685,-1.9384,-1.9078,-1.8791,-1.8531,-1.9026,-1.9319,-1.9292,-1.985,-2.0097,-2.008,-1.969,-1.9433,-1.936,-1.9171,-1.9101,-1.9101,-1.9101,-1.9101,-1.9101,-1.9101,0.0,0.0,0.0,0.0,0.0,-1.8462,-1.7998,0.0,-1.8555,-1.8837,-1.9112,0.0,0.0,0.0,0.0,-2.1541,-2.1446,-2.103,-2.0642,-2.0597,-2.1843,-2.1442,-2.1073,-2.2305,-2.2182,-2.2521,0.0,0.0,0.0,0.0,0.0,0.0,0.0,-2.9463,0.0,0.0,0.0,0.0,0.0,0.0,0.0,0.0,0.0,0.0,0.0,0.0,0.0,0.0,-4.461,-4.461,-4.461,-4.461,-4.461,-4.461,-4.461,-4.3925,-4.2633,-4.3956,-4.3494,-4.152,-4.3618,-4.4172,0.0,0.0,0.0,-4.4117,-4.3501,-4.3402,-4.3679,-4.3679,-4.4124,-4.4699,-4.4514,-4.4408,-4.4261,0.0,0.0,0.0,0.0,0.0,0.0,0.0,0.0,0.0,0.0,0.0,0.0,0.0,0.0,0.0,0.0,0.0,-1.9525,-1.9785,-1.9736,-1.9685,-1.9685,-1.9044,-1.8526,-1.8196,-1.7977,-1.7971,-1.8236,-1.8564,-1.8903,-1.9257,-1.9309,-1.9263,-1.9179,-1.9123,-1.9101,-1.9101,-1.9101,-1.9101,-1.9101,-1.9101,0.0,0.0,0.0,0.0,0.0,0.0,0.0,0.0,-1.8832,-1.8997,-1.9078,-2.1584,0.0,0.0,0.0,0.0,0.0,-2.1374,-2.079,-2.1055,-2.3754,-2.2759,-2.1874,-2.4687,-2.3733,-2.3148,0.0,0.0,0.0,0.0,-2.847,0.0,0.0,0.0,0.0,0.0,0.0,0.0,0.0,0.0,0.0,0.0,0.0,0.0,0.0,0.0,0.0,0.0,-4.461,-4.461,-4.461,-4.461,-4.461,-4.461,-4.461,-4.3925,-4.2633,-4.3956,-4.3895,-4.2663,-4.3987,-4.461,0.0,0.0,0.0,-4.3501,-4.2355,-4.2171,-4.2602,-4.2602,-4.3195,-4.3982,-4.3837,-4.391,-4.4033,0.0,0.0,0.0,0.0,0.0,0.0,0.0,0.0,0.0,0.0,0.0,0.0,0.0,0.0,0.0,0.0,0.0,-1.9525,-1.9785,-1.9359,-1.9133,-1.9133,-1.8578,-1.8211,-1.8015,-1.8048,-1.845,-1.9257,-1.8946,-1.8607,-1.8232,-1.8114,-1.8268,-1.8641,-1.896,-1.9101,-1.9101,-1.9101,-1.9101,-1.9101,-1.9101,0.0,0.0,0.0,0.0,0.0,0.0,0.0,0.0,-1.8514,-1.9342,-2.0406,-2.1357,0.0,0.0,0.0,0.0,0.0,-2.0783,-2.0779,-2.1613,-2.4249,-2.2661,-2.1288,-2.4543,-2.3733,-2.3548,0.0,0.0,0.0,0.0,-3.2863,0.0,0.0,0.0,0.0,0.0,0.0,0.0,0.0,0.0,0.0,0.0,0.0,0.0,0.0,0.0,0.0,0.0,-4.461,-4.461,-4.461,-4.461,-4.461,-4.461,-4.461,-4.3925,-4.2633,-4.3956,-4.3895,-4.2663,-4.3987,-4.461,0.0,0.0,-4.4055,-4.3593,-4.3377,-4.3002,-4.2602,-4.2602,-4.285,-4.327,-4.3234,-4.3478,-4.3665,0.0,0.0,0.0,0.0,0.0,0.0,0.0,0.0,0.0,0.0,0.0,0.0,0.0,0.0,0.0,0.0,-1.9448,-1.9656,-1.9811,-1.9585,-1.9158,-1.8581,-1.8894,-1.8898,-1.8554,-1.8137,-1.835,-1.9239,-1.8355,-1.8083,-1.8382,-1.8242,-1.8618,-1.9323,-1.8579,-1.8377,-1.8608,-1.823,-1.8085,-1.8114,0.0,0.0,0.0,0.0,0.0,0.0,0.0,0.0,0.0,0.0,-1.9994,-2.0742,-2.1824,0.0,0.0,0.0,0.0,0.0,-2.1913,-2.1426,-2.2,-2.6445,-2.4706,-2.3271,-2.8504,-2.6411,-2.4933,-3.0443,0.0,0.0,0.0,0.0,0.0,0.0,0.0,0.0,0.0,0.0,0.0,0.0,0.0,0.0,0.0,0.0,0.0,0.0,0.0,0.0,0.0,0.0,-4.461,-4.461,-4.461,-4.461,-4.461,-4.461,-4.3925,-4.2633,-4.3956,-4.3895,-4.2663,-4.3987,-4.461,-4.4548,0.0,-4.3002,-4.2971,-4.1832,-4.1432,-4.1458,-4.1458,-4.1891,-4.2615,-4.3095,-4.3141,-4.2934,0.0,0.0,0.0,0.0,0.0,0.0,0.0,0.0,0.0,0.0,0.0,0.0,0.0,0.0,0.0,0.0,-1.9552,-1.9683,-1.9635,-1.951,-1.9007,-1.8053,-1.8783,-1.9043,-1.8624,-1.8126,-1.8206,-1.8914,-1.7866,-1.7784,-1.8652,-1.8548,-1.8938,-1.969,-1.8437,-1.8065,-1.8375,-1.7853,-1.765,-1.7708,0.0,0.0,0.0,0.0,0.0,0.0,0.0,0.0,0.0,0.0,0.0,0.0,0.0,0.0,0.0,-2.3323,-2.285,-2.2199,-2.2614,-2.1901,-2.2214,-2.724,-2.5644,-2.4687,-3.1797,-2.8688,-2.6041,-3.2136,0.0,0.0,0.0,0.0,0.0,0.0,0.0,0.0,0.0,0.0,0.0,0.0,0.0,0.0,0.0,0.0,0.0,0.0,0.0,0.0,0.0,0.0,-4.461,-4.461,-4.461,-4.461,-4.461,-4.461,-4.4079,-4.3094,-4.4079,-4.4048,-4.3094,-4.411,-4.461,-4.4517,-4.2786,-4.2263,-4.2479,-4.0724,-4.0166,-4.0505,-4.0505,-4.1055,-4.1963,-4.2705,-4.2648,-4.2239,0.0,0.0,0.0,0.0,0.0,0.0,0.0,0.0,0.0,0.0,0.0,0.0,0.0,0.0,0.0,0.0,-1.9289,-1.9302,-1.9058,-1.8581,-1.8053,-1.7498,-1.7521,-1.7544,-1.7519,-1.79,-1.8286,-1.8714,-1.8071,-1.8016,-1.8498,-1.8509,-1.8528,-1.8643,-1.8884,-1.9006,-1.9043,-1.8985,-1.8956,-1.8956,-1.9014,0.0,0.0,0.0,0.0,0.0,0.0,0.0,0.0,0.0,0.0,0.0,0.0,0.0,-2.2625,-2.3387,-2.2608,-2.1574,-2.1613,-2.1625,-2.2173,-2.4418,-2.3203,-2.3537,-3.1582,-2.8688,-2.6041,-3.2136,0.0,0.0,0.0,0.0,0.0,0.0,0.0,0.0,0.0,0.0,0.0,0.0,0.0,0.0,0.0,0.0,0.0,0.0,0.0,0.0,0.0,0.0,0.0,-4.461,-4.461,-4.461,-4.461,-4.461,-4.4579,-4.4486,-4.4541,-4.4579,-4.4486,-4.4579,-4.461,-4.4579,-4.3809,-4.3125,-4.254,-4.1771,-4.1093,-4.0505,-4.0505,-4.0777,-4.1213,-4.1582,-4.1715,-4.1683,0.0,0.0,0.0,0.0,0.0,0.0,0.0,0.0,0.0,0.0,0.0,-1.7656,-1.7656,0.0,0.0,0.0,-1.8388,-1.8585,-1.8385,-1.8257,-1.7929,-1.7285,-1.8627,-1.8907,-1.7838,-1.8248,-1.8675,-1.9142,-1.8531,-1.8129,-1.7946,-1.8303,-1.8616,-1.8846,-1.8332,-1.8483,-1.9043,-1.8259,-1.8172,-1.8579,-1.8956,-1.9246,0.0,0.0,0.0,0.0,0.0,0.0,0.0,0.0,-2.2003,-2.2373,-2.2613,-2.29,-2.3238,-2.3498,-2.264,-2.1794,-2.2536,-2.2395,-2.2909,-2.6735,-2.5372,-2.4857,-3.1668,-2.947,-2.7752,-3.4046,-3.2228,0.0,0.0,0.0,0.0,0.0,0.0,0.0,0.0,0.0,0.0,0.0,0.0,0.0,0.0,0.0,0.0,0.0,0.0,0.0,0.0,0.0,0.0,-4.461,-4.461,-4.461,-4.461,-4.461,-4.461,-4.461,-4.461,-4.461,-4.461,-4.461,-4.461,-4.4548,-4.3433,-4.2817,-4.2509,-4.1542,-4.0928,-4.0681,-4.0919,-4.1088,-4.1254,-4.1489,-4.1588,-4.1588,0.0,0.0,0.0,0.0,0.0,0.0,0.0,0.0,-1.8084,0.0,0.0,0.0,0.0,-1.7426,0.0,0.0,-1.7894,-1.8133,-1.806,-1.825,-1.819,-1.7809,-1.9611,-2.0053,-1.8844,-1.908,-1.9273,-1.9409,-1.8928,-1.8465,-1.8075,-1.8494,-1.897,-1.9372,-1.8655,-1.8836,-1.9624,-1.8579,-1.8375,-1.884,-1.9246,-1.9537,0.0,0.0,0.0,0.0,0.0,0.0,0.0,0.0,-2.264,-2.2733,-2.2912,-2.3272,-2.361,-2.361,-2.2832,-2.2203,-2.3037,-2.2776,-2.3252,-2.728,-2.626,-2.5834,-3.166,-3.0076,-2.8936,-3.4692,-3.3429,-3.1366,-3.1613,0.0,0.0,0.0,0.0,0.0,0.0,0.0,0.0,0.0,0.0,0.0,0.0,0.0,0.0,0.0,0.0,0.0,0.0,0.0,0.0,0.0,-4.461,-4.461,-4.461,-4.461,-4.461,-4.461,-4.461,-4.461,-4.461,-4.461,-4.4486,-4.424,-4.3094,-4.2515,-4.2243,-4.121,-4.0848,-4.0916,-4.1189,-4.129,-4.1323,-4.1522,-4.1588,-4.1588,0.0,0.0,0.0,0.0,0.0,0.0,0.0,0.0,-1.8084,-1.8084,-1.7679,0.0,0.0,0.0,0.0,0.0,-1.7918,-1.806,-1.818,-1.8577,-1.8852,-1.8989,-2.0032,-2.0543,-2.0415,-2.0344,-2.0014,-1.9409,-1.92,-1.9101,-1.9101,-1.9101,-1.9478,-2.0117,-2.0117,-2.0436,-2.0959,-2.0378,-2.0117,-2.0088,-2.0117,-2.0465,-2.1075,0.0,0.0,0.0,0.0,0.0,0.0,0.0,-2.2703,-2.2823,-2.34,-2.361,-2.361,-2.361,-2.3212,-2.2703,-2.2733,-2.262,-2.2982,-2.4921,0.0,0.0,-3.1526,-3.0334,-2.9271,-3.3616,-3.6107,-3.7277,-3.6599,0.0,0.0,0.0,0.0,0.0,0.0,0.0,0.0,0.0,0.0,0.0,0.0,0.0,0.0,0.0,0.0,0.0,0.0,0.0,0.0,0.0,-4.461,-4.461,-4.461,-4.461,-4.461,-4.461,-4.461,-4.461,-4.461,-4.461,-4.424,-4.3562,-4.2879,-4.2309,-4.1775,-4.1093,-4.0916,-4.1117,-4.1223,-4.129,-4.1323,-4.1522,-4.1588,-4.1588,0.0,0.0,0.0,0.0,0.0,0.0,0.0,0.0,-1.7531,-1.7531,-1.7055,0.0,0.0,0.0,0.0,0.0,0.0,0.0,-1.7512,-1.8048,-1.8508,-1.8852,-1.9986,-2.0731,-2.1028,-2.0862,-2.0263,-1.919,-1.9132,-1.9333,-1.9798,-1.9798,-2.0146,-2.0756,-2.1663,-2.1663,-2.1017,-2.1307,-2.093,-2.0146,-2.0553,-2.0843,-2.1075,0.0,0.0,0.0,0.0,0.0,0.0,0.0,0.0,0.0,-2.355,-2.361,-2.3879,-2.5285,-2.429,-2.3092,-2.4949,-2.4521,0.0,-2.6609,0.0,0.0,0.0,-3.1029,0.0,0.0,-3.6753,-3.6999,-3.5398,0.0,0.0,0.0,0.0,0.0,0.0,0.0,0.0,0.0,0.0,0.0,0.0,0.0,0.0,0.0,0.0,0.0,0.0,0.0,0.0,0.0,-4.461,-4.461,-4.461,-4.461,-4.4363,-4.3901,-4.3901,-4.3901,-4.3901,-4.3901,-4.3562,-4.2848,-4.2202,-4.1877,-4.1775,-4.1336,-4.1256,-4.1488,-4.1489,-4.1522,-4.1522,-4.1588,-4.1588,-4.1588,0.0,0.0,0.0,0.0,0.0,0.0,-1.7544,-1.7561,-1.7537,-1.7407,-1.7255,-1.7123,0.0,0.0,0.0,-1.6702,-1.7521,0.0,-1.7928,-1.8601,-1.9337,-2.0113,-2.1024,-2.1518,-2.1576,-2.1181,-2.0611,-1.9856,-1.9624,-1.9827,-2.0436,-2.0204,-2.0553,-2.1394,-2.1663,-2.1634,-2.1394,-2.1278,-2.0814,-2.0146,-2.0756,-2.0843,-2.0727,0.0,0.0,0.0,0.0,0.0,0.0,0.0,0.0,0.0,-2.3161,-2.3759,-2.4537,-2.5196,-2.4859,-2.459,-2.6153,-2.5822,0.0,-2.8992,-2.9147,-2.9108,-3.1386,0.0,0.0,0.0,0.0,-3.8015,0.0,0.0,0.0,0.0,0.0,0.0,0.0,0.0,0.0,0.0,0.0,0.0,0.0,0.0,0.0,0.0,0.0,0.0,0.0,0.0,0.0,0.0,-4.461,-4.461,-4.461,-4.4363,-4.4024,-4.3593,-4.3347,-4.3033,-4.2786,-4.3063,-4.2817,-4.2171,-4.1635,-4.1465,-4.1541,-4.1444,-4.1489,-4.1588,-4.1588,-4.1588,-4.1588,-4.1588,-4.1588,-4.1588,0.0,0.0,-1.7683,-1.77,0.0,0.0,-1.7319,-1.7713,-1.7897,-1.7664,-1.7928,-1.8209,0.0,0.0,0.0,-1.7569,-1.7811,-1.8289,-1.9042,-1.9794,-2.0807,-2.2142,-2.2661,-2.262,-2.2004,-2.1394,-2.1075,-2.1075,-2.0465,-2.0494,-2.1075,-2.0524,-2.093,-2.2033,-2.0988,-2.1075,-2.1917,-2.0901,-2.0349,-2.0233,-2.0863,-2.0776,-2.0407,-2.159,0.0,0.0,0.0,0.0,0.0,0.0,0.0,0.0,-2.2583,-2.3999,-2.5226,-2.4178,-2.5166,-2.6632,-2.6811,-2.6782,0.0,-3.1269,-3.0571,0.0,-3.3515,-3.4115,-3.4877,0.0,0.0,0.0,0.0,0.0,0.0,0.0,0.0,0.0,0.0,0.0,0.0,0.0,0.0,0.0,0.0,0.0,0.0,0.0,0.0,0.0,0.0,0.0,0.0,-4.4517,-4.4517,-4.4486,-4.4425,-4.3809,-4.3501,-4.3408,-4.2786,-4.2171,-4.1524,-4.2202,-4.214,-4.1498,-4.1227,-4.1117,-4.1117,-4.1456,-4.1588,-4.1588,-4.1588,-4.162,-4.1683,-4.1683,-4.1715,-4.1778,0.0,0.0,-1.7577,-1.7688,0.0,0.0,-1.7598,-1.7739,-1.7822,-1.777,-1.7919,-1.8211,-1.8614,-1.8605,0.0,-1.865,-1.9063,-1.9399,-1.9598,-2.0188,-2.1015,-2.2147,-2.2661,-2.262,-2.2004,-2.1859,-2.1772,-2.1772,-2.1133,-2.1133,-2.1772,-2.1656,-2.2004,-2.2736,-2.3514,-2.3165,-2.2033,-2.2759,-2.2207,-2.0892,-2.1637,-2.1799,-2.1648,-2.1995,-2.2367,0.0,0.0,0.0,0.0,0.0,0.0,0.0,-2.334,-2.3699,-2.4298,-2.5585,-2.6243,-2.6931,-2.8543,-2.8184,0.0,0.0,-3.0255,-3.183,-3.5905,-3.6483,-3.6858,0.0,0.0,0.0,0.0,0.0,0.0,0.0,0.0,0.0,0.0,0.0,0.0,0.0,0.0,0.0,0.0,0.0,0.0,0.0,0.0,0.0,0.0,0.0,0.0,-4.384,-4.384,-4.3556,-4.3033,-4.2879,-4.254,0.0,-4.1894,-4.1432,-4.0751,-4.1494,-4.1432,-4.0755,-4.101,-4.1117,-4.1117,-4.1456,-4.1588,-4.1588,-4.1588,-4.1936,-4.2442,-4.2442,-4.2789,-4.32,0.0,0.0,0.0,0.0,0.0,0.0,0.0,0.0,-1.7942,-1.8081,-1.8535,-1.8933,-1.908,-1.9202,0.0,0.0,-1.979,-2.0161,-2.051,-2.0996,-2.1653,-2.2495,-2.2486,-2.2446,-2.2417,-2.2417,-2.2614,-2.2904,-2.2556,-2.241,-2.2417,-2.2149,-2.2301,-2.2888,-2.3036,-2.2731,-2.2141,-2.2535,-2.2139,-2.1231,-2.1653,-2.1574,-2.1269,-2.1653,-2.1821,-2.1821,-2.1845,0.0,0.0,0.0,0.0,0.0,0.0,0.0,-2.4657,-2.5046,-2.5854,-2.6811,-2.7859,0.0,0.0,-3.0717,0.0,-3.4636,-3.6222,-3.7432,0.0,0.0,0.0,0.0,0.0,0.0,0.0,0.0,0.0,0.0,0.0,0.0,0.0,0.0,0.0,0.0,0.0,0.0,0.0,0.0,0.0,0.0,0.0,-4.3618,-4.3464,-4.3125,-4.3094,-4.294,-4.2602,-4.2294,-4.1955,-4.1586,-4.1247,-4.0843,-4.0505,-4.0909,-4.0843,-4.0539,-4.0948,-4.0882,-4.0543,-4.0922,-4.1057,-4.1057,-4.1057,-4.1763,-4.2695,-4.2695,-4.3137,-4.3576,0.0,0.0,0.0,0.0,0.0,0.0,0.0,0.0,0.0,-1.8807,-1.966,-2.0143,-1.991,-2.0093,-2.0215,0.0,0.0,0.0,-2.1428,-2.188,-2.2359,-2.2888,-2.2417,-2.2388,-2.2888,-2.3004,-2.3287,-2.3717,-2.3833,-2.3769,-2.3449,-2.2949,-2.2978,-2.3397,-2.2469,-2.2181,-2.2358,-2.1904,-2.1798,-2.1887,-2.1798,-2.1562,-2.1305,-2.1768,-2.165,-2.1325,-2.1878,-2.2147,-2.2209,-2.2209,0.0,0.0,0.0,0.0,-2.5196,-2.3969,-2.5016,-2.6602,-2.6602,0.0,-3.0342,-3.2856,-3.513,0.0,-3.5968,-3.7597,0.0,0.0,0.0,0.0,0.0,0.0,0.0,0.0,0.0,0.0,0.0,0.0,0.0,0.0,0.0,0.0,0.0,0.0,0.0,0.0,0.0,0.0,-4.2633,-4.2602,-4.2571,-4.2448,-4.2448,-4.2386,-4.2263,-4.1709,-4.1401,-4.1401,-4.0782,-4.0505,-4.0505,-4.0335,-4.037,-4.0539,-4.078,-4.0509,-3.9925,-4.0339,-4.0409,-4.0305,-4.0443,-4.1417,-4.2682,-4.2648,-4.3151,-4.3717,0.0,0.0,0.0,0.0,0.0,0.0,0.0,0.0,0.0,0.0,-2.143,-2.1941,-2.184,-2.1879,-2.1884,-2.1871,-2.1387,-2.1372,-2.2053,0.0,0.0,-2.2888,-2.2801,-2.2801,-2.2888,-2.3461,-2.3543,-2.3033,-2.363,-2.4509,-2.5678,-2.559,-2.5565,-2.5574,-2.557,-2.4669,-2.3142,-2.3076,-2.3371,-2.3873,-2.3392,-2.3807,-2.4604,-2.4222,-2.4364,-2.4749,-2.4838,-2.4961,-2.503,-2.503,-2.5053,0.0,0.0,0.0,-2.4575,-2.3819,-2.5016,-2.6602,-2.6602,0.0,-3.0881,0.0,-3.3754,-3.4562,0.0,0.0,0.0,0.0,0.0,0.0,0.0,0.0,0.0,0.0,0.0,0.0,0.0,0.0,0.0,0.0,0.0,0.0,0.0,0.0,0.0,0.0,0.0,0.0,-4.2602,-4.2602,-4.2325,-4.174,-4.174,-4.1432,-4.0782,-4.0689,-4.0628,-4.0628,-4.0536,-4.0505,-4.0505,-3.9778,-3.9849,-4.0505,-4.02,-3.9995,-3.9925,-4.0339,-4.0065,-3.9535,-4.0235,-4.1353,-4.2504,-4.2464,-4.3266,-4.4229,0.0,0.0,0.0,0.0,0.0,0.0,0.0,0.0,0.0,0.0,0.0,-2.231,-2.2298,-2.2274,-2.2526,-2.3206,-2.3005,-2.3045,-2.3622,-2.3865,-2.396,-2.396,-2.396,-2.3983,-2.4036,-2.4273,-2.4273,-2.396,-2.399,-2.5457,-2.8228,-2.8033,-2.7292,-2.6188,-2.7432,-2.6505,-2.4044,-2.5212,-2.5444,-2.4974,-2.4358,-2.4216,-2.4372,-2.4484,-2.4477,-2.4477,-2.5222,-2.5568,-2.5615,-2.5615,-2.5615,-2.5555,-2.5232,0.0,0.0,0.0,-2.4784,-2.5884,-2.7769,-2.8278,-2.9325,0.0,-3.3784,-3.3724,-3.6716,0.0,0.0,0.0,0.0,0.0,0.0,0.0,0.0,0.0,0.0,0.0,0.0,0.0,0.0,0.0,0.0,0.0,0.0,0.0,0.0,0.0,0.0,-4.2151,-4.1463,-4.1397,-4.1274,-4.1001,-4.1001,-4.0812,-4.0505,-4.0505,-4.0266,-3.9849,-3.9985,-3.9809,-3.9349,-3.8664,-3.8987,-4.0021,-3.9463,-3.932,-3.9391,-3.9247,-3.9247,-3.9284,-3.9211,-4.0353,-4.192,-4.1815,-4.2687,-4.3727,0.0,0.0,0.0,0.0,0.0,0.0,0.0,0.0,0.0,0.0,0.0,-2.3132,-2.3044,0.0,0.0,0.0,-2.4276,-2.4426,-2.48,-2.4824,-2.4824,-2.4824,-2.4824,-2.4824,-2.4878,-2.4824,-2.4737,-2.4612,-2.4265,-2.5883,-2.9279,-2.9529,-2.8898,-2.7632,-2.9044,-2.8416,-2.6361,-2.7415,-2.738,-2.6542,-2.5681,-2.5076,-2.4597,-2.4605,-2.4485,-2.4477,-2.5495,-2.5854,-2.5854,-2.5854,-2.5974,-2.6063,-2.5704,-2.5734,0.0,0.0,0.0,0.0,0.0,0.0,-2.7769,-3.2766,-3.2886,-3.2527,0.0,0.0,0.0,0.0,0.0,0.0,0.0,0.0,0.0,0.0,0.0,0.0,0.0,0.0,0.0,0.0,0.0,0.0,0.0,0.0,0.0,0.0,0.0,-4.1513,-4.0608,-4.0643,-4.0608,-4.0505,-4.0574,-4.0574,-4.0505,-4.0505,-4.0126,-3.932,-3.9595,-3.9271,-3.8472,-3.7872,-3.8211,-3.9199,-3.8701,-3.859,-3.8672,-3.8323,-3.8397,-3.8701,-3.8323,-3.9299,-4.0916,-4.0771,-4.1558,-4.2485,0.0,0.0,0.0,0.0,0.0,0.0,0.0,0.0,0.0,0.0,0.0,-2.5411,-2.4815,-2.5283,-2.5383,-2.4804,-2.4747,-2.48,-2.4878,-2.4878,-2.4878,-2.4824,-2.4878,0.0,-2.4824,-2.4824,-2.4583,-2.4136,-2.4107,-2.5276,-2.7569,-2.9461,-3.0648,-3.1183,-3.0673,-3.0703,-3.1032,-2.9295,-2.8876,-2.9292,-2.7974,-2.7435,-2.7195,-2.5292,-2.5375,-2.6452,-2.6512,-2.6542,-2.6542,-2.6542,-2.6986,-2.7285,-2.6004,-2.6033,-2.6422,0.0,0.0,0.0,0.0,-2.7165,0.0,-2.9352,0.0,0.0,0.0,0.0,0.0,0.0,0.0,0.0,0.0,0.0,0.0,0.0,0.0,0.0,0.0,0.0,0.0,0.0,0.0,0.0,0.0,0.0,0.0,0.0,0.0,-4.1187,-4.0783,-4.095,-4.0882,-4.0505,-4.0681,-4.0681,-4.0505,-4.0505,-4.0126,-3.932,-3.9595,-3.9271,-3.8472,-3.7872,-3.772,-3.7985,-3.7881,-3.7881,-3.7947,-3.8127,-3.7787,-3.7211,-3.7938,-3.8655,-3.9294,-3.9237,-3.9644,-4.0246,0.0,0.0,0.0,0.0,0.0,0.0,0.0,0.0,0.0,0.0,0.0,0.0,0.0,-2.5704,-2.5865,-2.6068,-2.6097,-2.6097,-2.6123,-2.6123,-2.6097,-2.6097,-2.6097,-2.6097,-2.6097,-2.523,-2.4985,-2.5306,-2.4582,-2.5549,-2.8066,-2.886,-3.0285,-3.2198,-3.4113,-3.3215,-3.0402,-3.2258,-3.0941,-2.7889,-3.0372,-2.9086,-2.5884,-2.7709,-2.8188,-2.7769,0.0,0.0,-2.8846,-2.7171,-2.7046,-2.7435,-2.6512,-2.6393,-2.6452,-2.5794,0.0,0.0,0.0,0.0,0.0,-2.8876,-2.8633,0.0,0.0,0.0,0.0,0.0,0.0,0.0,0.0,0.0,0.0,0.0,0.0,0.0,0.0,0.0,0.0,0.0,0.0,0.0,0.0,0.0,0.0,0.0,0.0,0.0,-4.0581,-3.9877,-3.9915,-4.0882,-4.0848,-4.0681,-4.0505,-3.999,-3.932,-3.8524,-3.8405,-3.791,-3.7134,-3.7211,-3.725,-3.7327,-3.7299,-3.7567,-3.8052,-3.7634,-3.7558,-3.7749,-3.7519,-3.7863,-3.8542,-3.8367,-3.881,-3.946,0.0,0.0,0.0,-2.4765,0.0,-2.5769,-2.6364,-2.6445,-2.6402,-2.6231,0.0,0.0,0.0,0.0,-2.6239,-2.6471,-2.6445,-2.6445,-2.6445,-2.6704,-2.6881,-2.7084,-2.691,-2.6881,-2.7113,-2.5807,-2.5446,-2.6084,-2.507,-2.571,-2.779,-2.8581,-2.9983,-3.1958,-3.4831,-3.4532,-3.2107,-3.4711,-3.3544,-3.0073,-3.2048,-3.0731,-2.7714,-2.9026,-2.9265,0.0,0.0,0.0,0.0,-2.8936,0.0,0.0,0.0,0.0,0.0,0.0,0.0,0.0,-2.7016,0.0,0.0,0.0,0.0,0.0,0.0,0.0,0.0,0.0,0.0,0.0,0.0,0.0,0.0,0.0,0.0,0.0,0.0,0.0,0.0,0.0,0.0,0.0,0.0,0.0,0.0,0.0,0.0,0.0,-4.0374,-3.9677,-3.9717,-4.0749,-4.0712,-4.0574,-4.0436,-3.9707,-3.8891,-3.8115,-3.7691,-3.7095,-3.6405,-3.6733,-3.6929,-3.6978,-3.6978,-3.7289,-3.7749,-3.7211,-3.7327,-3.7749,-3.7211,-3.7327,-3.7806,-3.7625,-3.7951,-3.8427,-2.3974,-2.4053,-2.4154,-2.4755,-2.4907,-2.5164,-2.5745,-2.5832,-2.6065,-2.6733,0.0,0.0,0.0,0.0,0.0,-2.589,-2.5832,-2.5832,-2.5832,-2.6442,-2.7055,-2.7637,-2.7113,-2.7084,-2.7666,-2.6445,-2.5958,-2.6238,-2.556,-2.5705,-2.6662,-2.8633,-2.9834,-3.0492,-3.2497,-3.4502,-3.6327,-3.6447,-3.6387,-3.5938,-3.2916,-3.2348,-3.2856,-2.9232,-2.8603,0.0,-3.1809,-3.13,0.0,-3.1869,0.0,0.0,0.0,0.0,0.0,0.0,0.0,0.0,0.0,0.0,0.0,0.0,0.0,0.0,0.0,0.0,0.0,0.0,0.0,0.0,0.0,0.0,0.0,0.0,0.0,0.0,0.0,0.0,0.0,0.0,0.0,0.0,0.0,0.0,0.0,0.0,0.0,-4.0581,-4.02,-4.0405,-4.0405,-4.02,-4.0261,-4.0261,-4.0261,-3.96,-3.8855,-3.8049,-3.7529,-3.6968,-3.6405,-3.6603,-3.6811,-3.6978,-3.6978,-3.6978,-3.6978,-3.6978,-3.6978,-3.6978,-3.6978,-3.6978,-3.6978,-3.6978,-3.6978,-3.7063,-2.4883,-2.5312,-2.5762,-2.6436,-2.6549,-2.6608,-2.6784,-2.6737,-2.6747,0.0,0.0,0.0,-2.682,-2.682,-2.6733,-2.6559,-2.653,-2.653,-2.653,-2.6704,-2.6852,-2.7026,-2.6881,-2.6905,-2.7188,-2.6367,-2.6289,-2.7069,-2.6387,-2.6485,-2.7345,-2.7884,-2.8244,-2.8483,-3.0432,-3.1629,-3.2347,-3.525,-3.3724,-2.9804,-3.51,-3.3455,-2.8248,0.0,0.0,0.0,0.0,-3.2467,-3.2437,0.0,-3.1629,-3.0073,0.0,0.0,0.0,0.0,0.0,0.0,-2.6722,0.0,0.0,0.0,0.0,0.0,0.0,-2.8188,0.0,0.0,0.0,0.0,0.0,0.0,0.0,0.0,0.0,0.0,0.0,0.0,0.0,0.0,0.0,0.0,0.0,0.0,0.0,0.0,-3.9409,-3.9392,-4.0374,-4.0612,-4.0612,-4.0405,-4.0301,-3.9884,-3.9139,-3.873,-3.7994,-3.7011,-3.6783,-3.6536,-3.6405,-3.6603,-3.6811,-3.6978,-3.6978,-3.6978,-3.6978,-3.6978,-3.6978,-3.6978,-3.6978,-3.6978,-3.6978,-3.6978,-3.6978,-3.7063,-2.5251,-2.5804,-2.6326,-2.671,-2.703,-2.7207,-2.7207,-2.713,-2.7078,0.0,0.0,0.0,-2.6948,-2.6714,-2.6542,-2.6491,-2.6491,-2.6436,-2.6384,-2.6646,-2.691,-2.7171,-2.6649,-2.6672,-2.7278,-2.6426,-2.6432,-2.731,-2.6975,-2.7101,-2.7585,-2.7585,-2.7585,-2.7645,-2.8783,-2.9295,-2.9475,-3.2377,-3.2527,-3.1031,-3.465,-3.4201,0.0,-3.4891,-3.4562,0.0,0.0,0.0,-3.4801,-3.525,-3.3784,0.0,0.0,0.0,0.0,0.0,0.0,0.0,-2.6716,-2.6602,0.0,0.0,0.0,0.0,-2.6153,-2.8278,-3.0552,0.0,0.0,0.0,0.0,0.0,0.0,0.0,0.0,0.0,0.0,0.0,0.0,0.0,0.0,0.0,0.0,0.0,0.0,-4.0152,-3.9524,-3.947,-4.0266,-4.0301,-4.0296,-4.0191,-4.0056,-3.9707,-3.9133,-3.8538,-3.791,-3.7386,-3.6626,-3.6405,-3.6654,-3.6417,-3.6575,-3.6978,-3.6811,-3.6822,-3.6978,-3.6978,-3.6978,-3.6978,-3.6811,-3.6822,-3.6978,-3.6811,-3.685,-3.7035,0.0,-2.5938,-2.6376,-2.6376,-2.6849,-2.7258,-2.7258,-2.7233,-2.7233,0.0,-2.7207,-2.7207,-2.7207,-2.6651,-2.6276,-2.6122,-2.6122,-2.6071,-2.597,-2.6497,-2.7079,-2.7634,-2.6556,-2.6497,-2.7661,-2.6685,-2.6516,-2.7258,-2.7361,-2.7488,-2.7585,-2.7585,-2.7585,-2.7585,-2.7585,-2.7585,-2.7675,-2.8783,-3.1838,-3.5609,-3.2975,-3.468,0.0,0.0,-3.6148,-3.6567,-3.8841,-3.8332,-3.6836,-3.8542,-3.6686,0.0,0.0,0.0,0.0,0.0,-2.7953,-2.6578,-2.645,-2.642,-2.6409,0.0,0.0,0.0,-2.5539,-2.8482,-3.1455,0.0,0.0,0.0,0.0,0.0,0.0,0.0,0.0,0.0,0.0,0.0,0.0,0.0,0.0,0.0,0.0,-4.0505,-4.0436,-4.0331,-4.0296,-4.0226,-4.0081,-3.9874,-3.9768,-3.9768,-3.9732,-3.9595,-3.9451,-3.8671,-3.8252,-3.8223,-3.6951,-3.661,-3.7097,-3.6248,-3.6301,-3.7013,-3.6524,-3.6536,-3.69,-3.6861,-3.69,-3.694,-3.6615,-3.6654,-3.6889,-3.6536,-3.6575,-3.6861,-2.7031,-2.724,-2.733,-2.733,-2.7449,-2.7509,-2.7509,-2.7437,-2.7361,-2.7361,-2.7258,-2.7207,-2.7207,-2.7089,-2.6975,-2.6949,-2.6949,-2.6949,-2.6924,-2.7041,-2.7163,-2.728,-2.7071,-2.7067,-2.7465,-2.7225,-2.7268,-2.7509,-2.7564,-2.756,-2.7585,-2.7585,-2.7585,-2.7585,-2.7585,-2.7585,-2.7585,-2.7315,-2.8906,-3.1839,-3.3903,0.0,-3.5011,-3.8212,-3.7554,-3.5432,-3.9529,-3.9379,-3.7225,-3.7105,-3.6178,-3.4562,0.0,0.0,0.0,0.0,0.0,0.0,0.0,0.0,0.0,0.0,0.0,0.0,-2.4213,-2.4234,-2.4883,0.0,0.0,0.0,0.0,0.0,0.0,0.0,0.0,0.0,0.0,0.0,0.0,0.0,0.0,0.0,0.0,-4.0401,-4.0366,-4.047,-4.047,-4.0436,-4.0401,-4.0261,-4.0156,-4.0156,-3.9874,-3.9133,-3.7927,-3.8438,-3.8036,-3.6743,-3.7428,-3.7841,-3.7937,-3.714,-3.692,-3.7217,-3.625,-3.6098,-3.6496,-3.6111,-3.6389,-3.6978,-3.69,-3.6733,-3.6496,-3.6445,-3.6218,-3.5951,-2.6542,-2.6896,-2.7106,-2.7106,-2.7375,-2.7585,-2.7585,-2.7539,-2.7514,-2.7514,-2.7437,-2.7412,-2.7412,-2.7412,-2.7386,-2.731,-2.7284,-2.7258,-2.7207,-2.7207,-2.7207,-2.7207,-2.6882,-2.6908,-2.7284,-2.7034,-2.711,-2.7514,-2.759,-2.7585,-2.7585,-2.7585,-2.7585,-2.7585,-2.7585,-2.7585,-2.7555,-2.6896,-2.8308,-3.1182,-3.3574,0.0,-3.5848,-3.9499,-3.9649,-3.8247,-4.0583,-4.0516,-3.92,-3.7883,-3.6985,0.0,0.0,-3.1898,-2.9719,0.0,-2.6735,-2.5634,0.0,0.0,0.0,-2.4459,0.0,0.0,0.0,-2.4326,-2.4968,0.0,0.0,0.0,0.0,0.0,0.0,0.0,0.0,0.0,0.0,0.0,0.0,0.0,0.0,0.0,0.0,-4.0331,-4.0366,-4.0505,-4.0505,-4.0505,-4.0505,-3.9985,-3.991,-4.0296,-3.9235,-3.8618,-3.8609,-3.8417,-3.8126,-3.7703,-3.7882,-3.8173,-3.8463,-3.7537,-3.7317,-3.7662,-3.6497,-3.6212,-3.6469,-3.5926,-3.5951,-3.635,-3.635,-3.623,-3.6058,-3.6058,-3.5898,-3.571,-2.6004,-2.6422,-2.6806,-2.6806,-2.7255,-2.7585,-2.7585,-2.7585,-2.7585,-2.7585,-2.7585,-2.7735,-2.8124,-2.7824,-2.7744,-2.8152,-2.8092,-2.7862,-2.7491,-2.7698,-2.7669,-2.7284,-2.6756,-2.6726,-2.7255,-2.6852,-2.6902,-2.7437,-2.7564,-2.7585,-2.7585,-2.7585,-2.7585,-2.7585,-2.7585,-2.7884,-2.8334,-2.7769,-2.9385,-3.2407,0.0,-3.5609,-3.7375,-4.0427,-4.1324,-4.1055,-4.1482,-4.1602,-4.1272,-3.911,-3.8033,-3.7524,-3.7165,-3.4203,0.0,0.0,0.0,0.0,0.0,0.0,0.0,0.0,0.0,-2.3599,0.0,0.0,0.0,0.0,0.0,0.0,0.0,0.0,0.0,0.0,0.0,0.0,0.0,0.0,0.0,0.0,0.0,0.0,0.0,-3.9447,-3.9886,-4.0474,-4.0335,-4.0231,-4.0266,-3.9559,-3.9379,-3.9844,-3.8583,-3.8379,-3.9294,-3.8585,-3.8464,-3.8961,-3.8407,-3.842,-3.8922,-3.7915,-3.7691,-3.8074,-3.6914,-3.6464,-3.6495,-3.5926,-3.5656,-3.5588,-3.5669,-3.5629,-3.5588,-3.5588,-3.5507,-3.5467,-2.7375,-2.7435,-2.7495,-2.7495,-2.7555,-2.7585,-2.7585,-2.7585,-2.7585,-2.7585,-2.7585,-2.8274,-2.9983,-2.8633,-2.8517,-3.0824,-3.0494,-2.9657,-2.8525,-2.948,-2.9358,-2.7624,-2.7475,-2.7475,-2.7534,-2.75,-2.75,-2.756,-2.7585,-2.7585,-2.7585,-2.7585,-2.7585,-2.7585,-2.7585,-2.8876,-3.1062,-3.0972,-3.2527,0.0,-3.7764,-3.7524,0.0,-4.0613,-4.1175,-3.9858,-4.1662,-4.2291,-4.1901,0.0,-3.8332,-3.7973,0.0,-3.4143,-3.1931,0.0,0.0,0.0,0.0,0.0,0.0,0.0,-2.2264,0.0,0.0,0.0,0.0,0.0,0.0,0.0,0.0,0.0,0.0,0.0,0.0,0.0,0.0,0.0,0.0,0.0,0.0,0.0,0.0,0.0,-3.8236,-4.0313,-3.9677,-3.9254,-3.9427,-3.932,-3.8964,-3.8376,-3.873,-3.8643,-3.8048,-3.8945,-3.9096,-3.8487,-3.9163,-3.9525,-3.9541,-3.8662,-3.8304,-3.832,-3.7306,-3.6657,-3.6315,-3.5816,-3.5455,-3.5208,-3.5548,-3.5467,-3.5168,-3.5168,-3.4895,-3.4564,-2.7585,-2.7585,-2.7585,-2.7585,-2.7585,-2.7585,-2.7585,-2.7944,-2.8064,-2.7645,-2.7944,-2.8906,-3.0853,-3.0372,-3.0941,-3.3573,0.0,-3.3185,0.0,0.0,-3.13,-3.0462,-2.9355,-2.8753,-2.8753,-2.8753,-2.8753,-2.8753,-2.8753,-2.8753,-2.8753,-2.8753,-2.8753,-2.8753,-2.8753,-2.9983,-3.2079,0.0,-3.3634,0.0,0.0,0.0,0.0,-4.1324,-4.2402,-4.1615,-4.1324,-4.1953,-4.2462,0.0,-3.9409,0.0,0.0,0.0,0.0,0.0,0.0,0.0,0.0,0.0,0.0,0.0,0.0,0.0,-2.3446,0.0,-2.0777,0.0,0.0,0.0,0.0,0.0,0.0,0.0,0.0,0.0,0.0,0.0,0.0,0.0,0.0,0.0,0.0,0.0,0.0,0.0,0.0,-3.751,-3.7128,-3.8053,-3.845,-3.8086,-3.7462,-3.7518,-3.8315,-3.8378,-3.8558,-3.8939,-3.9271,-3.954,-3.97,-3.9179,-3.8912,-3.8884,-3.8011,-3.7434,-3.7026,-3.6162,-3.5763,-3.558,-3.5301,-3.5003,-3.4729,-3.5003,-3.4812,-3.4397,-2.7585,-2.7585,-2.7585,-2.7585,-2.7585,-2.7585,-2.7585,-2.8607,-2.9235,-2.8727,-2.9235,-3.0432,-3.2378,-3.178,0.0,0.0,-3.5759,-3.5759,0.0,0.0,-3.3304,-3.3304,-3.0911,0.0,-3.0372,-2.9864,-2.9621,-2.9621,-2.9621,-2.9621,-2.9621,-2.9621,-2.9621,-2.9621,-2.9621,-3.0881,-3.3066,0.0,-3.525,-3.7913,-3.8721,-3.902,-3.9254,-4.1586,-4.2841,-4.311,-4.1713,-4.2094,-4.2841,-3.9918,-4.0217,0.0,-3.899,0.0,0.0,0.0,0.0,0.0,-2.9753,0.0,0.0,0.0,0.0,0.0,0.0,0.0,0.0,0.0,0.0,0.0,0.0,0.0,0.0,0.0,0.0,0.0,0.0,0.0,0.0,0.0,0.0,0.0,0.0,0.0,0.0,0.0,0.0,0.0,-3.5195,-3.6843,-3.7663,-3.7472,-3.6619,-3.6865,-3.8366,-3.8044,-3.8347,-3.9292,-3.9203,-3.9292,-3.9452,-3.9292,-3.9158,-3.9069,-3.8505,-3.7989,-3.7555,-3.6704,-3.6215,-3.5827,-3.5235,-3.4846,-3.4605,-3.4921,-3.4797,-3.4481,-2.7585,-2.7585,-2.7585,-2.7585,-2.7585,-2.7585,-2.7585,-2.9774,-3.1391,-3.1391,-3.1959,0.0,0.0,0.0,0.0,0.0,0.0,-3.6447,-3.6447,0.0,-3.54,0.0,0.0,-3.0462,0.0,-3.0552,-2.9621,-2.9621,-2.9621,-2.9621,-2.9621,-2.9621,-2.9621,-2.9621,-2.9621,-3.1419,-3.4533,-3.5818,-3.8242,-4.1324,-4.2641,-4.311,-4.2901,0.0,-4.1683,-4.329,-4.323,0.0,0.0,-4.1025,-4.0397,0.0,0.0,0.0,0.0,0.0,0.0,0.0,0.0,0.0,0.0,-2.8351,0.0,0.0,0.0,0.0,-2.2034,0.0,0.0,0.0,0.0,0.0,-2.1694,-2.227,-2.1798,0.0,0.0,0.0,0.0,0.0,0.0,0.0,0.0,0.0,0.0,0.0,0.0,0.0,-3.4284,-3.6014,-3.6598,-3.579,-3.6834,-3.7469,-3.7528,-3.8401,-3.9004,-3.9292,-3.9042,-3.8908,-3.8908,-3.8908,-3.88,-3.8602,-3.8575,-3.8121,-3.7439,-3.7342,-3.6656,-3.5627,-3.56,-3.5383,-3.5044,-3.488,-3.4797,-3.4797,-2.7944,-2.7585,-2.7585,-2.7585,-2.7585,-2.7585,-2.7585,-2.8727,-3.0016,0.0,0.0,0.0,0.0,-3.7075,-3.7315,0.0,0.0,-4.0636,-3.9768,-3.911,0.0,0.0,0.0,-3.4262,0.0,0.0,-3.1958,-3.0193,-3.0642,-3.0853,-3.0853,-3.0853,-3.0853,-3.0853,-3.0853,-3.2467,0.0,0.0,0.0,0.0,0.0,-4.2043,-4.2073,0.0,0.0,-4.329,-4.329,-4.329,0.0,-4.1564,-4.1624,-4.2192,-4.1324,-4.0277,-3.9563,-4.052,-3.8884,0.0,0.0,0.0,-3.4944,-3.34,0.0,0.0,0.0,0.0,0.0,0.0,0.0,0.0,0.0,0.0,-2.1145,-2.1694,-2.1303,-2.1042,0.0,0.0,0.0,0.0,0.0,0.0,0.0,0.0,0.0,0.0,0.0,0.0,0.0,-3.3261,-3.4789,-3.3984,-3.5763,-3.6904,-3.7315,-3.8011,-3.858,-3.9042,-3.9114,-3.9042,-3.8908,-3.8908,-3.88,-3.8602,-3.8602,-3.845,-3.8148,-3.7776,-3.7378,-3.6927,-3.6088,-3.5748,-3.5577,-3.5136,-3.5003,-3.5015,-2.8124,-2.7585,-2.7585,-2.7585,-2.7585,-2.7914,-2.8846,-2.9744,0.0,0.0,-3.4502,0.0,-3.9379,0.0,-3.9589,0.0,-4.1594,-4.1944,-4.2073,-4.0157,0.0,-4.1384,-3.8422,0.0,0.0,0.0,0.0,0.0,-3.1511,-3.1301,-3.2168,-3.1241,-3.0823,-3.0823,-3.0823,-3.2198,-3.4562,-3.6327,-3.8482,0.0,0.0,-4.1654,0.0,0.0,-4.2901,-4.329,0.0,-4.329,-4.317,-4.2372,-4.2641,-4.314,-4.2342,-4.1773,-4.1569,-4.2265,-4.0851,-3.9002,-3.8951,-3.832,0.0,-3.6115,-3.3444,0.0,-3.0237,0.0,0.0,0.0,0.0,0.0,0.0,0.0,-2.2663,-2.2191,-2.1799,-2.1642,0.0,-2.1642,0.0,0.0,0.0,0.0,0.0,0.0,0.0,0.0,-2.7095,0.0,0.0,0.0,-3.3643,-3.3125,-3.54,-3.6853,-3.7315,-3.795,-3.8514,-3.9042,-3.9114,-3.9024,-3.88,-3.88,-3.8621,-3.833,-3.833,-3.833,-3.8304,-3.7934,-3.7714,-3.7467,-3.6698,-3.6316,-3.6109,-3.5461,-3.5208,-3.5289,-2.8214,-2.7705,-2.7705,-2.7705,-2.7735,-2.8637,0.0,0.0,-3.4981,0.0,-3.8841,-3.899,-4.0337,-3.9439,-3.92,-4.0337,-3.9918,-4.0599,-4.2991,-3.917,0.0,0.0,-3.8542,-3.7285,-4.0277,0.0,0.0,0.0,0.0,-3.1061,-3.3425,-3.0821,-2.9621,-2.9621,-2.9621,0.0,-3.2677,-3.537,-3.7674,-3.9619,-4.0816,-4.2073,-4.305,-4.1863,-4.2192,-4.329,-4.329,-4.329,-4.329,-4.329,-4.329,-4.329,-4.329,-4.329,-4.329,-4.329,-4.2699,-4.1852,-4.0986,-4.0043,-3.8755,-3.6552,0.0,0.0,0.0,0.0,-3.0712,0.0,0.0,0.0,0.0,0.0,0.0,-2.3707,-2.321,-2.2923,-2.2427,0.0,0.0,0.0,0.0,0.0,0.0,0.0,0.0,-2.2991,-2.4991,-2.672,0.0,0.0,-3.2925,-3.3088,-3.5615,-3.7138,-3.7485,-3.8184,-3.8774,-3.9292,-3.9042,-3.8819,-3.8602,-3.8602,-3.833,-3.79,-3.79,-3.79,-3.79,-3.79,-3.7651,-3.735,-3.7324,-3.7087,-3.6684,-3.5787,-3.5413,-3.5493,-2.9621,-2.9082,-2.9082,-2.9082,-2.9864,-3.0883,-3.2049,0.0,0.0,0.0,-3.908,-4.0397,-4.1752,-4.2851,-4.288,-4.1265,-4.1863,0.0,0.0,0.0,0.0,-4.323,-4.2004,-4.0778,-3.9709,-3.899,0.0,-3.6716,0.0,-3.2826,-3.3425,-3.0821,-2.9621,-2.9621,-2.9621,-3.0672,-3.2677,-3.537,-3.8182,-4.0816,-4.0187,-4.0696,0.0,0.0,-4.2192,-4.329,-4.329,-4.329,-4.329,-4.329,-4.329,-4.329,-4.329,-4.329,-4.329,-4.329,-4.313,-4.29,-4.2699,-4.1449,-4.0092,-3.9522,-3.6832,-3.4271,0.0,0.0,0.0,0.0,0.0,0.0,0.0,0.0,0.0,-2.5171,-2.3001,-2.1433,0.0,0.0,0.0,-2.227,0.0,0.0,0.0,0.0,-2.3769,-2.3497,-2.4317,-2.5658,0.0,0.0,0.0,-3.3006,-3.358,-3.4982,-3.7246,-3.7467,-3.8031,-3.8997,-3.9158,-3.9069,-3.8819,-3.8819,-3.8575,-3.8122,-3.8122,-3.8057,-3.79,-3.79,-3.7867,-3.7703,-3.7437,-3.7087,-3.6737,-3.627,-3.5871,-3.5616,-3.0071,-2.9621,0.0,-3.0342,0.0,-3.4143,-3.4233,-3.5669,0.0,-4.0098,-4.1175,0.0,-4.3509,-4.4616,-4.4706,-4.321,-4.2731,0.0,-4.2551,0.0,0.0,-4.3648,-4.321,-4.2073,-4.0307,-4.0068,0.0,-3.8631,0.0,-3.3664,-3.4741,-3.1239,-2.9621,-2.9621,-2.9621,-3.0522,-3.2288,-3.5818,-3.8721,-4.0905,-4.0457,0.0,0.0,-4.1594,-4.2192,-4.329,-4.329,-4.329,-4.329,-4.329,-4.329,-4.329,-4.329,-4.329,-4.329,-4.329,-4.2739,-4.214,-4.214,-4.0774,-3.9502,-3.9913,-3.793,-3.6044,-3.6379,-3.5453,-3.4397,0.0,0.0,0.0,0.0,0.0,0.0,0.0,0.0,0.0,0.0,0.0,0.0,0.0,0.0,0.0,0.0,0.0,-2.3478,-2.3255,-2.3675,0.0,0.0,0.0,0.0,-3.1042,-3.2739,-3.4281,-3.5669,-3.5897,-3.673,-3.8128,-3.833,-3.8556,-3.8908,-3.8908,-3.8684,-3.8349,-3.8349,-3.8213,-3.8011,-3.8011,-3.7965,-3.7874,-3.767,-3.735,-3.6989,-3.6801,-3.6507,-3.6165,-3.0342,-3.0071,0.0,0.0,0.0,0.0,0.0,-3.8422,0.0,-4.3748,0.0,-4.4067,-4.5065,-4.5394,-4.5484,-4.5304,0.0,-4.2821,-4.5035,-4.1953,-4.1384,-4.4317,-4.3269,-4.2381,-4.1773,-4.0576,0.0,0.0,0.0,-3.4233,-3.6387,-3.1778,-2.9621,-2.9621,-2.9621,0.0,0.0,-3.6447,-3.905,-4.0576,-4.1145,-4.2073,-4.2931,-4.2013,-4.2342,-4.329,-4.329,-4.329,-4.329,-4.329,-4.329,-4.329,-4.317,-4.313,-4.313,-4.313,-4.2017,-4.0774,-4.0774,-3.9546,-3.8395,-3.9033,-3.8549,-3.8103,-3.8836,-3.844,-3.79,-3.79,-3.79,-3.7273,0.0,0.0,0.0,0.0,0.0,0.0,0.0,0.0,0.0,0.0,0.0,0.0,0.0,0.0,0.0,-2.267,-2.3092,0.0,0.0,0.0,0.0,-2.9062,-3.2426,-3.4194,-3.4065,0.0,-3.5574,-3.7461,-3.7257,-3.7822,-3.8953,-3.8953,-3.8845,-3.8647,-3.8647,-3.8485,-3.8213,-3.8213,-3.8103,-3.79,-3.79,-3.7677,-3.7385,-3.7385,-3.7175,-3.6944,-3.2377,0.0,0.0,0.0,0.0,-3.8302,-4.0973,-4.295,-4.3958,-4.3529,-4.4814,-4.5412,-4.4586,-4.5963,-4.6501,-4.5394,-4.4885,0.0,0.0,0.0,0.0,-4.5065,-4.4377,-4.3928,-4.3808,-4.2991,-4.2722,0.0,0.0,-3.6028,-3.6387,-3.1778,-2.9621,-2.9621,-2.9621,0.0,-3.5669,-3.6477,-3.8512,-4.1235,-4.1324,-4.1504,-4.1803,-4.2671,-4.311,-4.329,-4.329,-4.329,-4.329,-4.329,-4.329,-4.317,-4.2456,-4.2252,-4.2252,-4.2252,-4.1976,-4.1728,-4.1728,-4.0944,-3.9956,-3.9343,-3.8549,-3.7946,-3.8103,-3.8037,-3.79,-3.79,-3.79,-3.7769,-3.7351,0.0,0.0,0.0,0.0,0.0,0.0,0.0,0.0,0.0,0.0,0.0,0.0,0.0,0.0,0.0,0.0,0.0,0.0,0.0,0.0,0.0,-3.1314,0.0,0.0,0.0,-3.6464,-3.8922,-3.7747,-3.7909,-3.9247,-3.9247,-3.9114,-3.8863,-3.8863,-3.8594,-3.8213,-3.8213,-3.8103,-3.79,-3.79,-3.7848,-3.7789,-3.7789,-3.7782,-3.7637,0.0,0.0,0.0,0.0,0.0,0.0,0.0,-4.5125,0.0,-4.5024,-4.6022,-4.6591,-4.5933,-4.6741,-4.704,-4.6381,-4.5693,-4.5454,-4.5843,-4.5214,-4.5125,-4.5813,-4.5514,0.0,-4.3868,-4.3838,-4.3509,-4.2821,0.0,-3.6956,-3.6866,-3.2587,-3.0582,-3.0642,-3.1688,-3.3395,0.0,-3.7644,-3.9439,-4.0965,-4.1983,-4.2402,-4.2462,-4.305,-4.305,-4.2618,-4.2618,-4.2304,-4.2058,-4.2981,-4.329,-4.321,-4.278,-4.2374,-4.2005,-4.2005,-4.1281,-4.0646,-4.1113,-4.026,-3.9193,-3.921,-3.8549,-3.79,-3.79,-3.79,-3.79,-3.79,-3.79,-3.7534,-3.6305,-3.4267,0.0,0.0,0.0,0.0,0.0,0.0,0.0,0.0,0.0,0.0,0.0,0.0,0.0,0.0,0.0,0.0,0.0,0.0,0.0,0.0,0.0,0.0,0.0,0.0,0.0,-3.8212,-3.7515,-3.7952,-3.9292,-3.9292,-3.9247,-3.9114,-3.9114,-3.8908,-3.8549,-3.8304,-3.8103,-3.79,-3.79,-3.79,-3.79,-3.79,-3.79,-3.7867,0.0,-3.5908,0.0,0.0,-3.9619,0.0,-4.4257,-4.6591,-4.7818,-4.704,-4.7399,-4.7728,-4.7728,-4.7728,-4.7608,-4.7339,-4.6471,-4.6142,-4.6651,-4.6082,-4.5843,-4.6082,-4.619,-4.5603,-4.4047,-4.4347,-4.3958,0.0,0.0,0.0,-3.7345,-3.3783,-3.2138,-3.2198,0.0,0.0,0.0,0.0,-4.0636,-4.1175,-4.2662,-4.329,-4.329,-4.309,-4.2578,-4.1976,-4.1769,-4.1239,-4.0817,-4.2263,-4.2739,-4.2699,-4.2467,-4.2099,-4.1686,-4.1686,-4.0646,-3.9651,-4.0389,-3.9414,-3.8304,-3.8792,-3.8395,-3.79,-3.79,-3.79,-3.79,-3.7946,-3.8037,-3.746,-3.5555,-3.49,0.0,0.0,0.0,0.0,0.0,0.0,0.0,0.0,0.0,0.0,0.0,0.0,0.0,0.0,0.0,-2.3257,-2.506,-2.6166,-2.7629,0.0,0.0,-3.3074,-3.431,0.0,-3.5695,-3.7666,-3.7353,-3.7952,-3.9292,-3.9292,-3.9292,-3.9292,-3.9292,-3.9158,-3.8863,-3.8368,-3.8076,-3.7992,-3.79,-3.79,-3.79,-3.79,-3.79,-3.79,0.0,0.0,0.0,0.0,0.0,0.0,-4.8281,-4.7967,-4.7788,-4.891,-4.909,-4.912,-4.912,-4.912,-4.8596,-4.7399,-4.7728,-4.704,-4.4736,-4.6172,-4.6591,-4.5454,-4.5992,-4.619,-4.601,-4.5484,-4.4855,0.0,0.0,0.0,0.0,-3.522,-3.4234,0.0,0.0,0.0,0.0,-4.0247,-4.1444,-4.3021,-4.323,-4.329,-4.321,-4.2415,-4.2058,-4.1893,-4.1029,-4.0689,-4.0646,-4.0817,-4.0859,-4.0689,-3.9842,-4.0102,-4.0731,-4.0731,-4.0603,-4.0518,-4.0603,-3.9869,-3.8926,-3.8194,-3.7946,-3.79,-3.79,-3.79,-3.7946,-3.8122,-3.8376,-3.8387,-3.7923,-3.6577,-3.4729,0.0,0.0,0.0,0.0,0.0,0.0,0.0,0.0,0.0,0.0,-2.4305,0.0,0.0,0.0,-2.3285,-2.6277,-2.5035,-2.6001,-2.9908,0.0,-3.1469,-3.373,-3.4794,-3.6614,-3.9084,-3.7801,-3.7952,-3.9292,-3.9292,-3.9292,-3.9292,-3.9292,-3.9158,-3.8863,-3.8368,-3.8213,-3.8167,-3.7992,-3.79,-3.79,-3.79,-3.79,-3.79,0.0,0.0,0.0,0.0,0.0,0.0,0.0,-4.8895,-4.9404,-5.0331,-4.9763,-4.9299,-4.9299,-4.9299,-4.909,-4.8536,-4.876,-4.8461,-4.7369,-4.7668,-4.7668,-4.71,-4.698,-4.692,-4.692,-4.6262,-4.5783,0.0,0.0,0.0,0.0,0.0,0.0,0.0,0.0,-3.9649,-4.0516,-4.2073,-4.321,-4.3958,-4.4347,-4.4496,-4.4374,-4.3432,-4.2754,-4.2164,-4.1196,-4.0477,-4.0003,-4.0003,-4.0282,-4.0518,-4.0173,-3.9913,-3.9782,-3.9782,-3.9414,-3.9087,-3.9607,-3.9104,-3.8485,-3.8639,-3.8258,-3.79,-3.79,-3.79,-3.79,-3.8011,-3.8129,-3.8194,-3.8213,-3.7632,-3.6611,0.0,0.0,0.0,0.0,0.0,0.0,0.0,0.0,0.0,0.0,0.0,-2.5507,0.0,0.0,0.0,-2.5295,-2.6421,0.0,-3.1092,0.0,-3.395,-3.6784,-3.6611,-3.7353,-3.9042,-3.8671,-3.8742,-3.9292,-3.9292,-3.9292,-3.9292,-3.9292,-3.9158,-3.8908,-3.8684,-3.8459,-3.8213,-3.8076,-3.8011,-3.79,-3.79,-3.79,-3.79,-4.7189,0.0,-4.5472,0.0,-4.6967,-4.7938,-4.8506,-4.9673,-5.0495,-5.0631,-5.0182,-4.9853,-4.9853,-4.9853,-4.9719,-4.9329,-4.9434,-4.9224,-4.8446,-4.8506,-4.8327,-4.7728,-4.7638,0.0,-4.7309,-4.686,-4.6531,-4.6279,-4.3021,0.0,0.0,0.0,0.0,0.0,-4.0935,-4.1833,-4.1953,-4.3808,-4.4616,-4.4605,-4.4805,-4.4857,-4.4731,-4.3473,-4.2592,-4.1945,-4.0935,-4.0145,-3.9599,-3.9599,-3.9887,-4.0261,-4.0112,-3.9792,-3.9454,-3.9264,-3.8747,-3.844,-3.9033,-3.8549,-3.8057,-3.8684,-3.8349,-3.79,-3.79,-3.79,-3.79,-3.79,-3.7992,-3.8103,-3.8213,-3.8213,-3.7722,-3.63,0.0,0.0,0.0,0.0,0.0,0.0,0.0,-3.1716,-3.3158,-2.9824,0.0,0.0,0.0,0.0,0.0,0.0,0.0,0.0,0.0,0.0,0.0,-3.6822,-3.7402,-3.8997,-3.9158,-3.9203,-3.9292,-3.9292,-3.9292,-3.9292,-3.9292,-3.9203,-3.8997,-3.8908,-3.8684,-3.8368,-3.8258,-3.8076,-3.7965,-3.79,-3.79,-3.79,-4.9269,-4.9733,-5.0106,-5.0136,-5.0674,-5.072,-4.9509,-5.0361,-5.075,-4.9509,-5.0391,-5.1199,-5.1199,-5.1199,-5.069,-4.9419,-4.9853,-4.9089,-4.6488,-4.8177,-4.8386,0.0,0.0,-4.7967,-4.7309,-4.7309,-4.698,-4.6279,0.0,0.0,-4.2351,0.0,-4.2321,-4.241,-4.4347,-4.5244,-4.5244,-4.5274,-4.5274,-4.5191,-4.4235,-4.3849,-4.3603,-4.1736,-4.1028,-4.0889,-3.9955,-3.9599,-3.9599,-3.9599,-3.9599,-3.9542,-3.894,-3.9382,-3.9952,-3.9373,-3.921,-3.921,-3.921,-3.8549,-3.79,-3.79,-3.79,-3.79,-3.79,-3.79,-3.79,-3.79,-3.8266,-3.8512,-3.8258,-3.8213,-3.7632,-3.5917,0.0,0.0,0.0,0.0,0.0,0.0,-3.1166,-3.0279,-3.1985,0.0,0.0,0.0,0.0,0.0,0.0,0.0,0.0,-3.043,-2.9381,0.0,-3.3444,-3.4566,-3.6538,-3.9292,-3.9042,-3.9042,-3.9292,-3.9292,-3.9292,-3.9292,-3.9292,-3.9292,-3.9247,-3.8997,-3.8908,-3.8863,-3.8368,-3.8213,-3.8167,-3.7965,-3.79,-3.79,-4.8117,-4.9553,-5.0631,-4.9733,-5.0481,-5.1079,-5.0661,-5.096,-5.1079,-5.0661,-5.096,-5.1229,-5.1229,-5.1229,-5.105,0.0,-4.9972,-4.9613,0.0,-4.8985,-4.8716,-4.894,-4.7668,-4.686,-4.6651,-4.6172,-4.5843,-4.5633,0.0,0.0,0.0,-4.303,-4.3509,-4.4377,-4.5005,-4.5304,-4.5334,-4.5813,-4.5582,-4.4981,-4.5083,-4.4768,-4.3998,-4.2744,-4.2222,-4.2079,-4.1093,-4.0775,-4.0775,-4.0775,-4.0775,-4.0671,-4.0069,-3.979,-3.9653,-3.9045,-3.8859,-3.878,-3.841,-3.8103,-3.79,-3.79,-3.79,-3.79,-3.79,-3.79,-3.79,-3.79,-3.8037,-3.8148,-3.8213,-3.8213,-3.7722,-3.63,-3.6934,0.0,0.0,0.0,0.0,0.0,-3.3133,-3.2696,0.0,-3.2376,0.0,0.0,0.0,0.0,0.0,0.0,0.0,0.0,-3.3659,0.0,-3.6654,-3.6257,-3.6883,-3.8575,-3.8666,-3.88,-3.9042,-3.9042,-3.9158,-3.9292,-3.9292,-3.9292,-3.9292,-3.9203,-3.9042,-3.8908,-3.8729,-3.8459,-3.8213,-3.8122,-3.8011,-3.79,-4.8925,-5.0092,-5.096,-5.0152,-5.069,-5.105,-5.0571,-5.09,-5.105,-5.0541,-5.09,-5.1229,-5.1229,-5.1229,0.0,-5.1229,-5.0481,-5.0331,-5.1169,-5.0062,-4.9643,-5.0166,-4.8641,-4.7535,-4.707,-4.6651,0.0,-4.6052,-4.5633,-4.5214,-4.4784,-4.4784,-4.5274,-4.6052,-4.6052,-4.5811,-4.5513,-4.5927,-4.5537,-4.4645,-4.4652,-4.4284,-4.3654,-4.2625,-4.2235,-4.2137,-4.1547,-4.1324,-4.1324,-4.1324,-4.1324,-4.1246,-4.088,-4.0514,-4.0095,-3.9285,-3.8893,-3.8632,-3.8292,-3.8057,-3.79,-3.79,-3.79,-3.79,-3.79,-3.79,-3.79,-3.79,-3.7992,-3.8011,-3.8103,-3.8167,-3.7915,-3.7006,-3.775,-3.8068,-3.7067,0.0,0.0,0.0,0.0,0.0,0.0,-3.4137,-3.3199,0.0,0.0,0.0,0.0,0.0,0.0,-3.4304,-3.4874,0.0,-3.7553,-3.6753,-3.7008,-3.8349,-3.8512,-3.8711,-3.8908,-3.8908,-3.9042,-3.9292,-3.9292,-3.9292,-3.9292,-3.9292,-3.9203,-3.9042,-3.8953,-3.8729,-3.8459,-3.8395,-3.8285,-3.8175,-5.096,-5.1079,0.0,0.0,-5.1169,0.0,-4.9629,-5.0451,-5.078,-4.9599,-5.0451,-5.1229,-5.1229,-5.1229,-5.1229,-5.1229,0.0,0.0,0.0,-5.1139,-5.084,-5.0285,-5.0136,-4.9478,-4.8327,-4.8207,-4.7878,-4.7309,-4.7309,-4.7309,-4.7309,-4.7309,-4.7309,-4.7309,-4.7309,-4.677,-4.5913,-4.5824,-4.5235,-4.4219,-4.3225,-4.2744,-4.2598,-4.1647,-4.1324,-4.1324,-4.1324,-4.1324,-4.1324,-4.1324,-4.1324,-4.1324,-4.1324,-4.1324,-4.1089,-3.9991,-3.9259,-3.8815,-3.8789,-3.837,-3.7952,-3.7952,-3.7926,-3.79,-3.79,-3.7946,-3.7946,-3.79,-3.8057,-3.8122,-3.7946,-3.8057,-3.8122,-3.7992,-3.8103,-3.8251,-3.8397,0.0,0.0,0.0,0.0,0.0,0.0,-3.4894,-3.4816,0.0,0.0,0.0,0.0,0.0,-3.1713,-3.3822,-3.3901,-3.4785,-3.6577,-3.6385,-3.6998,-3.8557,-3.8557,-3.8666,-3.8863,-3.8863,-3.8997,-3.9247,-3.9292,-3.9292,-3.9292,-3.9292,-3.9292,-3.9292,-3.8997,-3.8908,-3.8863,-3.8666,-3.8602,-3.8557,0.0,0.0,-5.09,-4.9912,-5.0541,-5.1109,-5.081,-5.102,-5.1109,-5.081,-5.102,-5.1229,-5.1229,-5.1229,-5.1229,-5.1229,-5.0301,-5.0152,-5.1139,-5.0272,-5.0092,-5.096,-4.9553,-4.8596,-4.8297,-4.7309,-4.695,-4.7309,-4.7309,-4.7309,-4.7309,-4.7309,-4.7309,-4.7309,-4.7309,-4.7149,-4.6887,-4.6121,-4.5235,-4.4219,-4.3225,-4.2333,-4.1647,-4.1398,-4.1324,-4.1324,-4.1324,-4.1324,-4.1324,-4.1324,-4.1324,-4.1324,-4.1324,-4.1324,-4.1167,-4.0435,-4.0122,-3.9913,-3.952,-3.8972,-3.8527,-3.8527,-3.8326,-3.8122,-3.8122,-3.8285,-3.8376,-3.8167,-3.8167,-3.8213,-3.8122,-3.8167,-3.8258,-3.8421,-3.8304,-3.7783,-3.6678,-3.6077,0.0,0.0,-3.4484,-3.5035,-3.5505,-3.6446,-3.6593,0.0,0.0,0.0,0.0,-3.457,-3.4989,-3.6828,-3.6881,-3.7108,-3.7572,-3.7527,-3.7658,-3.8083,-3.8083,-3.8194,-3.8368,-3.8575,-3.88,-3.8997,-3.9203,-3.9292,-3.9292,-3.9292,-3.9292,-3.9292,-3.9247,-3.9087,-3.8908,-3.8863,-3.8711,-3.8602,-5.0212,-5.1139,-5.1887,-5.1169,-5.1648,-5.2127,-5.2127,-5.1858,-5.1678,-5.1678,-5.1409,-5.1229,-5.1229,-5.1229,-5.1229,-5.1229,-5.0571,-5.0451,-5.1169,-5.0541,-5.0481,-5.1199,-5.0212,-4.9494,-4.9194,-4.8432,-4.7997,-4.7758,-4.7758,-4.7608,-4.7309,-4.7309,-4.7309,-4.7309,-4.7309,-4.7019,-4.6594,-4.6032,-4.4932,-4.3559,-4.3033,-4.2186,-4.1324,-4.1324,-4.1324,-4.1324,-4.1324,-4.1324,-4.1324,-4.1324,-4.1374,-4.1448,-4.1374,-4.1374,-4.1395,-4.0932,-4.0644,-4.0357,-4.0043,-3.9642,-3.9239,-3.895,-3.8635,-3.8349,-3.8213,-3.8395,-3.8557,-3.8395,-3.8395,-3.8349,-3.8213,-3.8304,-3.8395,-3.8395,-3.7821,-3.7057,-3.6182,-3.5287,0.0,-3.4486,-3.5145,-3.5848,-3.6604,-3.7415,-3.7508,-3.6567,-3.5992,0.0,-3.6462,-3.5966,-3.6358,-3.7848,-3.79,-3.79,-3.79,-3.79,-3.79,-3.79,-3.79,-3.788,-3.7844,-3.7978,-3.8087,-3.8128,-3.826,-3.8418,-3.8505,-3.8505,-3.8505,-3.8505,-3.8803,-3.8797,-3.8691,-3.9006,-3.9024,-3.8917,-5.3204,-5.3174,-5.3174,-5.3174,-5.3174,-5.3174,-5.3174,-5.2695,-5.2336,-5.2336,-5.1768,-5.1379,-5.1379,-5.1289,-5.1229,-5.1229,-5.1229,-5.1229,-5.1229,-5.1229,-5.1229,-5.1229,-5.1229,-5.0913,-5.0345,-5.0255,-4.9643,-4.8446,-4.8446,-4.8147,-4.7608,-4.7489,-4.7459,-4.7459,-4.7369,-4.6726,-4.5779,-4.5644,-4.4517,-4.2792,-4.2647,-4.2065,-4.1324,-4.1324,-4.1324,-4.1374,-4.1324,-4.1324,-4.1374,-4.1324,-4.1448,-4.1647,-4.1398,-4.1498,-4.1647,-4.1398,-4.1008,-4.0589,-4.054,-4.0342,-3.9928,-3.9289,-3.8944,-3.8709,-3.833,-3.8485,-3.8692,-3.8647,-3.8647,-3.8602,-3.8349,-3.8485,-3.845,-3.8005,-3.7074,-3.6285,-3.5936,0.0,-3.4634,-3.5862,-3.6008,-3.649,-3.788,-3.7946,-3.79,-3.79,-3.6959,-3.6828,-3.7848,-3.6933,-3.6854,-3.7874,-3.79,-3.79,-3.79,-3.79,-3.7848,-3.7769,-3.7769,-3.7546,-3.7219,-3.7263,-3.7192,-3.7102,-3.7144,-3.7273,-3.7443,-3.7485,-3.7485,-3.754,-3.8027,-3.8288,-3.8342,-3.8857,-3.9047,-3.9003,-5.3294,-5.3174,-5.3174,-5.3174,-5.3174,-5.3174,-5.3174,-5.3084,-5.3025,-5.3025,-5.2456,-5.2037,-5.2037,-5.1558,-5.1229,-5.1229,-5.1229,-5.1229,-5.1229,-5.1229,-5.1229,-5.1229,-5.1229,-5.1169,-5.1079,-5.0465,-4.9853,-4.9149,-4.9149,-4.912,-4.9,-4.8386,-4.8147,-4.8117,-4.7549,-4.6726,-4.5734,-4.4915,-4.389,-4.2744,-4.1868,-4.1448,-4.1324,-4.1324,-4.1448,-4.1597,-4.1374,-4.1448,-4.1597,-4.1374,-4.1448,-4.1696,-4.1647,-4.1647,-4.1696,-4.1647,-4.1594,-4.1465,-4.1217,-4.0897,-4.043,-3.9348,-3.9375,-3.9417,-3.8709,-3.8872,-3.9114,-3.8908,-3.8863,-3.8819,-3.8819,-3.8819,-3.8336,-3.6844,-3.6876,-3.6354,-3.4297,0.0,-3.6584,-3.6508,-3.7444,-3.8219,-3.8485,-3.8129,-3.79,-3.79,-3.7743,-3.7717,-3.79,-3.7717,-3.7717,-3.79,-3.79,-3.79,-3.79,-3.79,-3.7639,-3.7142,-3.7142,-3.6828,-3.6297,-3.6542,-3.662,-3.6628,-3.7016,-3.7187,-3.723,-3.7443,-3.7485,-3.7512,-3.7594,-3.7621,-3.7648,-3.7729,-3.7756,-3.7838,-5.4341,-5.4281,-5.4281,-5.4281,-5.4281,-5.4281,-5.4281,-5.3952,-5.3743,-5.3743,-5.3144,-5.2606,-5.2247,-5.1917,-5.1588,-5.1259,-5.1229,-5.1229,-5.1229,-5.1229,-5.1229,-5.1229,-5.1229,-5.1229,-5.1229,-5.0883,-5.0451,-4.9793,-4.9793,-4.9613,-4.9299,-4.9,-4.885,-4.885,-4.8506,-4.7762,-4.672,-4.5987,-4.4724,-4.3231,-4.2418,-4.1769,-4.1324,-4.1324,-4.1448,-4.1696,-4.1547,-4.1597,-4.1696,-4.1547,-4.1597,-4.1696,-4.1696,-4.1796,-4.1944,-4.1944,-4.1696,-4.1547,-4.1845,-4.147,-4.0935,-4.052,-4.0502,-4.0391,-3.9819,-3.9752,-3.9735,-3.9618,-3.9213,-3.8908,-3.8908,-3.8908,-3.8639,-3.7833,-3.7219,0.0,0.0,-3.6072,-3.6665,-3.6452,-3.7712,-3.8602,-3.8602,-3.8285,-3.8057,-3.8057,-3.7992,-3.7946,-3.8057,-3.7992,-3.7946,-3.8057,-3.7992,-3.7743,-3.7429,-3.7429,-3.7116,-3.6515,-3.6515,-3.6227,-3.5678,-3.5808,-3.5779,-3.559,-3.5827,-3.5995,-3.6079,-3.6178,-3.6261,-3.6371,-3.6737,-3.6914,-3.7025,-3.7377,-3.7702,-3.8,-5.5179,-5.5179,-5.5179,-5.5179,-5.5179,-5.5179,-5.5179,-5.476,-5.4431,-5.4431,-5.3832,-5.3234,-5.2725,-5.2396,-5.2007,-5.1498,-5.1319,-5.1229,-5.1229,-5.1229,-5.1229,-5.1229,-5.1229,-5.1229,-5.1229,-5.1229,-5.0913,-5.0435,-5.0435,-5.0212,-4.9748,-4.9553,-4.9494,-4.9494,-4.9389,-4.8512,-4.7213,-4.68,-4.5464,-4.3506,-4.3022,-4.2366,-4.1716,-4.1767,-4.1889,-4.2007,-4.2007,-4.1978,-4.1845,-4.1746,-4.1746,-4.1796,-4.1796,-4.1944,-4.2115,-4.219,-4.1845,-4.1647,-4.2315,-4.1967,-4.1421,-4.1576,-4.1464,-4.1179,-4.0783,-4.0545,-4.0404,-4.0404,-3.978,-3.9213,-3.9213,-3.9105,-3.8863,-3.8431,0.0,0.0,0.0,-3.6574,-3.6665,-3.6976,-3.7997,-3.8692,-3.8692,-3.844,-3.8304,-3.8304,-3.8148,-3.805,-3.8028,-3.7873,-3.7749,-3.7701,-3.7703,-3.7403,-3.6802,-3.6802,-3.6488,-3.5913,-3.5913,-3.5626,-3.5077,-3.5077,-3.4968,-3.4714,-3.4756,-3.488,-3.5044,-3.5086,-3.5208,-3.5358,-3.5855,-3.6141,-3.6387,-3.701,-3.7567,-3.8043,-5.5179,-5.5179,-5.5179,-5.5179,-5.5179,-5.5179,-5.5179,-5.5149,-5.5119,-5.5119,-5.4551,-5.4132,-5.4072,-5.2935,-5.2187,-5.2127,-5.1558,-5.1229,-5.1229,-5.1229,-5.1229,-5.1229,-5.1229,-5.1229,-5.1229,-5.1229,-5.1199,-5.1139,-5.1139,-5.1109,-5.105,-5.0405,-5.0106,-5.0106,-4.9523,-4.8143,-4.6187,-4.618,-4.4952,-4.3048,-4.2996,-4.2944,-4.2892,-4.3229,-4.3143,-4.2868,-4.2868,-4.2721,-4.2364,-4.1845,-4.1895,-4.2065,-4.2065,-4.2065,-4.2141,-4.2413,-4.2289,-4.2092,-4.2413,-4.2262,-4.1977,-4.1683,-4.1761,-4.1741,-4.0891,-4.0869,-4.1055,-4.1055,-4.0567,-4.0106,-4.0106,-3.9671,-3.8705,-3.7025,0.0,0.0,-3.6687,-3.7052,-3.7838,-3.8922,-3.8988,-3.8863,-3.8863,-3.8666,-3.8557,-3.8557,-3.8557,-3.8227,-3.7474,-3.7448,-3.7051,-3.6297,-3.6776,-3.6776,-3.6175,-3.6175,-3.5887,-3.5365,-3.5365,-3.5051,-3.4476,-3.4476,-3.445,-3.4439,-3.4714,-3.4797,-3.4839,-3.5003,-3.5127,-3.5127,-3.518,-3.5303,-3.5588,-3.618,-3.652,-3.6904,-5.5179,-5.5179,-5.5179,-5.5179,-5.5179,-5.5179,-5.5179,-5.5179,-5.5179,-5.5179,-5.497,-5.467,-5.4251,-5.3743,-5.3114,-5.2276,-5.1977,-5.1648,-5.1259,-5.1229,-5.1229,-5.1229,-5.1229,-5.1229,-5.1229,-5.1229,-5.1229,-5.1229,-5.1229,-5.1229,-5.1199,-5.096,-5.0794,-5.084,-5.0755,-4.9504,-4.7511,-4.7311,-4.5907,-4.3782,-4.3441,-4.3179,-4.3023,-4.3361,-4.3512,-4.3504,-4.3734,-4.3725,-4.3587,-4.3386,-4.3045,-4.2701,-4.2824,-4.2632,-4.2387,-4.2706,-4.2533,-4.2387,-4.2706,-4.2533,-4.2333,-4.2409,-4.25,-4.2493,-4.2154,-4.1829,-4.1679,-4.1679,-4.1191,-4.0757,-4.0757,-4.0268,-3.9617,-3.8939,0.0,-3.8559,-3.8315,-3.8477,-3.8803,-3.9264,-3.9203,-3.9158,-3.9158,-3.8935,-3.88,-3.88,-3.8692,-3.8541,-3.8345,-3.8211,-3.7677,-3.6671,-3.6881,-3.6541,-3.56,-3.56,-3.5312,-3.4737,-3.4737,-3.4633,-3.4397,-3.4789,-3.4946,-3.4972,-3.5398,-3.5598,-3.5598,-3.5683,-3.5811,-3.5939,-3.5939,-3.5854,-3.5823,-3.658,-3.688,-3.7099,-5.5179,-5.5179,-5.5179,-5.5179,-5.5179,-5.5179,-5.5179,-5.5179,-5.5179,-5.5179,-5.5179,-5.5029,-5.4551,-5.4341,-5.3832,-5.2905,-5.2456,-5.2007,-5.1558,-5.1319,-5.1229,-5.1229,-5.1229,-5.1229,-5.1229,-5.1229,-5.1229,-5.1229,-5.1229,-5.1229,-5.1229,-5.1229,-5.1229,-5.1182,-5.1058,-4.9999,-4.8368,-4.7815,-4.6389,-4.452,-4.4203,-4.3835,-4.3572,-4.3992,-4.4121,-4.4168,-4.4528,-4.4573,-4.4411,-4.431,-4.3889,-4.3466,-4.3617,-4.3363,-4.29,-4.2906,-4.2803,-4.2658,-4.2852,-4.2803,-4.2658,-4.2852,-4.29,-4.29,-4.29,-4.2575,-4.2276,-4.2276,-4.1815,-4.1408,-4.1408,-4.0892,-4.0485,-4.0485,-4.0133,-3.9807,-3.9617,-3.959,-3.9509,-3.9319,-3.9292,-3.9292,-3.9292,-3.9158,-3.8997,-3.8997,-3.889,-3.8765,-3.8639,-3.8283,-3.7679,-3.6883,-3.6901,-3.649,-3.5547,-3.5547,-3.5338,-3.492,-3.492,-3.492,-3.4946,-3.5365,-3.5547,-3.5574,-3.594,-3.6096,-3.6096,-3.6096,-3.621,-3.6384,-3.6384,-3.6277,-3.6183,-3.694,-3.731,-3.7477,-5.5179,-5.5179,-5.5179,-5.5179,-5.5179,-5.5179,-5.5179,-5.5179,-5.5179,-5.5179,-5.5179,-5.5179,-5.5179,-5.461,-5.4221,-5.4221,-5.2995,-5.2217,-5.2187,-5.1588,-5.1229,-5.1229,-5.1229,-5.1229,-5.1229,-5.1229,-5.1229,-5.1229,-5.1229,-5.1229,-5.1229,-5.1182,-5.1182,-5.1105,-5.0076,-4.917,-4.8346,-4.7229,-4.6191,-4.518,-4.518,-4.5018,-4.4776,-4.5368,-4.5236,-4.4782,-4.538,-4.5207,-4.4668,-4.4438,-4.431,-4.431,-4.431,-4.4057,-4.371,-4.3063,-4.29,-4.29,-4.29,-4.29,-4.29,-4.29,-4.29,-4.29,-4.29,-4.29,-4.29,-4.29,-4.2412,-4.2005,-4.2005,-4.1517,-4.1137,-4.1137,-4.111,-4.0892,-4.0268,-4.0187,-3.997,-3.94,-3.9319,-3.9319,-3.9319,-3.9319,-3.9319,-3.9319,-3.9292,-3.8959,-3.8145,-3.7364,-3.6784,-3.6541,-3.6784,-3.6654,-3.6123,-3.6096,-3.6096,-3.6096,-3.6096,-3.6096,-3.6096,-3.6096,-3.6123,-3.6123,-3.6123,-3.6123,-3.6123,-3.6123,-3.6123,-3.6123,-3.6123,-3.6254,-3.6577,-3.7184,-3.7528,-3.7803,-5.5179,-5.5179,-5.5179,-5.5179,-5.5179,-5.5179,-5.5179,-5.5179,-5.5179,-5.5179,-5.5179,-5.5179,-5.5179,-5.5029,-5.47,-5.4251,-5.3832,-5.3204,-5.2247,-5.1588,-5.1229,-5.1229,-5.1229,-5.1229,-5.1229,-5.1229,-5.1229,-5.1229,-5.1229,-5.1229,-5.1182,-5.0412,-5.0076,-5.0028,-4.9141,-4.8296,-4.7536,-4.741,-4.6766,-4.5742,-4.5742,-4.5609,-4.5368,-4.5742,-4.5741,-4.5659,-4.6106,-4.6102,-4.594,-4.5888,-4.5565,-4.5132,-4.4726,-4.4505,-4.4312,-4.3687,-4.3497,-4.3416,-4.3009,-4.29,-4.29,-4.29,-4.29,-4.29,-4.29,-4.29,-4.29,-4.29,-4.2738,-4.2629,-4.2629,-4.2141,-4.1734,-4.1734,-4.1408,-4.1055,-4.0865,-4.0838,-4.0784,-4.0594,-4.0567,-4.0567,-4.0567,-4.0187,-3.9916,-3.9916,-3.9536,-3.9121,-3.8666,-3.846,-3.8176,-3.798,-3.8025,-3.8025,-3.7846,-3.6893,-3.6297,-3.6096,-3.6096,-3.6096,-3.6123,-3.6541,-3.6724,-3.675,-3.7194,-3.7351,-3.7351,-3.7351,-3.7351,-3.7351,-3.7351,-3.7161,-3.6936,-3.7693,-3.7756,-3.7608,-5.5179,-5.5179,-5.5179,-5.5179,-5.5179,-5.5179,-5.5179,-5.5179,-5.5179,-5.5179,-5.5179,-5.5179,-5.5179,-5.5179,-5.5029,-5.464,-5.4371,-5.3743,-5.2665,-5.1977,-5.1618,-5.1618,-5.1349,-5.1229,-5.1229,-5.1229,-5.1229,-5.1229,-5.1229,-5.1229,-5.1182,-5.0124,-4.9611,-4.9513,-4.8195,-4.7383,-4.705,-4.6739,-4.6348,-4.5848,-4.5848,-4.5768,-4.5662,-4.5901,-4.6007,-4.606,-4.635,-4.6482,-4.6482,-4.6482,-4.6238,-4.5831,-4.5234,-4.5071,-4.4936,-4.4312,-4.4149,-4.4067,-4.3715,-4.3416,-4.3253,-4.3253,-4.3063,-4.29,-4.29,-4.29,-4.29,-4.29,-4.29,-4.29,-4.29,-4.2602,-4.2358,-4.2358,-4.2059,-4.1734,-4.1489,-4.1462,-4.1381,-4.1137,-4.111,-4.111,-4.111,-4.0784,-4.0567,-4.0567,-4.0214,-3.9871,-3.9465,-3.9393,-3.9222,-3.8711,-3.88,-3.8782,-3.8602,-3.7838,-3.7334,-3.7069,-3.7069,-3.7069,-3.7095,-3.7348,-3.746,-3.7487,-3.7789,-3.79,-3.79,-3.79,-3.79,-3.79,-3.79,-3.7691,-3.7403,-3.7926,-3.7892,-3.7701,-5.5179,-5.5179,-5.5179,-5.5179,-5.5179,-5.5179,-5.5179,-5.5179,-5.5179,-5.5179,-5.5179,-5.5179,-5.5179,-5.5179,-5.5179,-5.5179,-5.4581,-5.3952,-5.3324,-5.2665,-5.2247,-5.2187,-5.1618,-5.1289,-5.1229,-5.1229,-5.1229,-5.1229,-5.1229,-5.1229,-5.1182,-5.0124,-4.9562,-4.9366,-4.728,-4.6478,-4.6583,-4.5582,-4.5341,-4.5609,-4.5609,-4.5609,-4.5662,-4.5901,-4.6007,-4.606,-4.635,-4.6482,-4.6482,-4.6482,-4.6482,-4.6374,-4.5831,-4.5668,-4.556,-4.4963,-4.4773,-4.4773,-4.4719,-4.4284,-4.385,-4.385,-4.3443,-4.3009,-4.2852,-4.29,-4.29,-4.2825,-4.29,-4.29,-4.29,-4.29,-4.29,-4.29,-4.2852,-4.2662,-4.212,-4.2039,-4.1775,-4.1233,-4.1226,-4.1272,-4.1272,-4.1218,-4.1191,-4.111,-4.111,-4.0865,-4.0296,-4.0268,-3.9934,-3.9141,-3.932,-3.9258,-3.8853,-3.8953,-3.8899,-3.8602,-3.8602,-3.8602,-3.8602,-3.8349,-3.8258,-3.8213,-3.8011,-3.7946,-3.7946,-3.79,-3.79,-3.79,-3.79,-3.79,-3.79,-3.79,-3.79,-3.7946,-5.5179,-5.5179,-5.5179,-5.5179,-5.5179,-5.5179,-5.5179,-5.5179,-5.5179,-5.5179,-5.5179,-5.5179,-5.5179,-5.5179,-5.5179,-5.5179,-5.4581,-5.4132,-5.3982,-5.3354,-5.2725,-5.2217,-5.2067,-5.1738,-5.1229,-5.1229,-5.1229,-5.1229,-5.1229,-5.1229,-5.1182,-5.0124,-4.917,-4.8296,-4.6971,-4.6085,-4.5529,-4.5287,-4.5341,-4.5609,-4.5609,-4.5609,-4.5662,-4.5901,-4.6007,-4.606,-4.635,-4.6482,-4.6482,-4.6482,-4.6482,-4.6455,-4.6319,-4.6265,-4.6157,-4.556,-4.5397,-4.5288,-4.4827,-4.461,-4.4501,-4.4501,-4.4393,-4.3968,-4.2601,-4.2582,-4.2776,-4.2387,-4.2582,-4.29,-4.29,-4.29,-4.29,-4.29,-4.2533,-4.2235,-4.2101,-4.2101,-4.2048,-4.1914,-4.2253,-4.2493,-4.2493,-4.2086,-4.1625,-4.1164,-4.111,-4.1055,-4.092,-4.092,-4.0819,-4.0638,-4.0684,-4.0684,-4.0545,-4.015,-3.9483,-3.8602,-3.8602,-3.8602,-3.8602,-3.8557,-3.8512,-3.8512,-3.8258,-3.8122,-3.8122,-3.7965,-3.79,-3.79,-3.79,-3.79,-3.79,-3.79,-3.79,-3.79,-5.5179,-5.5179,-5.5179,-5.5179,-5.5179,-5.5179,-5.5179,-5.5179,-5.5179,-5.5179,-5.5179,-5.5179,-5.5179,-5.5179,-5.5179,-5.5179,-5.488,-5.467,-5.467,-5.4042,-5.3503,-5.3174,-5.2845,-5.2366,-5.1708,-5.1678,-5.1528,-5.1229,-5.1229,-5.1229,-5.1182,-5.0124,-4.9317,-4.8696,-4.7126,-4.6191,-4.5742,-4.5207,-4.5126,-4.5395,-4.5395,-4.5555,-4.5795,-4.5954,-4.6139,-4.6245,-4.643,-4.6482,-4.6482,-4.6482,-4.6482,-4.6482,-4.6482,-4.6482,-4.6428,-4.6102,-4.6021,-4.594,-4.5641,-4.5343,-4.5126,-4.5126,-4.4908,-4.4424,-4.3152,-4.3111,-4.3079,-4.2293,-4.2338,-4.2533,-4.2533,-4.2533,-4.2582,-4.2852,-4.2679,-4.2387,-4.2141,-4.2065,-4.2016,-4.1769,-4.219,-4.2631,-4.29,-4.2602,-4.2304,-4.1978,-4.1978,-4.1748,-4.1167,-4.114,-4.1032,-4.0737,-4.0737,-4.083,-4.111,-4.0784,-4.0348,-3.9822,-3.9231,-3.8917,-3.8917,-3.88,-3.8756,-3.8711,-3.8485,-3.8395,-3.8349,-3.8148,-3.8057,-3.8011,-3.7946,-3.7992,-3.8057,-3.8057,-3.8057,-3.8057,-5.5179,-5.5179,-5.5179,-5.5179,-5.5179,-5.5179,-5.5179,-5.5179,-5.5179,-5.5179,-5.5179,-5.5179,-5.5179,-5.5179,-5.5179,-5.5179,-5.5179,-5.5179,-5.5179,-5.467,-5.4341,-5.4221,-5.3653,-5.3054,-5.2396,-5.2366,-5.2007,-5.1229,-5.1229,-5.1229,-5.1182,-5.0268,-4.9757,-4.9513,-4.774,-4.6739,-4.6321,-4.5395,-4.5046,-4.518,-4.518,-4.5502,-4.5954,-4.5954,-4.6192,-4.6403,-4.6482,-4.6482,-4.6482,-4.6482,-4.6482,-4.6482,-4.6482,-4.6482,-4.6482,-4.6482,-4.6482,-4.6482,-4.6482,-4.6102,-4.575,-4.5646,-4.5318,-4.4854,-4.4103,-4.3886,-4.3521,-4.2492,-4.2156,-4.2126,-4.2126,-4.2047,-4.2141,-4.2679,-4.2679,-4.2484,-4.2141,-4.2065,-4.1918,-4.1372,-4.167,-4.2141,-4.2582,-4.2647,-4.2593,-4.2593,-4.2608,-4.2118,-4.1128,-4.1053,-4.0792,-4.0219,-4.0192,-4.0428,-4.097,-4.0862,-4.0881,-4.0947,-3.9834,-3.94,-3.9617,-3.9258,-3.9114,-3.9087,-3.8809,-3.8647,-3.8647,-3.8349,-3.8258,-3.8258,-3.8057,-3.8103,-3.8258,-3.8258,-3.8258,-3.8258,-5.5179,-5.5179,-5.5179,-5.5179,-5.5179,-5.5179,-5.5179,-5.5179,-5.5179,-5.5179,-5.5179,-5.5179,-5.5179,-5.5179,-5.5179,-5.5179,-5.5179,-5.5179,-5.5179,-5.5119,-5.479,-5.4251,-5.4132,-5.3743,-5.3054,-5.3054,-5.2456,-5.1229,-5.1229,-5.1229,-5.1229,-5.1058,-5.046,-4.9562,-4.9317,-4.8145,-4.6374,-4.6216,-4.5768,-4.518,-4.518,-4.5395,-4.5715,-4.5901,-4.6007,-4.6139,-4.6403,-4.6482,-4.6482,-4.6482,-4.6482,-4.6482,-4.6482,-4.6482,-4.6482,-4.6482,-4.6482,-4.6482,-4.6482,-4.6428,-4.6242,-4.5741,-4.5925,-4.5971,-4.4831,-4.4193,-4.3639,-4.2995,-4.2472,-4.2105,-4.2105,-4.1712,-4.1571,-4.2115,-4.1819,-4.167,-4.2016,-4.2065,-4.1918,-4.1372,-4.1372,-4.1421,-4.1521,-4.1466,-4.1416,-4.1416,-4.1369,-4.1093,-4.0561,-4.0514,-4.0272,-3.9716,-3.9716,-3.9955,-4.0475,-3.9994,-3.9911,-4.0296,-3.9617,-3.9861,-4.0865,-4.0277,-4.0006,-3.9979,-3.9195,-3.8863,-3.8819,-3.8621,-3.8557,-3.8557,-3.8512,-3.8512,-3.8557,-3.8557,-3.8557,-3.8557,-5.5179,-5.5179,-5.5179,-5.5179,-5.5179,-5.5179,-5.5179,-5.5179,-5.5179,-5.5179,-5.5179,-5.5179,-5.5179,-5.5179,-5.5179,-5.5179,-5.5179,-5.5179,-5.5179,-5.5179,-5.5059,-5.476,-5.476,-5.4431,-5.3773,-5.3743,-5.3294,-5.2306,-5.1947,-5.1588,-5.1229,-5.1229,-5.0632,-4.9562,-4.8944,-4.7841,-4.6374,-4.5715,-4.5368,-4.518,-4.518,-4.5448,-4.5848,-4.5954,-4.6139,-4.6297,-4.6482,-4.6482,-4.6482,-4.6482,-4.6482,-4.6482,-4.6482,-4.6482,-4.6482,-4.6482,-4.6482,-4.6482,-4.6482,-4.6482,-4.643,-4.6139,-4.6297,-4.6296,-4.5395,-4.4732,-4.4045,-4.3206,-4.2814,-4.2527,-4.219,-4.1931,-4.1801,-4.2047,-4.1894,-4.1638,-4.125,-4.1198,-4.1147,-4.0896,-4.0846,-4.0971,-4.1272,-4.1284,-4.1399,-4.1692,-4.1404,-4.1099,-4.0905,-4.0638,-4.0187,-3.9679,-3.9679,-3.9741,-3.9955,-3.9691,-3.9653,-3.9887,-3.9575,-3.9527,-3.9696,-3.975,-3.9593,-3.9362,-3.96,-3.9513,-3.9192,-3.9264,-3.905,-3.8756,-3.8647,-3.8512,-3.8395,-3.8557,-3.833,-3.8011]},{"header":{"parameterUnit":"m.s-1","parameterCategory":1,"la1":30.6,"la2":28.766,"lo1":-90.7593,"lo2":-88.6598,"dy":0.0162,"dx":0.0183,"nx":116,"ny":114,"refTime":"2024-04-27T12:00:00:Z","depth":0,"parameterNumber":3,"parameterNumberName":"V-component_of_WINDS"},"data":[0.0,0.0,0.0,0.0,0.0,0.0,0.0,0.0,0.0,0.0,0.0,0.0,0.0,0.0,0.0,0.0,0.0,0.0,0.0,0.0,0.0,0.0,0.0,0.0,0.0,0.0,0.0,0.0,0.0,0.0,0.0,0.0,0.0,0.0,0.0,0.0,0.0,0.0,0.0,0.0,0.0,0.0,0.0,0.0,0.0,0.0,0.0,0.0,0.0,0.0,0.0,0.0,0.0,0.0,0.0,0.0,0.0,0.0,0.0,0.0,0.0,0.0,0.0,0.0,0.0,0.0,0.0,0.0,0.0,0.0,0.0,0.0,0.0,0.0,0.0,0.0,0.0,0.0,0.0,0.0,0.0,0.0,0.0,0.0,0.0,0.0,0.0,0.0,0.0,0.0,0.0,0.0,0.0,0.0,0.0,0.0,0.0,0.0,0.0,0.0,0.0,0.0,0.0,0.0,0.0,0.0,0.0,0.0,0.0,0.0,0.0,0.0,0.0,0.0,0.0,0.0,0.0,0.0,0.0,0.0,0.0,0.0,0.0,0.0,0.0,0.0,0.0,0.0,0.0,0.0,0.0,0.0,0.0,0.0,0.0,0.0,0.0,0.0,0.0,0.0,0.0,0.0,0.0,0.0,0.0,0.0,0.0,0.0,0.0,0.0,0.0,0.0,0.0,0.0,0.0,0.0,0.0,0.0,0.0,0.0,0.0,0.0,0.0,0.0,0.0,0.0,0.0,0.0,0.0,0.0,0.0,0.0,0.0,0.0,0.0,0.0,0.0,0.0,0.0,0.0,0.0,0.0,0.0,0.0,0.0,0.0,0.0,0.0,0.0,0.0,0.0,0.0,0.0,0.0,0.0,0.0,0.0,0.0,0.0,0.0,0.0,0.0,0.0,0.0,0.0,0.0,0.0,0.0,0.0,0.0,0.0,0.0,0.0,0.0,0.0,0.0,0.0,0.0,0.0,0.0,0.0,0.0,0.0,0.0,0.0,0.0,0.0,0.0,0.0,0.0,0.0,0.0,0.0,0.0,0.0,0.0,0.0,0.0,0.0,0.0,0.0,0.0,0.0,0.0,0.0,0.0,0.0,0.0,0.0,0.0,0.0,0.0,0.0,0.0,0.0,0.0,0.0,0.0,0.0,0.0,0.0,0.0,0.0,0.0,0.0,0.0,0.0,0.0,0.0,0.0,0.0,0.0,0.0,0.0,0.0,0.0,0.0,0.0,0.0,0.0,0.0,0.0,0.0,0.0,0.0,0.0,0.0,0.0,0.0,0.0,0.0,0.0,0.0,0.0,0.0,0.0,0.0,0.0,0.0,0.0,0.0,0.0,0.0,0.0,0.0,0.0,0.0,0.0,0.0,0.0,0.0,0.0,0.0,0.0,0.0,0.0,0.0,0.0,0.0,0.0,0.0,0.0,0.0,0.0,0.0,0.0,0.0,0.0,0.0,0.0,0.0,0.0,0.0,0.0,0.0,0.0,0.0,0.0,0.0,0.0,0.0,0.0,0.0,0.0,0.0,0.0,0.0,0.0,0.0,0.0,0.0,0.0,0.0,0.0,0.0,0.0,0.0,0.0,0.0,0.0,0.0,0.0,0.0,0.0,0.0,0.0,0.0,0.0,0.0,0.0,0.0,0.0,0.0,0.0,0.0,0.0,0.0,0.0,0.0,0.0,0.0,0.0,0.0,0.0,0.0,0.0,0.0,0.0,0.0,0.0,0.0,0.0,0.0,0.0,0.0,0.0,0.0,0.0,0.0,0.0,0.0,0.0,0.0,0.0,0.0,0.0,0.0,0.0,0.0,0.0,0.0,0.0,0.0,0.0,0.0,0.0,0.0,0.0,0.0,0.0,0.0,0.0,0.0,0.0,0.0,0.0,0.0,0.0,0.0,0.0,0.0,0.0,0.0,0.0,0.0,0.0,0.0,0.0,0.0,0.0,0.0,0.0,0.0,0.0,0.0,0.0,0.0,0.0,0.0,0.0,0.0,0.0,0.0,0.0,0.0,0.0,0.0,0.0,0.0,0.0,0.0,0.0,0.0,0.0,0.0,0.0,0.0,0.0,0.0,0.0,0.0,0.0,0.0,0.0,0.0,0.0,0.0,0.0,0.0,0.0,0.0,0.0,0.0,0.0,0.0,0.0,0.0,0.0,0.0,0.0,0.0,0.0,0.0,0.0,0.0,0.0,0.0,0.0,0.0,0.0,0.0,0.0,0.0,0.0,0.0,0.0,0.0,0.0,0.0,0.0,0.0,0.0,0.0,0.0,0.0,0.0,0.0,0.0,0.0,0.0,0.0,0.0,0.0,0.0,0.0,0.0,0.0,0.0,0.0,0.0,0.0,0.0,0.0,0.0,0.0,0.0,0.0,0.0,0.0,0.0,0.0,0.0,0.0,0.0,0.0,0.0,0.0,0.0,0.0,0.0,0.0,0.0,0.0,0.0,0.0,0.0,0.0,0.0,0.0,0.0,0.0,0.0,0.0,0.0,0.0,0.0,0.0,0.0,0.0,0.0,0.0,0.0,0.0,0.0,0.0,0.0,0.0,0.0,0.0,0.0,0.0,0.0,0.0,0.0,0.0,0.0,0.0,0.0,0.0,0.0,0.0,0.0,0.0,0.0,0.0,0.0,0.0,0.0,0.0,0.0,0.0,0.0,0.0,0.0,0.0,0.0,0.0,0.0,0.0,0.0,0.0,0.0,0.0,0.0,0.0,0.0,0.0,0.0,0.0,0.0,0.0,0.0,0.0,0.0,0.0,0.0,0.0,0.0,0.0,0.0,0.0,0.0,0.0,0.0,0.0,0.0,0.0,0.0,0.0,0.0,0.0,0.0,0.0,0.0,0.0,0.0,0.0,0.0,0.0,0.0,0.0,0.0,0.0,0.0,0.0,0.0,0.0,0.0,0.0,0.0,0.0,0.0,0.0,0.0,0.0,0.0,0.0,0.0,0.0,0.0,0.0,0.0,0.0,0.0,0.0,0.0,0.0,0.0,0.0,0.0,0.0,0.0,0.0,0.0,0.0,0.0,0.0,0.0,0.0,0.0,0.0,0.0,0.0,0.0,0.0,0.0,0.0,0.0,0.0,0.0,0.0,0.0,0.0,0.0,0.0,0.0,0.0,0.0,0.0,0.0,0.0,0.0,0.0,0.0,0.0,0.0,0.0,0.0,0.0,0.0,0.0,0.0,0.0,0.0,0.0,0.0,0.0,0.0,0.0,0.0,0.0,0.0,0.0,0.0,0.0,0.0,0.0,0.0,0.0,0.0,0.0,0.0,0.0,0.0,0.0,0.0,0.0,0.0,0.0,0.0,0.0,0.0,0.0,0.0,0.0,0.0,0.0,0.0,0.0,0.0,0.0,0.0,0.0,0.0,0.0,0.0,0.0,0.0,0.0,0.0,0.0,0.0,0.0,0.0,0.0,0.0,0.0,0.0,0.0,0.0,0.0,0.0,0.0,0.0,0.0,0.0,0.0,0.0,0.0,0.0,0.0,0.0,0.0,0.0,0.0,0.0,0.0,0.0,0.0,0.0,0.0,0.0,0.0,0.0,0.0,0.0,0.0,0.0,0.0,0.0,0.0,0.0,0.0,0.0,0.0,0.0,0.0,0.0,0.0,0.0,0.0,0.0,0.0,0.0,0.0,0.0,0.0,0.0,0.0,0.0,0.0,0.0,0.0,0.0,0.0,0.0,0.0,0.0,0.0,0.0,0.0,0.0,0.0,0.0,0.0,0.0,0.0,0.0,0.0,0.0,0.0,0.0,0.0,0.0,0.0,0.0,0.0,0.0,0.0,0.0,0.0,0.0,0.0,0.0,0.0,0.0,0.0,0.0,0.0,0.0,0.0,0.0,0.0,0.0,0.0,0.0,0.0,0.0,0.0,0.0,0.0,0.0,0.0,0.0,0.0,0.0,0.0,0.0,0.0,0.0,0.0,0.0,0.0,0.0,0.0,0.0,0.0,0.0,0.0,0.0,0.0,0.0,0.0,0.0,0.0,0.0,0.0,0.0,0.0,0.0,0.0,0.0,0.0,0.0,0.0,0.0,0.0,0.0,0.0,0.0,0.0,0.0,0.0,0.0,0.0,0.0,0.0,0.0,0.0,0.0,0.0,0.0,0.0,0.0,0.0,0.0,0.0,0.0,0.0,0.0,0.0,0.0,0.0,0.0,0.0,0.0,0.0,0.0,0.0,0.0,0.0,0.0,0.0,0.0,0.0,0.0,0.0,0.0,0.0,0.0,0.0,0.0,0.0,0.0,0.0,0.0,0.0,0.0,0.0,0.0,0.0,0.0,0.0,0.0,0.0,0.0,0.0,0.0,0.0,0.0,0.0,0.0,0.0,0.0,0.0,0.0,0.0,0.0,0.0,0.0,0.0,0.0,0.0,0.0,0.0,0.0,0.0,0.0,0.0,0.0,0.0,0.0,0.0,0.0,0.0,0.0,0.0,0.0,0.0,0.0,0.0,0.0,0.0,0.0,0.0,0.0,0.0,0.0,0.0,0.0,0.0,0.0,0.0,0.0,0.0,0.0,0.0,0.0,0.0,0.0,0.0,0.0,0.0,0.0,0.0,0.0,0.0,0.0,0.0,0.0,0.0,0.0,0.0,0.0,0.0,0.0,0.0,0.0,0.0,0.0,0.0,0.0,0.0,0.0,0.0,0.0,0.0,0.0,0.0,0.0,0.0,0.0,0.0,0.0,0.0,0.0,0.0,0.0,0.0,0.0,0.0,0.0,0.0,0.0,0.0,0.0,0.0,0.0,0.0,0.0,0.0,0.0,0.0,0.0,0.0,0.0,0.0,0.0,0.0,0.0,0.0,0.0,0.0,0.0,0.0,0.0,0.0,0.0,0.0,0.0,0.0,0.0,0.0,0.0,0.0,0.0,0.0,0.0,0.0,0.0,0.0,0.0,0.0,0.0,0.0,0.0,0.0,0.0,0.0,0.0,0.0,0.0,0.0,0.0,0.0,0.0,0.0,0.0,0.0,0.0,0.0,0.0,0.0,0.0,0.0,0.0,0.0,0.0,0.0,0.0,0.0,0.0,0.0,0.0,0.0,0.0,0.0,0.0,0.0,0.0,0.0,0.0,0.0,0.0,0.0,0.0,0.0,0.0,0.0,0.0,0.0,0.0,0.0,0.0,0.0,0.0,0.0,0.0,0.0,0.0,0.0,0.0,0.0,0.0,0.0,0.0,0.0,0.0,0.0,0.0,0.0,0.0,0.0,0.0,0.0,0.0,0.0,0.0,0.0,0.0,0.0,0.0,0.0,0.0,0.0,0.0,0.0,0.0,0.0,0.0,0.0,0.0,0.0,0.0,0.0,0.0,0.0,0.0,0.0,0.0,0.0,0.0,0.0,0.0,0.0,0.0,0.0,0.0,0.0,0.0,0.0,0.0,0.0,0.0,0.0,0.0,0.0,0.0,0.0,0.0,0.0,0.0,0.0,0.0,0.0,0.0,0.0,0.0,0.0,0.0,0.0,0.0,0.0,0.0,0.0,0.0,0.0,0.0,0.0,0.0,0.0,0.0,0.0,0.0,0.0,0.0,0.0,0.0,0.0,0.0,0.0,0.0,0.0,0.0,0.0,0.0,0.0,0.0,0.0,0.0,0.0,0.0,0.0,0.0,0.0,0.0,0.0,0.0,0.0,0.0,0.0,0.0,0.0,0.0,0.0,0.0,0.0,0.0,0.0,0.0,0.0,0.0,0.0,0.0,0.0,0.0,0.0,0.0,0.0,0.0,0.0,0.0,0.0,0.0,0.0,0.0,0.0,0.0,0.0,0.0,0.0,0.0,0.0,0.0,0.0,0.0,0.0,0.0,0.0,0.0,0.0,0.0,0.0,0.0,0.0,0.0,0.0,0.0,0.0,0.0,0.0,0.0,0.0,0.0,0.0,0.0,0.0,0.0,0.0,0.0,0.0,0.0,0.0,0.0,0.0,0.0,0.0,0.0,0.0,0.0,0.0,0.0,0.0,0.0,0.0,0.0,0.0,0.0,0.0,0.0,0.0,0.0,0.0,0.0,0.0,0.0,0.0,0.0,0.0,0.0,0.0,0.0,0.0,0.0,0.0,0.0,0.0,0.0,0.0,0.0,1.6179,0.0,0.0,0.0,0.0,0.0,0.0,0.0,0.0,0.0,0.0,0.0,0.0,0.0,0.0,0.0,0.0,0.0,0.0,0.0,0.0,0.0,0.0,0.0,0.0,1.7199,1.7199,1.7199,1.7199,1.6963,1.6441,0.0,0.0,0.0,0.0,0.0,1.5055,1.4838,1.4655,1.4585,1.5186,1.5754,1.6291,1.6291,1.5694,1.4541,0.0,0.0,0.0,0.0,0.0,0.0,0.0,0.0,0.0,0.0,0.0,0.0,0.0,0.0,0.0,0.0,0.0,0.0,0.0,0.0,0.0,0.0,0.0,0.0,0.0,0.0,0.0,0.0,0.0,0.0,0.0,0.0,0.0,0.0,0.0,0.0,0.0,0.0,0.0,0.0,0.0,0.0,0.0,0.0,0.0,0.0,0.0,0.0,0.0,0.0,0.0,0.0,0.0,0.0,0.0,0.0,0.0,0.0,0.0,0.0,0.0,0.0,0.0,0.0,0.0,0.0,0.0,0.0,0.0,0.0,0.0,1.6401,0.0,0.0,0.0,0.0,0.0,0.0,0.0,0.0,0.0,0.0,0.0,0.0,0.0,0.0,0.0,0.0,0.0,0.0,0.0,0.0,0.0,1.7199,1.7199,1.7199,1.7199,1.7199,1.7141,1.6847,1.6304,1.6192,0.0,0.0,1.4751,1.4489,1.4507,1.4044,1.4175,1.4935,1.6264,1.7655,1.9078,1.9147,1.8166,1.6362,1.5781,0.0,0.0,0.0,0.0,0.0,0.0,0.0,0.0,0.0,0.0,0.0,0.0,0.0,0.0,0.0,0.0,0.0,0.0,0.0,0.0,0.0,0.0,0.0,0.0,0.0,0.0,0.0,0.0,0.0,0.0,0.0,0.0,0.0,0.0,0.0,0.0,0.0,0.0,0.0,0.0,0.0,0.0,0.0,0.0,0.0,0.0,0.0,0.0,0.0,0.0,0.0,0.0,0.0,0.0,0.0,0.0,0.0,0.0,0.0,0.0,0.0,0.0,0.0,1.7507,1.7751,1.8139,1.7824,1.7873,1.8166,1.7423,1.731,1.7533,0.0,0.0,0.0,0.0,0.0,0.0,0.0,0.0,0.0,0.0,0.0,0.0,0.0,0.0,0.0,0.0,0.0,0.0,0.0,0.0,1.7199,1.7199,1.7199,1.7199,1.7199,1.6809,1.6342,1.5725,1.5316,1.4831,1.4219,1.4056,1.403,1.4086,1.3951,1.4655,1.6237,1.8031,1.925,1.9872,2.0107,1.9967,1.9554,1.8745,1.756,1.6238,0.0,0.0,0.0,0.0,0.0,0.0,0.0,0.0,0.0,0.0,0.0,0.0,0.0,0.0,0.0,0.0,0.0,0.0,0.0,0.0,0.0,0.0,0.0,0.0,0.0,0.0,0.0,0.0,0.0,0.0,0.0,0.0,0.0,0.0,0.0,0.0,0.0,0.0,0.0,0.0,0.0,1.4315,1.5459,0.0,0.0,0.0,0.0,0.0,0.0,0.0,0.0,0.0,0.0,0.0,0.0,0.0,1.7497,1.7497,1.8685,1.9075,1.866,1.9652,2.0049,1.989,2.05,2.0567,2.0213,1.9799,0.0,1.8437,1.8265,0.0,0.0,0.0,0.0,0.0,0.0,0.0,0.0,0.0,0.0,0.0,0.0,0.0,0.0,0.0,0.0,0.0,0.0,0.0,0.0,0.0,1.7817,1.8188,1.8254,1.8621,1.8201,1.6665,1.6362,1.5573,1.4066,1.398,1.398,1.3986,1.4309,1.5925,1.8926,2.0349,2.1641,2.2797,2.259,2.2458,2.2378,2.2009,2.0384,1.8003,1.8197,0.0,0.0,0.0,0.0,0.0,0.0,0.0,0.0,0.0,0.0,0.0,0.0,0.0,0.0,0.0,0.0,0.0,0.0,0.0,0.0,0.0,0.0,0.0,0.0,0.0,0.0,0.0,0.0,0.0,0.0,0.0,0.0,0.0,0.0,0.0,0.0,0.0,0.0,0.0,1.4703,1.5587,1.6586,1.6507,1.599,0.0,0.0,0.0,0.0,0.0,0.0,0.0,0.0,0.0,1.7485,1.7889,1.8267,1.8577,1.9884,2.06,2.0668,2.1393,2.1649,2.1545,2.1914,2.1955,2.1697,2.1299,2.0813,2.0232,1.9383,1.9051,1.8952,0.0,0.0,0.0,0.0,1.5542,1.554,0.0,0.0,0.0,0.0,0.0,0.0,0.0,0.0,0.0,0.0,0.0,0.0,1.7733,1.8708,1.9392,1.9438,2.0046,1.9572,1.7502,1.7192,1.6189,1.4159,1.4062,1.4062,1.4095,1.5345,1.7797,2.1483,2.2561,2.3846,2.5232,2.4842,2.4633,2.4573,2.4573,2.2824,1.984,1.9793,1.8812,1.7209,0.0,0.0,0.0,0.0,0.0,0.0,0.0,0.0,0.0,0.0,0.0,0.0,0.0,0.0,0.0,0.0,0.0,0.0,0.0,0.0,0.0,0.0,0.0,0.0,0.0,0.0,0.0,0.0,0.0,0.0,0.0,0.0,0.0,0.0,0.0,0.0,0.0,1.6026,1.67,1.7856,1.7691,1.7124,0.0,0.0,0.0,0.0,0.0,0.0,1.8433,1.7976,1.8083,1.8919,1.9487,1.9964,2.0341,2.1339,2.2045,2.2474,2.2647,2.2832,2.2899,2.3015,2.3015,2.2876,2.2678,2.2414,2.2036,2.0446,1.9916,2.0095,1.9883,1.9196,1.824,1.7726,1.7408,1.7191,0.0,0.0,0.0,0.0,0.0,0.0,0.0,0.0,0.0,0.0,0.0,1.8774,1.8662,1.9817,2.0546,2.0344,1.9979,1.9107,1.7586,1.6903,1.5867,1.4365,1.4235,1.4219,1.4284,1.7363,2.0397,2.3272,2.4461,2.5357,2.5959,2.6091,2.6091,2.5906,2.5906,2.4274,2.1587,2.1587,2.0609,1.8932,1.7404,0.0,0.0,0.0,0.0,0.0,0.0,0.0,0.0,0.0,0.0,0.0,0.0,0.0,0.0,0.0,0.0,0.0,0.0,0.0,0.0,0.0,0.0,0.0,0.0,0.0,0.0,0.0,0.0,0.0,0.0,0.0,0.0,0.0,0.0,0.0,0.0,0.0,0.0,1.9332,2.0264,0.0,0.0,0.0,0.0,1.7677,1.7653,1.8531,2.0467,2.0507,2.148,2.3604,2.3668,2.3717,2.3741,2.3451,2.3432,2.3703,2.3337,2.3394,2.3751,2.4198,2.415,2.3751,2.4174,2.4112,2.3535,2.1602,2.1307,2.1964,2.0957,2.1126,2.1699,1.9652,1.9507,2.0234,0.0,0.0,0.0,0.0,0.0,1.8403,1.8088,1.7787,1.737,1.6823,1.8,1.8744,1.8356,2.0388,2.1747,2.1641,2.2188,2.1851,2.0246,1.8579,1.7123,1.59,1.4813,1.5127,1.6959,1.9834,2.2194,2.3984,2.5052,2.5861,2.6443,2.6107,2.5949,2.5887,2.5887,2.5341,2.4432,2.4006,2.2614,2.0693,2.0085,1.8522,0.0,0.0,0.0,0.0,0.0,0.0,0.0,0.0,0.0,0.0,0.0,0.0,0.0,0.0,0.0,0.0,0.0,0.0,0.0,0.0,0.0,0.0,0.0,0.0,0.0,0.0,0.0,0.0,0.0,0.0,0.0,0.0,0.0,0.0,0.0,0.0,0.0,1.9793,1.988,0.0,1.991,2.0119,2.0207,2.0155,2.0811,2.166,2.2645,2.2234,2.2459,2.3447,2.3303,2.331,2.3662,2.3283,2.341,2.4038,2.3234,2.3091,2.3471,2.3379,2.3248,2.3091,2.2969,2.3129,2.3443,2.2326,2.2212,2.2686,2.2301,2.1964,2.1596,2.0827,2.0562,2.0586,0.0,0.0,0.0,1.9053,1.8712,1.8324,1.8008,1.7747,1.7529,1.7323,1.8532,1.9428,1.9452,2.1694,2.318,2.3124,2.4037,2.3678,2.151,1.9906,1.8257,1.6514,1.5927,1.7069,2.009,2.1877,2.3666,2.5371,2.6065,2.6687,2.7269,2.7079,2.687,2.6687,2.6687,2.651,2.6212,2.5756,2.4528,2.2746,2.2141,2.0112,1.7415,0.0,0.0,0.0,0.0,0.0,0.0,0.0,0.0,0.0,0.0,0.0,0.0,0.0,0.0,0.0,0.0,0.0,0.0,0.0,0.0,0.0,0.0,0.0,0.0,0.0,0.0,0.0,0.0,0.0,0.0,0.0,0.0,0.0,0.0,0.0,1.9327,2.0538,2.069,2.0875,2.1355,2.1607,2.1849,2.2063,2.2778,2.3401,2.3891,2.3444,2.341,2.3991,2.3814,2.3833,2.4213,2.3813,2.3994,2.4645,2.386,2.3709,2.4086,2.3785,2.357,2.3372,2.3446,2.3704,2.4026,2.3735,2.3696,2.3761,2.3568,2.3183,2.2702,2.251,2.2125,2.1668,0.0,1.9372,1.9391,1.9288,1.875,1.8324,1.8257,1.7686,1.7633,1.8662,1.9744,2.0811,2.1921,2.3632,2.4693,2.4693,2.5268,2.4298,2.119,2.0674,1.9127,1.6104,1.7509,1.9972,2.3351,2.3482,2.4842,2.749,2.7542,2.7863,2.8446,2.9048,2.8996,2.8446,2.8446,2.7818,2.6745,2.6745,2.6154,2.5097,2.3439,2.1372,1.9122,0.0,0.0,0.0,0.0,0.0,0.0,0.0,0.0,0.0,0.0,0.0,0.0,0.0,0.0,0.0,0.0,0.0,0.0,0.0,0.0,0.0,0.0,0.0,0.0,0.0,0.0,0.0,0.0,0.0,0.0,0.0,0.0,0.0,1.6903,1.951,2.1488,2.1631,2.2942,2.3884,2.4041,2.3932,2.3699,2.333,2.3297,2.3571,2.4154,2.4141,2.4576,2.5524,2.5547,2.5547,2.5547,2.5182,2.5205,2.5592,2.5166,2.5166,2.5554,2.5554,2.5217,2.474,2.5784,2.5867,2.5325,2.5865,2.5793,2.5264,2.4712,2.4819,2.5204,2.4675,2.4194,2.3673,1.9306,1.9306,1.9195,1.8874,1.9045,1.8777,1.7413,1.7734,1.7757,1.6652,1.8921,2.0548,2.0369,2.31,2.4871,2.4723,2.5361,2.4883,2.2852,2.1039,1.9327,1.7701,1.9326,2.1453,2.3984,2.5572,2.6739,2.749,2.8386,2.8882,2.9074,2.9231,2.9231,2.9039,2.9039,2.8656,2.7949,2.7949,2.7328,2.618,2.4899,2.3245,2.1509,0.0,0.0,0.0,0.0,0.0,0.0,0.0,0.0,0.0,0.0,0.0,0.0,0.0,0.0,0.0,0.0,0.0,0.0,0.0,0.0,0.0,0.0,0.0,0.0,0.0,0.0,0.0,0.0,0.0,0.0,0.0,0.0,1.9933,1.9603,2.061,2.1867,2.3031,2.3866,2.4458,2.4912,2.5263,2.5577,2.5839,2.5863,2.597,2.6144,2.5408,2.498,2.5008,2.4958,2.4811,2.4613,2.4844,2.5205,2.5592,2.4775,2.4618,2.4932,2.4719,2.4486,2.436,2.4625,2.4892,2.5104,2.5455,2.5774,2.5928,2.4895,2.4386,2.4169,2.4059,2.4121,2.4169,1.9213,1.925,1.9195,1.8874,1.9064,1.8854,1.7589,1.7848,1.7913,1.708,1.9081,2.0626,2.0807,2.3258,2.4949,2.5122,2.5553,2.4913,2.2853,2.0771,1.9954,2.0693,2.1983,2.3616,2.5577,2.7112,2.7994,2.8255,2.9196,2.964,2.964,2.9876,2.9876,2.964,2.964,2.9301,2.8786,2.8525,2.8028,2.7321,2.617,2.455,2.2798,2.222,2.0982,1.9542,1.9303,1.9298,1.9316,1.8887,0.0,0.0,0.0,0.0,0.0,0.0,0.0,0.0,0.0,0.0,0.0,0.0,0.0,0.0,0.0,0.0,0.0,0.0,0.0,0.0,0.0,0.0,0.0,0.0,2.0188,2.1933,2.251,2.3039,2.3616,2.4338,2.5083,2.5625,2.5913,2.6262,2.6426,2.642,2.6406,2.6347,2.6186,2.5593,2.4987,2.4351,2.4892,2.4801,2.3981,2.4898,2.5476,2.5716,2.5176,2.5014,2.5194,2.5014,2.4796,0.0,2.4978,2.5311,2.5577,2.5961,2.6442,0.0,0.0,0.0,0.0,0.0,2.4602,2.4699,1.9157,1.9213,1.925,1.9139,1.8969,1.8693,1.823,1.7981,1.809,1.8775,1.9768,2.0939,2.227,2.38,2.5018,2.5741,2.5662,2.455,2.2035,2.026,2.0744,2.4073,2.4783,2.5882,2.7568,2.8255,2.883,2.9379,2.9954,3.0205,3.0205,3.0738,3.0712,3.0205,3.0205,2.9902,2.9388,2.8804,2.849,2.8315,2.7321,2.5625,2.3719,2.3114,2.1983,2.0658,2.0078,1.9651,1.9435,1.9535,0.0,0.0,0.0,0.0,0.0,0.0,0.0,0.0,0.0,0.0,0.0,0.0,0.0,0.0,0.0,0.0,0.0,0.0,0.0,0.0,0.0,0.0,0.0,0.0,2.141,2.3175,2.5131,2.5901,2.6093,2.5564,2.6369,2.6994,2.6994,2.7042,2.6762,2.607,2.6031,2.591,2.5662,0.0,0.0,0.0,0.0,2.5477,2.4139,2.5524,2.6228,2.6228,2.6228,2.6185,2.6143,2.6185,2.5845,2.5227,2.6155,2.6444,2.6325,2.6886,2.7372,2.7714,2.7114,2.6898,2.6753,2.5709,2.5396,2.5348,1.9354,1.9306,1.9288,1.925,1.9213,1.8908,1.8001,1.8056,1.8275,1.8548,1.9772,2.1093,2.227,2.3916,2.5166,2.5741,2.4958,2.3812,2.2376,2.0746,2.1325,2.4678,2.5476,2.6579,2.8177,2.9248,2.9813,2.9944,3.0529,3.0817,3.0817,3.0947,3.0921,3.0817,3.0817,3.0503,2.9918,2.9813,2.9248,2.8394,2.8185,2.7269,2.6018,2.5411,2.4966,2.4655,2.4079,2.384,2.3576,2.2299,2.1407,2.0913,2.1189,2.0137,0.0,0.0,0.0,0.0,0.0,0.0,0.0,0.0,0.0,0.0,0.0,0.0,0.0,0.0,0.0,0.0,0.0,0.0,0.0,2.2059,2.3523,2.4871,2.5829,2.6791,2.7186,2.6633,2.7138,2.7546,2.7546,2.7969,2.8131,2.7973,2.7973,2.8108,2.8508,2.7711,0.0,2.7172,2.7394,2.7233,2.6628,2.7706,2.8234,2.8234,0.0,0.0,2.7717,2.8062,2.7509,2.6297,2.6917,2.6713,2.6035,2.6839,2.7653,2.8258,2.7258,2.6898,2.6753,2.5709,2.5877,2.6417,1.9362,1.9372,1.9306,1.9213,1.9269,1.9107,1.8332,1.8245,1.8258,1.8111,1.9099,2.0255,2.1433,2.2061,2.2872,2.4053,2.3165,2.2745,2.3295,2.2562,2.3323,2.6138,2.6856,2.7721,2.8839,2.9657,3.0194,3.037,3.0805,3.0962,3.0849,3.0962,3.0973,3.0973,3.0973,3.0817,3.0529,3.0231,2.9761,2.9196,2.8621,2.808,2.7478,2.6582,2.6242,2.6138,2.5214,2.4723,2.4421,2.3315,2.2546,2.2084,2.2279,2.1631,2.0486,0.0,0.0,0.0,0.0,0.0,0.0,0.0,0.0,0.0,0.0,0.0,0.0,0.0,0.0,1.9638,1.9724,0.0,2.2123,2.3134,2.4355,2.5577,2.6729,2.733,2.7594,2.733,2.7762,2.821,2.8474,2.8739,2.8922,2.894,2.8964,2.8875,2.8715,2.8208,2.7492,2.6639,2.7243,2.7182,2.6251,2.7444,2.8073,2.8073,2.8073,2.8073,2.8116,2.8334,2.8155,2.7714,2.7949,2.777,2.7375,2.8027,2.8568,2.8869,2.8307,2.7969,2.7594,2.6815,2.6825,2.7186,1.9306,1.9325,1.9325,1.9157,1.9232,1.9195,1.875,1.8519,1.8329,1.8153,1.8653,1.9459,2.0568,2.0177,2.0255,2.1378,2.1167,2.1746,2.3642,2.4111,2.5284,2.7411,2.8177,2.8813,2.931,2.9954,3.0418,3.0773,3.0924,3.0924,3.0773,3.0924,3.0973,3.0973,3.0973,3.0973,3.0947,3.0503,3.0127,2.9839,2.8935,2.8412,2.8098,2.7183,2.6876,2.6687,2.5356,2.4695,2.4315,2.3679,2.318,2.2878,2.3,2.3,2.2511,2.0305,2.0217,0.0,0.0,0.0,0.0,0.0,0.0,0.0,0.0,0.0,1.9855,1.9755,2.0211,2.0754,2.1054,2.1981,2.3028,2.4218,2.512,2.6164,2.7498,2.7762,2.7882,2.8017,2.8402,2.8835,2.9268,2.9388,2.9504,2.9532,2.9513,2.9262,2.8688,2.8644,2.7971,2.6509,2.7541,2.7586,2.6445,2.7563,2.8121,2.7988,2.7988,2.8121,2.8364,2.8452,2.8627,2.8797,2.8812,2.881,2.8872,2.9258,2.9428,2.9532,2.948,2.9196,2.8739,2.8114,2.7873,2.7786,1.9176,1.9213,1.9288,1.9269,1.9195,1.9101,1.9045,1.8874,1.8982,1.9553,1.9586,1.9833,2.0593,2.0177,1.9287,1.7986,1.9945,2.1459,2.1878,2.3676,2.5543,2.7411,2.8595,2.9231,2.931,3.0346,3.0921,3.0999,3.0973,3.0973,3.0999,3.0973,3.0973,3.0973,3.0973,3.0973,3.0973,3.0921,3.032,2.9353,2.9222,2.8543,2.7568,2.7438,2.7411,2.7255,2.6106,2.5469,2.5006,2.3957,2.318,2.272,2.2751,2.2537,2.2049,2.0696,2.0375,1.996,1.771,1.6503,1.6079,1.7046,1.8242,1.9253,0.0,0.0,2.2521,2.176,2.2772,2.4004,2.4595,2.5063,2.5623,2.6404,2.6904,2.7281,2.7666,2.8114,2.8595,2.9076,2.9172,2.9244,2.9292,2.9725,3.0013,3.0044,3.0001,3.0217,3.0587,3.0568,3.0711,3.0954,3.1121,3.1121,3.0954,3.1121,3.0995,3.0504,3.0504,3.01,2.9374,2.9784,2.9556,2.8813,2.88,2.8981,2.9343,2.9385,2.9664,3.0044,3.0013,2.9965,2.9797,2.8787,2.8426,2.8426,1.9195,1.9139,1.9176,1.9176,1.9195,1.9176,1.9101,1.8874,1.8814,1.9212,1.9024,1.9156,1.997,1.9024,1.7938,1.6902,1.8468,2.0253,2.201,2.3864,2.5683,2.7411,2.8307,2.8786,2.8786,2.9598,2.997,2.9824,3.0246,3.0403,3.0292,3.0779,3.0973,3.0973,3.0973,3.079,3.0503,3.0503,3.0032,2.9284,2.8943,2.8464,2.7994,2.762,2.7215,2.6655,2.5138,2.4472,0.0,2.2606,2.1911,2.1771,2.228,2.1825,2.1045,2.0556,1.9899,1.9227,1.8605,1.8555,1.8834,1.9587,2.0687,2.1581,2.1635,2.262,2.3455,2.3349,2.4038,2.4891,2.5738,2.5725,2.5999,0.0,2.7205,2.7349,2.805,2.8643,2.9051,2.9268,2.9292,2.9292,2.9292,3.0062,3.0422,3.011,3.0706,3.0965,3.0917,3.0897,3.0903,3.0847,3.0847,3.0847,3.0847,3.0847,3.0713,3.0487,3.0487,3.0442,3.0306,3.0261,3.0146,3.0007,2.9732,2.9862,3.0258,3.0258,3.039,3.0585,3.0577,3.0585,3.0422,2.9364,2.8979,2.8931,1.9325,1.9157,1.9101,1.9101,1.9176,1.9195,1.9101,1.8931,1.8769,1.8731,1.8577,1.8583,1.8853,1.7775,1.6829,1.629,1.756,1.9433,2.1852,2.3869,2.5667,2.7236,2.7994,2.842,2.842,2.8996,2.9239,2.9087,2.9621,2.9803,2.9658,3.0246,3.0529,3.0529,3.0529,3.0294,2.9902,2.9902,2.9562,2.9022,2.8603,2.8237,2.7863,2.7445,2.6674,2.5584,2.4275,2.3541,2.2875,2.1051,2.0579,2.0783,2.0981,2.0734,2.0337,1.9999,1.9085,1.8366,1.9112,1.9676,2.0258,2.1354,2.2353,2.3195,2.3476,2.3921,2.4358,2.4742,2.5075,2.5544,2.6462,2.6325,2.6486,2.7699,2.757,2.7642,2.8595,2.9051,2.9244,2.91,2.9076,2.8907,2.845,2.9773,3.0615,3.0518,3.1284,3.154,3.1116,3.1116,3.0937,3.0623,3.0623,3.0623,3.0623,3.0487,3.0306,3.0216,3.0216,3.0306,3.0487,3.0442,3.0578,3.0892,3.0713,3.0802,3.1116,3.1116,3.1116,3.1137,3.1109,3.1139,3.1019,3.0062,2.9629,2.946,0.0,1.9288,1.9101,1.9101,1.9101,1.9101,1.9101,1.9195,1.912,1.8655,1.8789,1.8399,1.723,1.6691,1.6218,1.5665,1.7607,1.9441,2.0772,2.3478,2.5515,2.6667,2.7818,2.842,2.842,2.8996,2.931,2.9274,2.9301,2.9301,2.9301,2.9327,2.9362,2.9362,2.9362,2.9327,2.9301,2.9301,2.8996,2.8446,2.842,2.774,2.6745,2.6745,2.5667,2.4148,2.4096,2.308,2.1483,1.9686,1.9553,1.9894,1.8536,1.917,2.0165,1.8983,1.7942,1.7468,1.8838,1.8507,1.8394,2.0803,2.2157,2.3143,2.4152,2.5024,2.5685,2.59,2.613,2.6462,2.7237,2.7526,2.781,2.8402,2.8474,2.8643,2.9196,2.9292,2.91,2.8595,2.8522,2.7921,0.0,2.857,3.0518,3.1573,3.1693,3.1717,3.1673,3.1673,3.1673,3.1649,3.1649,3.1649,3.1649,3.1116,3.0623,3.0216,3.0216,2.9988,2.9577,3.0487,3.0892,3.0937,3.1427,3.1673,3.1673,3.1673,3.1673,3.1673,3.1693,3.1693,3.1621,3.1067,3.0494,3.0062,0.0,0.0,1.9453,1.9306,1.9288,1.9288,1.9288,1.9213,1.9139,1.9064,1.8978,0.0,0.0,0.0,0.0,0.0,1.7036,1.8083,2.0018,2.2113,2.3942,2.5515,2.7,2.7811,2.7811,2.802,2.8124,2.8124,2.849,2.8673,2.8734,2.9127,2.931,2.931,2.931,2.91,2.8673,2.8673,2.8158,2.7269,2.7269,2.6791,2.6033,2.5367,2.436,2.3202,0.0,2.0602,1.933,1.7756,1.7279,1.7411,1.7556,1.7433,1.7121,1.615,1.7107,1.8503,1.8899,2.0003,2.1389,2.2879,2.3996,2.4872,2.5194,2.5501,2.5846,2.6426,2.5736,2.5325,2.6178,2.5801,2.572,2.6729,2.6622,2.7055,2.9027,2.8402,2.8306,2.9893,2.9148,0.0,0.0,0.0,0.0,2.9581,3.0922,3.1717,3.1717,3.1717,3.1717,3.1717,3.1717,3.1717,3.1717,3.1516,3.1339,3.1205,3.1205,3.0937,3.0442,3.0758,3.0892,3.0892,3.1071,3.1362,3.1717,3.1717,3.1717,3.1717,3.1717,3.1717,3.1693,3.15,3.1332,3.1067,0.0,0.0,0.0,1.9527,1.9465,0.0,0.0,0.0,0.0,0.0,0.0,0.0,0.0,0.0,0.0,0.0,0.0,1.7718,1.9602,2.0803,2.2243,2.3997,2.5092,2.5772,2.595,2.6399,2.6608,2.6608,2.7602,2.7968,2.7818,2.8211,2.8289,2.8046,2.8046,2.7837,2.7471,2.7471,2.7053,2.6347,2.617,2.5589,2.4779,2.3924,2.2767,0.0,1.9858,1.8598,1.7437,1.6224,1.6065,1.6382,1.6188,1.584,1.5588,1.6193,1.7485,1.8963,1.9982,2.1583,2.3236,2.443,2.5371,2.5991,2.5991,2.6168,2.6493,2.6936,2.6294,2.5662,2.5725,2.5206,2.5064,2.5888,2.5937,2.6743,2.9244,2.8859,2.8835,3.0158,2.9412,2.9172,0.0,0.0,0.0,2.9076,3.0326,3.1139,3.1139,3.1332,3.1597,3.1961,3.2154,3.2199,3.1961,3.1827,3.1618,3.1383,3.1383,3.1339,3.1184,3.1184,3.0971,3.064,3.1018,3.1192,3.1163,3.1548,3.1717,3.1717,3.1717,3.1717,3.1717,3.1717,3.1717,3.1621,0.0,0.0,0.0,0.0,0.0,0.0,0.0,0.0,0.0,0.0,0.0,0.0,0.0,0.0,0.0,0.0,0.0,0.0,1.9439,1.9704,2.0569,2.2218,2.2401,2.2715,2.3234,2.436,2.494,2.494,2.6556,2.7079,2.6588,2.6588,2.6242,2.5715,2.5662,2.5662,2.5715,2.5662,2.5662,2.561,2.5092,2.4178,2.3026,2.248,2.0883,1.8845,1.827,1.7224,1.6031,1.5182,1.5882,1.6781,1.4741,1.4638,1.5866,1.8759,1.9011,1.8983,2.1904,2.3121,2.3912,2.5417,2.6152,2.6536,2.6536,2.7025,2.7447,2.7371,2.7485,2.7105,2.558,0.0,2.5479,2.5731,2.6295,2.7498,2.9701,3.0422,3.0374,0.0,0.0,0.0,0.0,0.0,0.0,3.0086,0.0,3.0206,3.0206,3.0711,3.148,3.2515,3.302,3.3044,3.2539,3.2059,3.1501,3.0984,3.0984,3.1252,3.1717,3.1717,3.1163,3.023,3.1284,3.1139,3.0254,3.1308,3.1717,3.1717,3.1717,3.1717,3.1717,3.1717,3.1717,3.1717,0.0,0.0,0.0,0.0,0.0,0.0,0.0,0.0,0.0,0.0,0.0,0.0,0.0,0.0,0.0,0.0,0.0,0.0,1.8268,1.9494,2.0516,2.1092,2.2349,2.3289,2.3835,2.4178,2.4334,2.4334,2.4749,2.4909,2.4753,2.4753,2.47,2.4488,2.4044,2.4096,2.4488,2.3956,2.3774,2.3835,2.3618,2.2864,2.1825,2.0958,1.9908,1.879,1.7945,1.7329,1.671,1.5348,1.5447,1.6229,1.6717,1.723,1.7755,1.846,0.0,2.1697,2.2512,2.4154,2.5876,2.6657,2.6932,2.7024,2.7024,2.7139,2.6915,2.5672,2.4458,2.3125,2.1582,2.0801,0.0,2.3382,2.4082,0.0,2.8459,2.8691,0.0,2.9773,0.0,3.0086,3.0657,3.0946,0.0,0.0,3.1432,3.1889,3.1889,3.2394,3.2803,3.3068,3.3212,3.3212,3.3092,3.2929,3.262,3.2094,3.2094,3.1923,3.1717,3.1717,3.1548,3.1332,3.1597,3.1548,3.1332,3.1597,3.1717,3.1717,3.1717,3.1717,3.1717,3.1717,3.1717,3.1717,0.0,0.0,0.0,0.0,0.0,0.0,0.0,0.0,0.0,0.0,0.0,0.0,0.0,0.0,0.0,0.0,0.0,0.0,0.0,1.8777,1.9436,1.9887,2.0597,2.1329,2.2191,2.2686,2.2947,2.2947,2.3733,2.3939,2.3733,2.3733,2.3576,2.3341,2.3001,2.3054,2.3315,2.2892,2.2631,0.0,0.0,2.1355,2.0257,1.9465,1.873,1.8061,1.756,1.7199,1.7003,1.7142,1.673,1.6548,1.8821,1.9343,1.9412,2.0788,0.0,2.3524,2.419,2.5555,2.6864,2.7121,2.719,2.6961,2.6067,2.5938,2.5446,2.3385,2.2348,2.1307,1.9539,1.9246,0.0,0.0,0.0,0.0,2.8098,2.8563,2.8954,0.0,2.9959,0.0,3.1756,3.1989,3.201,0.0,3.1841,3.1889,3.213,3.2659,3.314,3.3597,3.3837,3.3861,3.3621,3.3404,3.314,3.2851,3.2851,3.2683,3.2415,3.2415,3.2151,3.1741,0.0,3.2151,3.1741,3.1937,3.2034,3.2054,3.1813,3.1717,3.1717,3.1717,3.1717,3.1717,0.0,0.0,0.0,0.0,0.0,0.0,0.0,0.0,0.0,0.0,1.9306,1.925,0.0,0.0,0.0,0.0,0.0,0.0,0.0,0.0,1.812,1.8845,1.8453,1.8741,1.9891,2.0884,2.1407,2.1407,2.2923,2.3393,2.2871,2.2871,2.2609,2.2166,2.2086,2.2086,2.2139,2.206,2.1747,2.125,2.0753,1.9839,1.8741,0.0,1.7721,1.7199,1.7199,1.701,1.7139,1.933,1.871,1.7627,2.0818,2.1222,2.109,2.3961,2.4659,2.4774,2.6053,2.6795,2.719,2.719,2.719,2.6732,2.5004,2.4484,2.3665,2.126,2.0873,2.0461,1.8846,1.9315,2.057,2.2447,0.0,2.5973,2.7825,2.908,2.9719,2.9516,2.9725,3.0481,3.1936,3.2282,3.2659,3.3332,3.2082,3.1504,3.2006,3.2515,3.3212,3.4078,3.4534,3.4558,3.4102,3.3717,3.3452,3.338,3.338,3.3356,3.3284,3.3284,3.2779,3.1982,0.0,0.0,3.1958,3.2394,3.2563,3.2442,3.1961,3.1765,3.1717,3.1717,3.1717,3.1717,0.0,0.0,0.0,0.0,0.0,0.0,0.0,0.0,0.0,1.9616,1.9409,1.9288,0.0,0.0,0.0,0.0,0.0,0.0,0.0,0.0,0.0,1.8806,1.8774,1.9316,2.0517,2.0726,2.0831,2.0831,2.1119,2.1223,2.1119,2.1119,2.1015,2.0809,2.0416,2.0468,2.0809,2.0317,2.0106,2.0076,1.9874,1.917,1.8218,1.814,0.0,0.0,1.7199,1.7246,1.7569,1.9329,1.9702,1.9827,2.2305,2.3458,2.3933,2.4204,2.5164,2.6076,2.5899,2.6479,2.719,2.719,2.719,2.7098,2.6732,2.5073,0.0,0.0,1.9541,1.8236,1.8679,1.8955,2.0088,2.3102,0.0,0.0,0.0,0.0,2.9374,0.0,0.0,0.0,0.0,0.0,0.0,0.0,0.0,3.3478,3.3574,3.4078,3.4462,3.4631,3.4727,3.4775,3.4655,3.4607,3.4342,3.3862,3.3862,3.3693,3.3284,3.3284,3.3188,3.302,3.3212,0.0,3.302,3.3116,3.2899,3.2491,3.2394,3.2082,3.1717,3.1717,3.1717,3.1717,0.0,0.0,0.0,0.0,0.0,0.0,2.0106,2.0207,2.0207,1.984,1.9611,1.9446,1.9372,1.9288,1.9269,0.0,0.0,0.0,0.0,0.0,0.0,1.9193,1.9304,1.981,2.0699,2.0699,2.0699,2.0699,0.0,2.0699,2.0699,2.0624,2.0599,2.0599,2.0313,2.0339,2.0548,1.995,1.9558,1.9292,1.8959,1.8334,1.7617,1.7617,0.0,0.0,1.7287,1.7308,1.7507,1.8832,1.9585,2.0357,2.2671,2.4201,2.4951,2.4055,2.5256,2.6634,2.5578,2.6204,2.719,2.719,2.719,2.664,2.4545,0.0,0.0,0.0,1.7113,1.6353,1.6878,1.7221,0.0,2.2036,0.0,0.0,0.0,0.0,0.0,0.0,0.0,0.0,0.0,0.0,0.0,0.0,0.0,3.3885,3.4366,3.4655,3.4775,3.4775,3.4775,3.4775,3.4775,3.4775,3.4655,3.4414,3.4414,3.4318,3.4078,3.4078,3.4078,3.4078,3.4078,0.0,3.3308,3.3573,3.3212,3.2539,3.2803,3.2587,3.2106,3.2106,3.1958,3.1717,0.0,0.0,0.0,0.0,0.0,0.0,2.0645,2.0518,2.0381,2.0106,1.9966,1.9856,1.9764,1.9553,1.9409,0.0,0.0,0.0,0.0,0.0,0.0,0.0,0.0,0.0,2.0699,0.0,0.0,0.0,2.0699,0.0,0.0,0.0,0.0,0.0,2.0498,2.0472,2.039,1.9923,1.9376,0.0,0.0,1.77,0.0,0.0,0.0,0.0,0.0,1.7308,1.7382,1.8374,1.9148,2.0057,2.206,2.3712,2.4718,2.3709,2.5004,2.6542,2.5647,2.6273,2.719,2.719,2.7231,2.6306,2.2707,2.1495,0.0,1.6849,1.5637,1.5406,1.6196,1.6569,1.7894,0.0,2.2666,2.4255,0.0,0.0,0.0,0.0,0.0,0.0,0.0,0.0,0.0,0.0,0.0,0.0,3.4775,3.4775,3.4775,3.4775,3.4775,3.4775,3.4775,3.4775,3.4775,3.4775,3.4775,3.4775,3.4775,3.4775,3.4775,3.4775,3.4775,0.0,0.0,3.391,3.3478,3.2563,3.3212,3.3116,3.2659,3.2539,3.2226,3.1862,0.0,0.0,0.0,0.0,0.0,0.0,2.1355,2.1701,2.1652,2.0439,2.0612,2.0879,2.0861,1.9987,1.9409,0.0,0.0,0.0,0.0,0.0,0.0,0.0,0.0,0.0,0.0,0.0,0.0,0.0,0.0,0.0,0.0,0.0,0.0,0.0,0.0,0.0,1.9526,1.9474,0.0,0.0,0.0,0.0,0.0,0.0,0.0,0.0,0.0,1.7287,1.7513,1.8397,1.8845,1.9183,2.0101,2.1602,2.3096,2.3329,0.0,0.0,2.668,2.7075,2.719,2.719,2.733,2.689,2.4613,0.0,2.054,1.9198,1.7089,1.6338,1.9215,1.9235,1.9919,2.3216,2.2596,2.2864,0.0,0.0,0.0,0.0,0.0,0.0,0.0,0.0,0.0,0.0,0.0,0.0,3.4823,3.4775,3.4775,3.4775,3.4775,3.4775,3.4775,3.4775,3.4775,3.4775,3.4775,3.4775,3.4775,3.4775,3.4775,3.4775,3.4775,0.0,0.0,3.4342,3.3861,3.2611,3.355,3.3669,3.3164,3.2683,3.2466,3.2346,0.0,0.0,0.0,0.0,0.0,0.0,2.2911,2.2643,2.227,2.1571,2.1204,2.0807,2.0285,2.021,2.0336,2.0742,2.1039,0.0,0.0,0.0,0.0,0.0,0.0,0.0,0.0,0.0,2.1193,2.0699,2.0699,0.0,0.0,0.0,0.0,0.0,0.0,0.0,0.0,1.91,0.0,0.0,0.0,0.0,0.0,0.0,0.0,0.0,0.0,0.0,1.7376,1.7224,1.7632,1.8046,1.7402,1.8334,1.9761,0.0,2.2405,2.4599,2.4131,2.5562,2.7231,2.733,2.7452,2.6651,2.3398,2.1993,2.064,1.8031,1.6619,1.6361,1.7986,1.7894,1.834,2.0556,2.0454,2.1635,2.5867,0.0,0.0,0.0,0.0,0.0,0.0,0.0,0.0,0.0,0.0,0.0,3.4751,3.4775,3.4775,3.4775,3.4775,3.4775,3.4775,3.4775,3.4775,3.4775,3.4775,3.4775,3.4775,3.4775,3.4775,3.4775,3.4775,0.0,0.0,3.4126,3.3717,3.2178,3.3861,3.415,3.3669,3.3164,3.2779,3.2418,0.0,0.0,0.0,0.0,0.0,2.4239,2.4239,2.3683,2.3255,2.3141,2.2255,2.1466,2.0904,2.1121,2.1505,2.2014,2.2034,0.0,0.0,0.0,0.0,0.0,0.0,0.0,0.0,0.0,2.1385,2.0923,2.0774,2.0386,0.0,0.0,0.0,0.0,0.0,0.0,0.0,0.0,0.0,0.0,0.0,0.0,0.0,0.0,0.0,0.0,0.0,0.0,0.0,0.0,0.0,1.7237,1.6022,1.6328,1.7291,1.807,2.0788,2.3375,2.2581,2.4673,2.7123,2.7261,2.7032,2.5849,2.2376,2.1235,2.0027,1.7025,1.6409,1.6596,1.7136,1.7055,1.743,1.908,1.9356,2.088,2.5248,0.0,0.0,0.0,0.0,0.0,0.0,0.0,0.0,0.0,0.0,0.0,0.0,3.4775,3.4775,3.4775,3.4775,3.4775,3.4775,3.4775,3.4775,3.4775,3.4775,3.4607,3.439,3.4631,3.4655,3.439,0.0,0.0,0.0,3.4078,3.3765,3.2367,3.4126,3.4558,3.415,3.3525,3.3044,3.2635,0.0,0.0,0.0,0.0,0.0,2.5005,2.5005,2.4985,2.4954,2.4954,2.3982,2.335,2.3546,2.3031,2.2735,2.2899,2.2755,0.0,0.0,0.0,0.0,0.0,0.0,0.0,2.2095,2.2095,2.186,2.1385,2.0923,2.0386,1.9812,1.9812,1.9185,0.0,0.0,0.0,0.0,0.0,0.0,0.0,0.0,0.0,1.7199,0.0,0.0,0.0,0.0,0.0,0.0,0.0,0.0,0.0,0.0,1.6284,1.6325,1.7833,1.9878,2.1868,2.3041,2.5061,2.679,2.679,2.5916,2.4471,2.2281,2.0342,1.8566,1.6931,1.6908,1.7309,1.7704,1.7693,1.8209,2.0067,1.9998,2.0849,2.4143,0.0,0.0,0.0,0.0,0.0,0.0,0.0,0.0,0.0,0.0,0.0,0.0,3.4775,3.4775,3.4775,3.4775,3.4775,3.4775,3.4775,3.4775,3.4775,3.4775,3.4294,3.3332,3.4366,3.427,0.0,0.0,0.0,0.0,3.439,3.4222,3.338,3.4414,3.4775,3.4655,3.3669,3.3284,3.307,0.0,0.0,0.0,0.0,0.0,0.0,2.5661,2.5302,2.4946,2.4806,2.4092,2.3293,2.2578,2.2747,2.2858,2.2755,2.3113,0.0,0.0,0.0,0.0,2.2762,2.2965,2.274,2.1974,2.2072,2.186,2.1385,2.0923,2.0386,1.9786,1.9394,1.8793,1.8114,1.8226,0.0,0.0,0.0,0.0,0.0,0.0,1.7199,1.7199,0.0,0.0,0.0,0.0,0.0,0.0,0.0,0.0,0.0,0.0,0.0,0.0,1.7264,1.8536,1.9676,1.9971,2.1594,2.3221,2.3333,2.3091,2.2289,2.0231,1.9371,1.849,1.6693,1.6716,1.7185,1.7573,1.7838,1.8373,1.97,1.9792,2.1027,0.0,0.0,0.0,0.0,0.0,0.0,0.0,0.0,0.0,0.0,0.0,0.0,0.0,3.4775,3.4775,3.4775,3.4775,3.4775,3.4775,3.4775,3.4775,3.4775,3.4775,3.4294,3.3332,3.4366,0.0,0.0,0.0,0.0,0.0,3.4414,3.4222,3.338,3.4438,3.4677,3.4459,3.3959,3.3432,3.2909,0.0,0.0,0.0,0.0,0.0,0.0,2.5977,2.5629,2.5451,2.5581,2.4934,2.4126,2.3215,2.3345,2.3336,2.295,2.3441,0.0,0.0,0.0,0.0,2.3031,2.2929,2.2681,2.2214,2.1688,2.1281,2.0987,2.0356,1.9932,1.9751,1.9118,1.8667,1.8344,1.811,1.7687,0.0,0.0,0.0,0.0,1.7199,1.7199,1.7199,0.0,0.0,0.0,0.0,0.0,0.0,0.0,0.0,0.0,0.0,0.0,0.0,0.0,1.7652,1.8153,1.8516,1.9964,2.1393,2.1493,2.1134,2.0408,1.9153,1.8297,1.7531,1.6551,1.7237,1.7916,1.7716,1.8441,1.912,1.9189,2.0188,2.1771,0.0,0.0,0.0,0.0,0.0,0.0,0.0,0.0,0.0,0.0,0.0,0.0,0.0,3.4775,3.4775,3.4775,3.4775,3.4775,3.4775,3.4775,3.4775,3.4775,3.4775,3.4294,3.3332,3.4366,0.0,0.0,0.0,0.0,0.0,3.451,3.4438,3.3933,3.4583,3.4628,3.4362,3.4007,3.3481,3.2793,0.0,0.0,0.0,0.0,0.0,0.0,2.583,2.5914,2.6167,2.6862,2.6188,2.5487,2.5009,2.4584,2.402,2.3405,2.3722,0.0,0.0,2.3076,2.3009,2.3498,2.2388,2.2024,2.2572,2.1126,2.0372,2.0372,1.945,1.9296,1.9789,1.9043,1.8744,1.8759,1.8079,1.7544,1.7199,1.7199,1.7199,1.7199,1.7199,1.7225,0.0,0.0,0.0,0.0,0.0,0.0,0.0,0.0,0.0,0.0,0.0,0.0,0.0,0.0,0.0,0.0,0.0,1.9726,2.073,2.073,1.9726,1.8758,1.8758,1.7243,0.0,1.6667,1.8317,1.9329,1.8198,1.9562,2.0367,1.8802,2.1082,0.0,0.0,0.0,0.0,0.0,0.0,0.0,0.0,0.0,0.0,0.0,0.0,0.0,0.0,3.4775,3.4775,3.4775,3.4775,3.4775,3.4775,3.4775,3.4751,3.4679,3.4799,3.4246,3.3212,3.4318,0.0,0.0,0.0,0.0,0.0,3.4775,3.4775,3.4775,3.4775,3.4628,3.4337,3.391,3.341,3.2747,0.0,0.0,0.0,0.0,0.0,0.0,0.0,0.0,0.0,0.0,2.5293,2.5055,2.4726,2.4482,2.4194,0.0,0.0,0.0,0.0,2.348,2.3241,2.2942,2.2617,2.2144,2.1498,2.1183,2.1018,2.1056,2.0361,2.032,2.0818,1.9363,1.8723,1.8696,1.7748,1.7303,1.7199,1.7199,1.7199,1.7199,1.7199,1.7486,0.0,0.0,0.0,0.0,1.6885,1.6513,0.0,0.0,0.0,0.0,0.0,0.0,0.0,0.0,1.7812,1.7105,1.7616,0.0,1.7051,1.7051,1.6811,1.6547,0.0,1.6475,1.6883,0.0,0.0,0.0,0.0,2.1479,2.2113,2.0384,2.2157,0.0,0.0,0.0,0.0,0.0,0.0,0.0,0.0,0.0,0.0,0.0,0.0,0.0,0.0,3.4775,3.4775,3.4775,3.4775,3.4775,3.4775,3.4775,3.4438,3.3669,3.4438,3.3837,3.2151,3.3982,0.0,0.0,0.0,0.0,3.4775,3.4775,3.4775,3.4775,3.4775,3.4555,3.4188,3.4216,3.3643,3.2813,0.0,0.0,0.0,0.0,0.0,0.0,0.0,0.0,0.0,0.0,2.5005,2.4906,2.4645,2.4492,2.4338,0.0,0.0,0.0,2.361,2.361,2.346,2.3152,2.2387,2.1759,2.1364,2.0447,2.0225,2.0733,2.0199,2.0229,2.0793,1.9863,1.9181,1.8696,1.7644,1.7199,1.7199,1.7199,1.7199,1.7199,1.7199,0.0,0.0,0.0,0.0,0.0,1.6624,1.6205,0.0,1.6344,1.6556,1.6834,0.0,0.0,0.0,0.0,1.8684,1.8075,1.7961,1.6903,1.602,1.7027,1.6715,1.6427,1.7387,1.7291,1.7555,0.0,0.0,0.0,0.0,0.0,0.0,0.0,2.2303,0.0,0.0,0.0,0.0,0.0,0.0,0.0,0.0,0.0,0.0,0.0,0.0,0.0,0.0,3.4775,3.4775,3.4775,3.4775,3.4775,3.4775,3.4775,3.4318,3.3308,3.4342,3.3982,3.2512,3.4078,3.4511,0.0,0.0,0.0,3.439,3.391,3.3909,3.4126,3.4126,3.3934,3.376,3.4003,3.3692,3.2976,0.0,0.0,0.0,0.0,0.0,0.0,0.0,0.0,0.0,0.0,0.0,0.0,0.0,0.0,0.0,0.0,0.0,2.3897,2.3631,2.352,2.346,2.346,2.2005,2.1265,2.1446,1.9661,1.9187,2.0164,1.9648,1.9703,2.0337,2.0126,1.9517,1.8602,1.7639,1.7199,1.7199,1.7199,1.7199,1.7199,1.7199,0.0,0.0,0.0,0.0,0.0,0.0,0.0,0.0,1.6443,1.655,1.6695,1.8516,0.0,0.0,0.0,0.0,0.0,1.858,1.7215,1.645,1.8642,1.7821,1.7051,1.9287,1.8542,1.8085,0.0,0.0,0.0,0.0,2.1994,0.0,0.0,0.0,0.0,0.0,0.0,0.0,0.0,0.0,0.0,0.0,0.0,0.0,0.0,0.0,0.0,0.0,3.4775,3.4775,3.4775,3.4775,3.4775,3.4775,3.4775,3.4318,3.3308,3.4342,3.4294,3.3332,3.4366,3.4775,0.0,0.0,0.0,3.391,3.3092,3.2947,3.3284,3.3284,3.322,3.3218,3.341,3.3314,3.2956,0.0,0.0,0.0,0.0,0.0,0.0,0.0,0.0,0.0,0.0,0.0,0.0,0.0,0.0,0.0,0.0,0.0,2.3897,2.3631,2.3122,2.2853,2.2853,2.2043,2.1228,2.0362,1.9913,1.9916,2.0337,1.9662,1.9608,2.0116,1.9214,1.8468,1.7923,1.7412,1.7199,1.7199,1.7199,1.7199,1.7199,1.7199,0.0,0.0,0.0,0.0,0.0,0.0,0.0,0.0,1.6094,1.6629,1.7429,1.824,0.0,0.0,0.0,0.0,0.0,1.7829,1.7167,1.7192,1.9462,1.7945,1.6595,1.9218,1.8542,1.8398,0.0,0.0,0.0,0.0,2.5445,0.0,0.0,0.0,0.0,0.0,0.0,0.0,0.0,0.0,0.0,0.0,0.0,0.0,0.0,0.0,0.0,0.0,3.4775,3.4775,3.4775,3.4775,3.4775,3.4775,3.4775,3.4318,3.3308,3.4342,3.4294,3.3332,3.4366,3.4775,0.0,0.0,3.4342,3.3982,3.3814,3.3597,3.3284,3.3284,3.3028,3.2606,3.2653,3.2393,3.1943,0.0,0.0,0.0,0.0,0.0,0.0,0.0,0.0,0.0,0.0,0.0,0.0,0.0,0.0,0.0,0.0,2.3909,2.3739,2.361,2.334,2.2882,2.2194,2.1928,2.1407,2.0561,1.962,1.9635,2.0676,1.9684,1.935,1.9712,1.8603,1.8058,1.794,1.7363,1.695,1.6754,1.6415,1.6284,1.631,0.0,0.0,0.0,0.0,0.0,0.0,0.0,0.0,0.0,0.0,1.719,1.7637,1.8475,0.0,0.0,0.0,0.0,0.0,1.9091,1.8098,1.7895,2.1654,1.9829,1.8181,2.227,2.0634,1.948,2.3785,0.0,0.0,0.0,0.0,0.0,0.0,0.0,0.0,0.0,0.0,0.0,0.0,0.0,0.0,0.0,0.0,0.0,0.0,0.0,0.0,0.0,0.0,3.4775,3.4775,3.4775,3.4775,3.4775,3.4775,3.4318,3.3308,3.4342,3.4294,3.3332,3.4366,3.4775,3.4727,0.0,3.3597,3.3573,3.2683,3.237,3.2464,3.2464,3.2289,3.2112,3.2254,3.1995,3.1552,0.0,0.0,0.0,0.0,0.0,0.0,0.0,0.0,0.0,0.0,0.0,0.0,0.0,0.0,0.0,0.0,2.3824,2.3614,2.34,2.3251,2.2652,2.1515,2.1559,2.1382,2.0866,1.9523,1.9396,2.0551,1.9497,1.8988,1.9022,1.8187,1.7894,1.8003,1.7344,1.6883,1.6545,1.6075,1.5892,1.5944,0.0,0.0,0.0,0.0,0.0,0.0,0.0,0.0,0.0,0.0,0.0,0.0,0.0,0.0,0.0,1.9788,1.9559,1.9297,1.9832,1.8746,1.8435,2.2655,2.072,1.9287,2.4843,2.2414,2.0346,2.5107,0.0,0.0,0.0,0.0,0.0,0.0,0.0,0.0,0.0,0.0,0.0,0.0,0.0,0.0,0.0,0.0,0.0,0.0,0.0,0.0,0.0,0.0,3.4775,3.4775,3.4775,3.4775,3.4775,3.4775,3.4438,3.3669,3.4438,3.4414,3.3669,3.4463,3.4775,3.4703,3.3428,3.302,3.3188,3.1817,3.1452,3.1717,3.1717,3.1645,3.1549,3.16,3.1414,3.1113,0.0,0.0,0.0,0.0,0.0,0.0,0.0,0.0,0.0,0.0,0.0,0.0,0.0,0.0,0.0,0.0,2.4088,2.3625,2.2813,2.2194,2.1515,2.0808,2.0789,2.0769,2.074,2.0099,1.9695,1.9506,1.8877,1.8333,1.7902,1.7835,1.7814,1.7808,1.738,1.7188,1.7146,1.7094,1.7068,1.7068,1.712,0.0,0.0,0.0,0.0,0.0,0.0,0.0,0.0,0.0,0.0,0.0,0.0,0.0,1.9281,1.9711,1.9181,1.8467,1.8541,1.8347,1.8606,2.0489,1.8831,1.8348,2.4675,2.2414,2.0346,2.5107,0.0,0.0,0.0,0.0,0.0,0.0,0.0,0.0,0.0,0.0,0.0,0.0,0.0,0.0,0.0,0.0,0.0,0.0,0.0,0.0,0.0,0.0,0.0,3.4775,3.4775,3.4775,3.4775,3.4775,3.4751,3.4679,3.4799,3.4751,3.4679,3.4751,3.4775,3.4751,3.415,3.3693,3.3236,3.2635,3.2106,3.1717,3.1717,3.1431,3.0986,3.0489,3.0308,3.0285,0.0,0.0,0.0,0.0,0.0,0.0,0.0,0.0,0.0,0.0,0.0,2.4302,2.4302,0.0,0.0,0.0,2.2758,2.2445,2.2154,2.1854,2.1415,2.0783,2.0916,2.0769,2.0206,1.9783,1.9381,1.8975,1.837,1.7777,1.718,1.7598,1.7666,1.7421,1.717,1.7123,1.7146,1.6441,1.6362,1.6728,1.7068,1.7329,0.0,0.0,0.0,0.0,0.0,0.0,0.0,0.0,1.8627,1.8732,1.8933,1.9258,1.9585,1.9761,1.9082,1.845,1.9205,1.8584,1.8635,2.2285,2.0683,1.964,2.5133,2.3442,2.2025,2.666,2.518,0.0,0.0,0.0,0.0,0.0,0.0,0.0,0.0,0.0,0.0,0.0,0.0,0.0,0.0,0.0,0.0,0.0,0.0,0.0,0.0,0.0,0.0,3.4775,3.4775,3.4775,3.4775,3.4775,3.4775,3.4775,3.4775,3.4775,3.4775,3.4775,3.4775,3.4727,3.3933,3.3452,3.3212,3.2165,3.1618,3.1427,3.1116,3.0892,3.0736,3.0352,3.0216,3.0216,0.0,0.0,0.0,0.0,0.0,0.0,0.0,0.0,2.5005,0.0,0.0,0.0,0.0,2.2916,0.0,0.0,2.1901,2.1754,2.1763,2.1605,2.1297,2.0852,2.1076,2.0765,1.9814,1.9586,1.9231,1.8702,1.7962,1.737,1.693,1.7397,1.7574,1.7481,1.7396,1.7488,1.7669,1.6728,1.6545,1.6963,1.7329,1.7591,0.0,0.0,0.0,0.0,0.0,0.0,0.0,0.0,1.9082,1.9033,1.9183,1.9484,1.9811,1.9811,1.9158,1.8631,1.946,1.8859,1.8956,2.279,2.1695,2.092,2.5581,2.4247,2.3172,2.7165,2.6117,2.4506,2.4699,0.0,0.0,0.0,0.0,0.0,0.0,0.0,0.0,0.0,0.0,0.0,0.0,0.0,0.0,0.0,0.0,0.0,0.0,0.0,0.0,0.0,3.4775,3.4775,3.4775,3.4775,3.4775,3.4775,3.4775,3.4775,3.4775,3.4775,3.4679,3.4486,3.3669,3.3142,3.2855,3.1765,3.1273,3.1184,3.0758,3.0623,3.0578,3.0306,3.0216,3.0216,0.0,0.0,0.0,0.0,0.0,0.0,0.0,0.0,2.5005,2.5005,2.4334,0.0,0.0,0.0,0.0,0.0,2.1881,2.1763,2.1714,2.1324,2.1029,2.0905,2.1109,2.0723,1.9628,1.9646,1.9369,1.8702,1.7671,1.7199,1.7199,1.7199,1.7539,1.8114,1.8114,1.8401,1.8872,1.8349,1.8114,1.8087,1.8114,1.8427,1.8976,0.0,0.0,0.0,0.0,0.0,0.0,0.0,1.9008,1.9108,1.9635,1.9811,1.9811,1.9811,1.9434,1.9008,1.9033,1.9107,1.9585,2.1285,0.0,0.0,2.593,2.4674,2.344,2.6322,2.821,2.9124,2.8595,0.0,0.0,0.0,0.0,0.0,0.0,0.0,0.0,0.0,0.0,0.0,0.0,0.0,0.0,0.0,0.0,0.0,0.0,0.0,0.0,0.0,3.4775,3.4775,3.4775,3.4775,3.4775,3.4775,3.4775,3.4775,3.4775,3.4775,3.4486,3.3958,3.3501,3.2833,3.2055,3.1532,3.1184,3.0984,3.0713,3.0623,3.0578,3.0306,3.0216,3.0216,0.0,0.0,0.0,0.0,0.0,0.0,0.0,0.0,2.4296,2.4296,2.3048,0.0,0.0,0.0,0.0,0.0,0.0,0.0,2.1102,2.1366,2.1385,2.1029,2.1153,2.0867,2.0174,1.9497,1.8649,1.7623,1.734,1.7408,1.7826,1.7826,1.814,1.8689,1.9549,1.9549,1.8924,1.9185,1.8845,1.814,1.8506,1.8767,1.8976,0.0,0.0,0.0,0.0,0.0,0.0,0.0,0.0,0.0,1.9761,1.9811,2.0037,2.1217,2.0337,1.9334,2.0888,2.0304,0.0,2.1886,0.0,0.0,0.0,2.4682,0.0,0.0,2.8715,2.8907,2.7594,0.0,0.0,0.0,0.0,0.0,0.0,0.0,0.0,0.0,0.0,0.0,0.0,0.0,0.0,0.0,0.0,0.0,0.0,0.0,0.0,0.0,3.4775,3.4775,3.4775,3.4775,3.4583,3.4222,3.4222,3.4222,3.4222,3.4222,3.3958,3.3477,3.2971,3.2498,3.2055,3.1149,3.0668,3.042,3.0352,3.0306,3.0306,3.0216,3.0216,3.0216,0.0,0.0,0.0,0.0,0.0,0.0,2.4767,2.4226,2.3809,2.3904,2.2898,2.2164,0.0,0.0,0.0,2.0352,2.0789,0.0,2.0853,2.0887,2.1011,2.1194,2.107,2.0735,2.0164,1.9324,1.8558,1.7878,1.7669,1.7852,1.8401,1.8192,1.8506,1.9264,1.9549,1.9522,1.9264,1.9159,1.8741,1.814,1.8689,1.8767,1.8662,0.0,0.0,0.0,0.0,0.0,0.0,0.0,0.0,0.0,1.9434,1.9936,2.0589,2.1142,2.0813,2.0588,2.1945,2.1428,0.0,2.3846,2.3656,2.3206,2.4798,0.0,0.0,0.0,0.0,2.9701,0.0,0.0,0.0,0.0,0.0,0.0,0.0,0.0,0.0,0.0,0.0,0.0,0.0,0.0,0.0,0.0,0.0,0.0,0.0,0.0,0.0,0.0,3.4775,3.4775,3.4775,3.4583,3.4318,3.3982,3.379,3.3621,3.3428,3.3645,3.3452,3.2947,3.2237,3.1817,3.1589,3.0807,3.0352,3.0216,3.0216,3.0216,3.0216,3.0216,3.0216,3.0216,0.0,0.0,2.5195,2.5278,0.0,0.0,2.4112,2.3775,2.3589,2.3763,2.3417,2.315,0.0,0.0,0.0,2.0799,2.0489,2.0536,2.0963,2.0363,2.0402,2.1382,2.0947,2.0412,1.9812,1.9264,1.8976,1.8976,1.8427,1.8453,1.8976,1.8479,1.8845,1.9839,1.8898,1.8976,1.9734,1.8819,1.8323,1.8218,1.8744,1.8666,1.8375,1.9397,0.0,0.0,0.0,0.0,0.0,0.0,0.0,0.0,1.8907,2.0137,2.1167,2.0288,2.1117,2.2347,2.2498,2.2472,0.0,2.618,2.5369,0.0,2.7201,2.7015,2.731,0.0,0.0,0.0,0.0,0.0,0.0,0.0,0.0,0.0,0.0,0.0,0.0,0.0,0.0,0.0,0.0,0.0,0.0,0.0,0.0,0.0,0.0,0.0,0.0,3.4703,3.4703,3.4679,3.4631,3.415,3.391,3.3838,3.3428,3.2947,3.2442,3.2971,3.2923,3.2349,3.1421,3.0984,3.0984,3.0397,3.0216,3.0216,3.0216,3.0239,3.0285,3.0285,3.0308,3.0354,0.0,0.0,2.436,2.5144,0.0,0.0,2.5016,2.4193,2.3596,2.3635,2.2781,2.1994,2.1602,2.1403,0.0,2.0895,2.1312,2.164,2.1671,2.2032,2.1953,2.1434,2.0947,2.0412,1.9812,1.9682,1.9603,1.9603,1.9028,1.9028,1.9603,1.9499,1.9812,2.0517,2.1172,2.0858,1.9839,2.0492,1.9995,1.877,1.9227,1.9456,1.9449,1.9588,1.9876,0.0,0.0,0.0,0.0,0.0,0.0,0.0,1.9585,1.9886,2.0388,2.1468,2.202,2.2598,2.3898,2.3597,0.0,0.0,2.4336,2.5432,2.9401,2.9742,2.9714,0.0,0.0,0.0,0.0,0.0,0.0,0.0,0.0,0.0,0.0,0.0,0.0,0.0,0.0,0.0,0.0,0.0,0.0,0.0,0.0,0.0,0.0,0.0,0.0,3.4174,3.4174,3.403,3.3621,3.3501,3.3236,0.0,3.2731,3.237,3.191,3.2418,3.237,3.1841,3.1255,3.0984,3.0984,3.0397,3.0216,3.0216,3.0216,3.0468,3.0836,3.0836,3.1088,3.1387,0.0,0.0,0.0,0.0,0.0,0.0,0.0,0.0,2.2913,2.3299,2.294,2.2613,2.2489,2.2384,0.0,0.0,2.1549,2.1525,2.1192,2.1319,2.1325,2.1068,2.056,2.0255,2.0229,2.0229,2.0361,2.0623,2.0309,2.0178,2.0229,1.9943,2.0124,2.0699,2.0651,2.0289,1.9718,1.9981,1.9544,1.8742,1.9031,1.9003,1.8817,1.9031,1.9136,1.9136,1.899,0.0,0.0,0.0,0.0,0.0,0.0,0.0,2.069,2.1016,2.1694,2.2498,2.3376,0.0,0.0,2.5377,0.0,2.8299,3.0059,3.0925,0.0,0.0,0.0,0.0,0.0,0.0,0.0,0.0,0.0,0.0,0.0,0.0,0.0,0.0,0.0,0.0,0.0,0.0,0.0,0.0,0.0,0.0,0.0,3.4078,3.3958,3.3693,3.3669,3.3549,3.3284,3.3044,3.2779,3.2491,3.2226,3.1982,3.1717,3.1961,3.1982,3.1673,3.1208,3.1229,3.1605,3.1048,3.0869,3.0869,3.0869,3.0903,3.1019,3.1019,3.1341,3.1733,0.0,0.0,0.0,0.0,0.0,0.0,0.0,0.0,0.0,2.3172,2.343,2.3584,2.3833,2.3473,2.2849,0.0,0.0,0.0,2.0603,2.0181,2.0177,2.0699,2.0229,2.0203,2.0699,2.0804,2.1014,2.1355,2.1459,2.1355,2.1068,2.0573,2.0599,2.1067,1.9879,1.9495,1.965,1.9041,1.8865,1.8942,1.8865,1.8661,1.848,1.884,1.8738,1.8456,1.8893,1.8999,1.8926,1.8926,0.0,0.0,0.0,0.0,2.1142,2.0112,2.0991,2.2322,2.2322,0.0,2.546,2.757,2.9478,0.0,3.0181,3.1339,0.0,0.0,0.0,0.0,0.0,0.0,0.0,0.0,0.0,0.0,0.0,0.0,0.0,0.0,0.0,0.0,0.0,0.0,0.0,0.0,0.0,0.0,3.3308,3.3284,3.326,3.3164,3.3164,3.3116,3.302,3.2587,3.2346,3.2346,3.1934,3.1717,3.1717,3.1869,3.1825,3.1673,3.1362,3.1649,3.2258,3.1801,3.1713,3.1845,3.1669,3.1494,3.1367,3.1414,3.1785,3.2202,0.0,0.0,0.0,0.0,0.0,0.0,0.0,0.0,0.0,0.0,2.349,2.3121,2.3217,2.2313,2.1647,2.1493,2.0926,2.0774,2.125,0.0,0.0,2.0699,2.062,2.062,2.0699,2.1171,2.1198,2.083,2.1276,2.1875,2.2618,2.2541,2.2568,2.2676,2.2326,2.1397,2.0117,2.0015,2.0271,2.0706,2.0067,2.0423,2.1294,2.0779,2.0855,2.1185,2.1261,2.1178,2.1096,2.1096,2.1069,0.0,0.0,0.0,2.0666,1.9987,2.0991,2.2322,2.2322,0.0,2.5912,0.0,2.8323,2.9001,0.0,0.0,0.0,0.0,0.0,0.0,0.0,0.0,0.0,0.0,0.0,0.0,0.0,0.0,0.0,0.0,0.0,0.0,0.0,0.0,0.0,0.0,0.0,0.0,3.3284,3.3284,3.3068,3.2611,3.2611,3.237,3.1934,3.1862,3.1813,3.1813,3.1741,3.1717,3.1717,3.25,3.2413,3.1717,3.1977,3.2171,3.2258,3.1801,3.2084,3.2735,3.1933,3.2091,3.2836,3.2953,3.3576,3.4246,0.0,0.0,0.0,0.0,0.0,0.0,0.0,0.0,0.0,0.0,0.0,2.3255,2.3912,2.2965,2.233,2.2361,2.2119,2.1965,2.1979,2.1773,2.1668,2.1668,2.1668,2.1642,2.1642,2.1904,2.1904,2.1668,2.1459,2.2572,2.4864,2.4315,2.362,2.2865,2.3637,2.2738,2.0627,2.1485,2.1635,2.1283,2.062,2.0546,2.0724,2.0773,2.0721,2.0721,2.1352,2.1549,2.1493,2.1493,2.1493,2.1443,2.1219,0.0,0.0,0.0,2.0842,2.1719,2.3301,2.3728,2.4607,0.0,2.8348,2.8298,3.0809,0.0,0.0,0.0,0.0,0.0,0.0,0.0,0.0,0.0,0.0,0.0,0.0,0.0,0.0,0.0,0.0,0.0,0.0,0.0,0.0,0.0,0.0,3.2271,3.2394,3.2415,3.2319,3.2034,3.2034,3.1958,3.1717,3.1717,3.1957,3.2413,3.2307,3.2525,3.3018,3.3759,3.3445,3.2264,3.2821,3.2993,3.2907,3.3079,3.3079,3.3036,3.3122,3.297,3.2825,3.371,3.4184,3.4318,0.0,0.0,0.0,0.0,0.0,0.0,0.0,0.0,0.0,0.0,0.0,2.3437,2.4444,0.0,0.0,0.0,2.2937,2.2778,2.2428,2.2401,2.2401,2.2401,2.2401,2.2401,2.24,2.2401,2.2323,2.2112,2.1562,2.2799,2.5621,2.5332,2.4627,2.3704,2.4697,2.4109,2.2365,2.3055,2.2975,2.2272,2.1597,2.1041,2.0639,2.0691,2.0591,2.0539,2.1393,2.1694,2.1694,2.1694,2.1794,2.187,2.1568,2.1594,0.0,0.0,0.0,0.0,0.0,0.0,2.3301,2.7494,2.7595,2.7293,0.0,0.0,0.0,0.0,0.0,0.0,0.0,0.0,0.0,0.0,0.0,0.0,0.0,0.0,0.0,0.0,0.0,0.0,0.0,0.0,0.0,0.0,0.0,3.1496,3.1584,3.154,3.1584,3.1717,3.1629,3.1629,3.1717,3.1717,3.2133,3.2993,3.2785,3.3172,3.4037,3.4703,3.433,3.3258,3.3716,3.3843,3.3691,3.4204,3.4121,3.3716,3.4204,3.3862,3.3207,3.4363,3.464,3.4558,0.0,0.0,0.0,0.0,0.0,0.0,0.0,0.0,0.0,0.0,0.0,2.3439,2.4069,2.3577,2.3006,2.2481,2.2429,2.2428,2.24,2.24,2.24,2.2401,2.24,0.0,2.2401,2.2401,2.2086,2.1354,2.1328,2.2069,2.3598,2.5051,2.5946,2.6282,2.5795,2.582,2.6097,2.4582,2.423,2.4525,2.3421,2.297,2.2769,2.127,2.1292,2.2196,2.2246,2.2272,2.2272,2.2272,2.2594,2.2844,2.182,2.1845,2.2171,0.0,0.0,0.0,0.0,2.2744,0.0,2.4575,0.0,0.0,0.0,0.0,0.0,0.0,0.0,0.0,0.0,0.0,0.0,0.0,0.0,0.0,0.0,0.0,0.0,0.0,0.0,0.0,0.0,0.0,0.0,0.0,0.0,3.0826,3.1294,3.1139,3.1229,3.1717,3.1427,3.1427,3.1717,3.1717,3.2133,3.2993,3.2785,3.3172,3.4037,3.4703,3.4868,3.4579,3.4635,3.4635,3.462,3.4481,3.4853,3.5467,3.4688,3.4653,3.4994,3.5174,3.5539,3.5921,0.0,0.0,0.0,0.0,0.0,0.0,0.0,0.0,0.0,0.0,0.0,0.0,0.0,2.3813,2.3289,2.3472,2.3498,2.3498,2.3469,2.3469,2.3498,2.3498,2.3498,2.3498,2.3498,2.2767,2.2398,2.2389,2.1557,2.2112,2.3918,2.4432,2.5468,2.7077,2.8624,2.7871,2.5511,2.7067,2.5963,2.3401,2.5485,2.4406,2.1719,2.3251,2.3653,2.3301,0.0,0.0,2.4205,2.2799,2.2644,2.297,2.2246,2.2146,2.2196,2.1644,0.0,0.0,0.0,0.0,0.0,2.423,2.3973,0.0,0.0,0.0,0.0,0.0,0.0,0.0,0.0,0.0,0.0,0.0,0.0,0.0,0.0,0.0,0.0,0.0,0.0,0.0,0.0,0.0,0.0,0.0,0.0,0.0,3.1492,3.0806,3.0628,3.1229,3.1273,3.1427,3.1717,3.2239,3.2993,3.3859,3.4053,3.4662,3.5548,3.5467,3.5426,3.5345,3.5318,3.5032,3.4564,3.5018,3.51,3.4895,3.5141,3.5001,3.4779,3.5778,3.5876,3.5686,0.0,0.0,0.0,2.3501,0.0,2.403,2.3843,2.3812,2.4034,2.4622,0.0,0.0,0.0,0.0,2.3574,2.3783,2.3812,2.3812,2.3812,2.3992,2.4204,2.4387,2.423,2.4204,2.4413,2.3237,2.2761,2.2925,2.1889,2.2105,2.3578,2.4035,2.5159,2.6816,2.9227,2.8976,2.6882,2.9126,2.8147,2.5234,2.6892,2.5787,2.3306,2.4356,2.4556,0.0,0.0,0.0,0.0,2.428,0.0,0.0,0.0,0.0,0.0,0.0,0.0,0.0,2.2619,0.0,0.0,0.0,0.0,0.0,0.0,0.0,0.0,0.0,0.0,0.0,0.0,0.0,0.0,0.0,0.0,0.0,0.0,0.0,0.0,0.0,0.0,0.0,0.0,0.0,0.0,0.0,0.0,0.0,3.1757,3.0999,3.0822,3.1339,3.1451,3.1629,3.1805,3.2587,3.3437,3.4319,3.4841,3.5588,3.6405,3.6018,3.5817,3.571,3.571,3.5386,3.4895,3.5467,3.5345,3.4895,3.5467,3.5345,3.4948,3.5939,3.5936,3.5599,2.3253,2.3228,2.3122,2.2535,2.2426,2.2608,2.313,2.3208,2.3417,2.4018,0.0,0.0,0.0,0.0,0.0,2.3261,2.3208,2.3208,2.3208,2.3757,2.436,2.494,2.4413,2.4387,2.4966,2.3812,2.3067,2.2808,2.2219,2.2051,2.2372,2.3973,2.5034,2.5586,2.7268,2.895,3.0482,3.0583,3.0532,3.0156,2.7681,2.7203,2.757,2.4474,2.3948,0.0,2.6691,2.6264,0.0,2.6741,0.0,0.0,0.0,0.0,0.0,0.0,0.0,0.0,0.0,0.0,0.0,0.0,0.0,0.0,0.0,0.0,0.0,0.0,0.0,0.0,0.0,0.0,0.0,0.0,0.0,0.0,0.0,0.0,0.0,0.0,0.0,0.0,0.0,0.0,0.0,0.0,0.0,3.1492,3.1977,3.1781,3.1781,3.1977,3.2025,3.2025,3.2025,3.2717,3.3479,3.4334,3.5073,3.5777,3.6405,3.6206,3.5938,3.571,3.571,3.571,3.571,3.571,3.571,3.571,3.571,3.571,3.571,3.571,3.571,3.5791,2.3204,2.3143,2.2994,2.3235,2.3283,2.3335,2.3489,2.3603,2.3768,0.0,0.0,0.0,2.4096,2.4096,2.4018,2.3861,2.3835,2.3835,2.3835,2.3992,2.4178,2.4334,2.4204,2.4119,2.4213,2.343,2.3106,2.3221,2.2636,2.2521,2.2895,2.3346,2.3647,2.3847,2.5536,2.654,2.7143,2.9578,2.8298,2.5008,2.9453,2.8072,2.3703,0.0,0.0,0.0,0.0,2.7243,2.7218,0.0,2.654,2.5234,0.0,0.0,0.0,0.0,0.0,0.0,2.2422,0.0,0.0,0.0,0.0,0.0,0.0,2.3653,0.0,0.0,0.0,0.0,0.0,0.0,0.0,0.0,0.0,0.0,0.0,0.0,0.0,0.0,0.0,0.0,0.0,0.0,0.0,0.0,3.1277,3.0984,3.1757,3.1516,3.1516,3.1781,3.1913,3.237,3.3207,3.3742,3.4511,3.5507,3.5911,3.6218,3.6405,3.6206,3.5938,3.571,3.571,3.571,3.571,3.571,3.571,3.571,3.571,3.571,3.571,3.571,3.571,3.5791,2.2686,2.2829,2.2885,2.3218,2.3445,2.3599,2.3599,2.3688,2.3747,0.0,0.0,0.0,2.3894,2.3687,2.3586,2.3644,2.3644,2.3647,2.3704,2.3939,2.423,2.4465,2.3995,2.391,2.4346,2.3482,2.318,2.348,2.309,2.2942,2.3095,2.3095,2.3095,2.3145,2.4098,2.4582,2.4732,2.7168,2.7233,2.6038,2.9139,2.8762,0.0,2.9277,2.9001,0.0,0.0,0.0,2.9202,2.9578,2.8348,0.0,0.0,0.0,0.0,0.0,0.0,0.0,2.2368,2.2322,0.0,0.0,0.0,0.0,2.1945,2.3728,2.5636,0.0,0.0,0.0,0.0,0.0,0.0,0.0,0.0,0.0,0.0,0.0,0.0,0.0,0.0,0.0,0.0,0.0,0.0,3.2225,3.1509,3.1326,3.1957,3.1913,3.1981,3.2113,3.222,3.2587,3.3275,3.4021,3.4662,3.5169,3.6071,3.6405,3.6098,3.6338,3.6178,3.571,3.5938,3.5871,3.571,3.571,3.571,3.571,3.5938,3.5871,3.571,3.5938,3.5898,3.5764,0.0,2.2498,2.2828,2.2828,2.3237,2.3539,2.3539,2.3569,2.3569,0.0,2.3599,2.3599,2.3599,2.3167,2.2943,2.306,2.306,2.3117,2.323,2.3754,2.4275,2.4827,2.3806,2.3754,2.4797,2.3661,2.3203,2.3539,2.342,2.3271,2.3095,2.3095,2.3095,2.3095,2.3095,2.3095,2.317,2.4098,2.6656,2.988,2.7731,2.9164,0.0,0.0,3.0331,3.0683,3.2591,3.2164,3.0909,3.234,3.0783,0.0,0.0,0.0,0.0,0.0,2.3507,2.2351,2.2441,2.2416,2.2308,0.0,0.0,0.0,2.1764,2.4272,2.6746,0.0,0.0,0.0,0.0,0.0,0.0,0.0,0.0,0.0,0.0,0.0,0.0,0.0,0.0,0.0,0.0,3.1717,3.1805,3.1937,3.1981,3.2069,3.2313,3.2506,3.2636,3.2636,3.268,3.2785,3.2957,3.3988,3.4518,3.4491,3.6075,3.6531,3.5981,3.6726,3.6619,3.5899,3.6286,3.6218,3.579,3.5831,3.579,3.575,3.6138,3.6098,3.5858,3.6218,3.6178,3.5831,2.2783,2.2959,2.3034,2.3034,2.3135,2.3185,2.3185,2.333,2.342,2.342,2.3539,2.3599,2.3599,2.3496,2.3449,2.3478,2.3478,2.3478,2.3508,2.361,2.3769,2.3871,2.3636,2.3581,2.3718,2.3458,2.3289,2.3185,2.318,2.3125,2.3095,2.3095,2.3095,2.3095,2.3095,2.3095,2.3095,2.2869,2.4255,2.6716,2.8448,0.0,2.9377,3.2064,3.1512,2.9665,3.3169,3.3043,3.1235,3.1135,3.0357,2.9001,0.0,0.0,0.0,0.0,0.0,0.0,0.0,0.0,0.0,0.0,0.0,0.0,2.2777,2.2697,2.3204,0.0,0.0,0.0,0.0,0.0,0.0,0.0,0.0,0.0,0.0,0.0,0.0,0.0,0.0,0.0,0.0,3.1849,3.1893,3.1761,3.1761,3.1805,3.1849,3.2025,3.2157,3.2157,3.2506,3.3275,3.4526,3.5068,3.6016,3.739,3.7756,3.7841,3.769,3.7547,3.7325,3.6974,3.6888,3.6654,3.6258,3.6587,3.631,3.571,3.579,3.6018,3.6258,3.6365,3.6536,3.6744,2.2272,2.2518,2.2694,2.2694,2.292,2.3095,2.3095,2.321,2.3241,2.3241,2.333,2.336,2.336,2.336,2.339,2.348,2.3509,2.3539,2.3599,2.3599,2.3599,2.3599,2.3317,2.3288,2.3509,2.3141,2.3052,2.3241,2.315,2.3095,2.3095,2.3095,2.3095,2.3095,2.3095,2.3095,2.307,2.2518,2.3753,2.6223,2.8172,0.0,3.008,3.3144,3.3269,3.2022,3.3978,3.3997,3.2893,3.1788,3.1035,0.0,0.0,2.6766,2.5048,0.0,2.3189,2.2431,0.0,0.0,0.0,2.3312,0.0,0.0,0.0,2.3338,2.3797,0.0,0.0,0.0,0.0,0.0,0.0,0.0,0.0,0.0,0.0,0.0,0.0,0.0,0.0,0.0,0.0,3.1937,3.1893,3.1717,3.1717,3.1717,3.1717,3.2307,3.2463,3.1981,3.3215,3.4166,3.4763,3.5668,3.6658,3.7703,3.8131,3.8173,3.788,3.8198,3.814,3.7744,3.763,3.7417,3.7111,3.7041,3.6744,3.635,3.635,3.6468,3.6693,3.6693,3.685,3.6978,2.182,2.2171,2.2443,2.2443,2.2819,2.3095,2.3095,2.3095,2.3095,2.3095,2.3095,2.3221,2.3547,2.3296,2.3331,2.3938,2.3887,2.3796,2.3688,2.3866,2.3841,2.3509,2.3105,2.308,2.3484,2.2934,2.2875,2.333,2.318,2.3095,2.3095,2.3095,2.3095,2.3095,2.3095,2.3346,2.3722,2.3301,2.4657,2.7253,0.0,2.988,3.1361,3.3922,3.4675,3.4449,3.4731,3.4831,3.4555,3.2817,3.1913,3.1486,3.1185,2.8699,0.0,0.0,0.0,0.0,0.0,0.0,0.0,0.0,0.0,2.319,0.0,0.0,0.0,0.0,0.0,0.0,0.0,0.0,0.0,0.0,0.0,0.0,0.0,0.0,0.0,0.0,0.0,0.0,0.0,3.173,3.1869,3.1693,3.1869,3.2001,3.1957,3.2828,3.3043,3.2481,3.3911,3.4785,3.4994,3.606,3.6983,3.7706,3.8491,3.8588,3.8082,3.8921,3.903,3.8491,3.8476,3.8258,3.7957,3.7529,3.7247,3.7095,3.7017,3.7056,3.7095,3.7095,3.7173,3.7211,2.292,2.297,2.302,2.302,2.307,2.3095,2.3095,2.3095,2.3095,2.3095,2.3095,2.3672,2.5159,2.3973,2.3929,2.598,2.5644,2.494,2.4041,2.4847,2.4689,2.3231,2.3105,2.3105,2.3155,2.3075,2.3075,2.3125,2.3095,2.3095,2.3095,2.3095,2.3095,2.3095,2.3095,2.423,2.6122,2.6047,2.7354,0.0,3.1687,3.1486,0.0,3.4003,3.455,3.3445,3.4881,3.5408,3.5082,0.0,3.2164,3.1863,0.0,2.8649,2.7211,0.0,0.0,0.0,0.0,0.0,0.0,0.0,2.3461,0.0,0.0,0.0,0.0,0.0,0.0,0.0,0.0,0.0,0.0,0.0,0.0,0.0,0.0,0.0,0.0,0.0,0.0,0.0,0.0,0.0,3.173,3.1709,3.2562,3.3011,3.2864,3.2993,3.3352,3.4027,3.3742,3.4491,3.6344,3.6476,3.7509,3.9508,3.994,4.0133,4.0062,3.9774,3.9578,3.9508,3.9398,3.8882,3.8184,3.8492,3.8188,3.751,3.7134,3.7211,3.7548,3.7548,3.7749,3.8052,2.3095,2.3095,2.3095,2.3095,2.3095,2.3095,2.3095,2.3396,2.3496,2.3145,2.3396,2.4255,2.5946,2.5485,2.5963,2.8234,0.0,2.7846,0.0,0.0,2.6264,2.5561,2.4632,2.4073,2.4073,2.4073,2.4073,2.4073,2.4073,2.4073,2.4073,2.4073,2.4073,2.4073,2.4073,2.5159,2.6977,0.0,2.8222,0.0,0.0,0.0,0.0,3.4675,3.5579,3.4997,3.4675,3.5203,3.5629,0.0,3.3068,0.0,0.0,0.0,0.0,0.0,0.0,0.0,0.0,0.0,0.0,0.0,0.0,0.0,2.6039,0.0,2.2975,0.0,0.0,0.0,0.0,0.0,0.0,0.0,0.0,0.0,0.0,0.0,0.0,0.0,0.0,0.0,0.0,0.0,0.0,0.0,0.0,3.1685,3.2133,3.3152,3.3943,3.4293,3.5087,3.5994,3.7081,3.7632,3.8726,4.0322,4.049,4.0501,4.0399,4.0307,4.0294,4.0266,3.9967,3.9707,3.9446,3.8864,3.8435,3.8072,3.7691,3.7701,3.7901,3.7701,3.7825,3.8202,2.3095,2.3095,2.3095,2.3095,2.3095,2.3095,2.3095,2.4004,2.4531,2.4104,2.4531,2.5536,2.7228,2.6725,0.0,0.0,3.0005,3.0005,0.0,0.0,2.8008,2.8008,2.5937,0.0,2.5485,2.5059,2.48,2.48,2.48,2.48,2.48,2.48,2.48,2.48,2.48,2.5912,2.7745,0.0,2.9578,3.1813,3.2491,3.2742,3.3011,3.4972,3.6028,3.6254,3.5002,3.5399,3.6028,3.3495,3.3746,0.0,3.2717,0.0,0.0,0.0,0.0,0.0,2.9688,0.0,0.0,0.0,0.0,0.0,0.0,0.0,0.0,0.0,0.0,0.0,0.0,0.0,0.0,0.0,0.0,0.0,0.0,0.0,0.0,0.0,0.0,0.0,0.0,0.0,0.0,0.0,0.0,0.0,3.1899,3.3686,3.4815,3.502,3.6301,3.7269,3.7867,3.863,3.9536,4.0688,4.0773,4.0688,4.0587,4.0688,4.0816,4.0901,4.0576,4.0472,4.0449,3.9533,3.8921,3.8589,3.8285,3.8111,3.8014,3.7777,3.7891,3.8127,2.3095,2.3095,2.3095,2.3095,2.3095,2.3095,2.3095,2.4983,2.6399,2.6399,2.6876,0.0,0.0,0.0,0.0,0.0,0.0,3.0583,3.0583,0.0,2.9704,0.0,0.0,2.5561,0.0,2.5636,2.48,2.48,2.48,2.48,2.48,2.48,2.48,2.48,2.48,2.6305,2.8913,3.0055,3.2089,3.4675,3.578,3.6254,3.6078,0.0,3.4977,3.6405,3.6355,0.0,0.0,3.4424,3.3897,0.0,0.0,0.0,0.0,0.0,0.0,0.0,0.0,0.0,0.0,2.9423,0.0,0.0,0.0,0.0,2.4471,0.0,0.0,0.0,0.0,0.0,2.4094,2.4679,2.4369,0.0,0.0,0.0,0.0,0.0,0.0,0.0,0.0,0.0,0.0,0.0,0.0,0.0,3.282,3.4627,3.6044,3.69,3.6915,3.7551,3.8861,3.8992,3.9604,4.0688,4.0873,4.1001,4.1001,4.1001,4.1156,4.1396,4.1367,4.1149,4.0769,4.0752,4.0003,3.888,3.8851,3.8361,3.7663,3.7815,3.7891,3.7891,2.3396,2.3095,2.3095,2.3095,2.3095,2.3095,2.3095,2.4104,2.5242,0.0,0.0,0.0,0.0,3.111,3.1311,0.0,0.0,3.4098,3.337,3.2817,0.0,0.0,0.0,2.875,0.0,0.0,2.6816,2.5335,2.5711,2.5946,2.5946,2.5946,2.5946,2.5946,2.5946,2.7243,0.0,0.0,0.0,0.0,0.0,3.5278,3.5303,0.0,0.0,3.6405,3.6405,3.6405,0.0,3.4876,3.4926,3.5403,3.4675,3.3796,3.3492,3.5849,3.41,0.0,0.0,0.0,3.4716,3.4212,0.0,0.0,0.0,0.0,0.0,0.0,0.0,0.0,0.0,0.0,2.3432,2.4094,2.3711,2.342,0.0,0.0,0.0,0.0,0.0,0.0,0.0,0.0,0.0,0.0,0.0,0.0,0.0,3.2473,3.4262,3.5115,3.6872,3.8215,3.9065,3.9534,4.0126,4.0873,4.0859,4.0873,4.1001,4.1001,4.1156,4.1396,4.1396,4.1323,4.1178,4.0777,4.0347,3.986,3.9039,3.8503,3.8235,3.7844,3.7701,3.7797,2.3547,2.3095,2.3095,2.3095,2.3095,2.3371,2.4205,2.4958,0.0,0.0,2.895,0.0,3.3043,0.0,3.3219,0.0,3.4901,3.5273,3.5303,3.3696,0.0,3.4726,3.224,0.0,0.0,0.0,0.0,0.0,2.6499,2.6323,2.7052,2.6273,2.5921,2.5921,2.5921,2.7017,2.9001,3.0482,3.229,0.0,0.0,3.4951,0.0,0.0,3.6078,3.6405,0.0,3.6405,3.6304,3.5554,3.578,3.6279,3.5529,3.5052,3.5113,3.6821,3.559,3.4203,3.6641,3.7412,0.0,3.6911,3.563,0.0,3.2639,0.0,0.0,0.0,0.0,0.0,0.0,0.0,2.5114,2.4646,2.421,2.3983,0.0,2.4036,0.0,0.0,0.0,0.0,0.0,0.0,0.0,0.0,2.7154,0.0,0.0,0.0,3.3643,3.4153,3.706,3.875,3.9065,4.0079,4.0674,4.0873,4.0859,4.0944,4.1156,4.1156,4.1325,4.1647,4.1647,4.1647,4.1619,4.1216,4.0888,4.0531,3.9699,3.9201,3.8807,3.7862,3.751,3.7595,2.3622,2.3195,2.3195,2.3195,2.3221,2.4029,0.0,0.0,2.9352,0.0,3.2591,3.2717,3.3847,3.3093,3.2893,3.3847,3.3495,3.4142,3.6153,3.2867,0.0,0.0,3.234,3.1286,3.3796,0.0,0.0,0.0,0.0,2.6063,2.8047,2.5862,2.48,2.48,2.48,0.0,2.7419,2.9679,3.1612,3.3244,3.4248,3.5303,3.6204,3.5127,3.5403,3.6405,3.6405,3.6405,3.6405,3.6405,3.6405,3.6405,3.6405,3.6405,3.6405,3.6405,3.7036,3.7933,3.881,3.9782,3.9957,3.7522,0.0,0.0,0.0,0.0,3.4109,0.0,0.0,0.0,0.0,0.0,0.0,2.6329,2.5778,2.5458,2.4853,0.0,0.0,0.0,0.0,0.0,0.0,0.0,0.0,2.4655,2.6741,2.828,0.0,0.0,3.402,3.4189,3.7286,3.8965,3.8902,4.0502,4.1128,4.0688,4.0873,4.1085,4.1396,4.1396,4.1647,4.2092,4.2092,4.2092,4.2092,4.2092,4.1633,4.085,4.0821,4.0297,3.9339,3.7877,3.7317,3.7402,2.48,2.4349,2.4349,2.4349,2.5059,2.5971,2.6952,0.0,0.0,0.0,3.2792,3.3897,3.4956,3.5956,3.5981,3.4625,3.5127,0.0,0.0,0.0,0.0,3.6355,3.5324,3.4293,3.3319,3.2717,0.0,3.0809,0.0,2.7544,2.8047,2.5862,2.48,2.48,2.48,2.5737,2.7419,2.9679,3.2039,3.4248,3.3721,3.4148,0.0,0.0,3.5403,3.6405,3.6405,3.6405,3.6405,3.6405,3.6405,3.6405,3.6405,3.6405,3.6405,3.6405,3.6593,3.6803,3.7036,3.8315,3.9399,3.8753,3.8392,3.7895,0.0,0.0,0.0,0.0,0.0,0.0,0.0,0.0,0.0,2.7955,2.5546,2.3751,0.0,0.0,0.0,2.4679,0.0,0.0,0.0,0.0,2.6168,2.5197,2.6248,2.7455,0.0,0.0,0.0,3.4104,3.5232,3.6864,3.9078,3.9568,4.0164,4.0916,4.0816,4.0901,4.1085,4.1085,4.1367,4.1785,4.1785,4.1897,4.2092,4.2092,4.1964,4.1691,4.1035,4.0297,3.9396,3.8388,3.7636,3.7123,2.5176,2.48,0.0,2.546,0.0,2.8649,2.8725,2.993,0.0,3.3646,3.455,0.0,3.6508,3.7437,3.7513,3.6257,3.5855,0.0,3.5705,0.0,0.0,3.6707,3.6257,3.5303,3.3822,3.3621,0.0,3.2416,0.0,2.8247,2.9151,2.6154,2.48,2.48,2.48,2.5611,2.7153,3.0055,3.2491,3.4324,3.3947,0.0,0.0,3.4901,3.5403,3.6405,3.6405,3.6405,3.6405,3.6405,3.6405,3.6405,3.6405,3.6405,3.6405,3.6405,3.6989,3.7612,3.7612,3.9033,4.0374,3.9913,3.9882,3.9768,3.9355,3.8774,3.8202,0.0,0.0,0.0,0.0,0.0,0.0,0.0,0.0,0.0,0.0,0.0,0.0,0.0,0.0,0.0,0.0,0.0,2.5904,2.5102,2.5724,0.0,0.0,0.0,0.0,3.2145,3.4199,3.5967,3.7505,3.7827,3.8705,4.0179,4.004,4.0365,4.1001,4.1001,4.1212,4.1577,4.1577,4.1702,4.1939,4.1939,4.198,4.2063,4.1563,4.085,4.0015,3.955,3.8808,3.811,2.546,2.5176,0.0,0.0,0.0,0.0,0.0,3.224,0.0,3.6709,0.0,3.7059,3.7814,3.809,3.8165,3.8015,0.0,3.5931,3.7789,3.5203,3.4726,3.7186,3.6307,3.5483,3.5052,3.4048,0.0,0.0,0.0,2.8725,3.0532,2.6606,2.48,2.48,2.48,0.0,0.0,3.0583,3.2767,3.4048,3.4525,3.5303,3.6103,3.5253,3.5529,3.6405,3.6405,3.6405,3.6405,3.6405,3.6405,3.6405,3.6546,3.6593,3.6593,3.6593,3.775,3.9033,3.9033,4.0331,4.1535,4.0774,4.1339,4.1856,4.1015,4.1493,4.2092,4.2092,4.2092,4.1395,0.0,0.0,0.0,0.0,0.0,0.0,0.0,0.0,0.0,0.0,0.0,0.0,0.0,0.0,0.0,2.4686,2.5146,0.0,0.0,0.0,0.0,3.0094,3.3578,3.5564,3.5741,0.0,3.7487,3.9304,3.9175,3.9769,4.0958,4.0958,4.1114,4.1354,4.1354,4.1451,4.1702,4.1702,4.1856,4.2092,4.2092,4.1662,4.0977,4.0977,4.0481,3.9791,2.7168,0.0,0.0,0.0,0.0,3.2139,3.4304,3.5959,3.6885,3.6606,3.7687,3.819,3.7412,3.8567,3.9019,3.809,3.7663,0.0,0.0,0.0,0.0,3.7814,3.7236,3.686,3.6759,3.6153,3.5927,0.0,0.0,3.0231,3.0532,2.6606,2.48,2.48,2.48,0.0,2.993,3.0608,3.2315,3.46,3.4675,3.4826,3.5077,3.5805,3.6254,3.6405,3.6405,3.6405,3.6405,3.6405,3.6405,3.6546,3.7315,3.7546,3.7546,3.7546,3.7795,3.8069,3.8069,3.8854,3.9869,4.0475,4.1339,4.2051,4.1856,4.1968,4.2092,4.2092,4.2092,4.1947,4.1482,0.0,0.0,0.0,0.0,0.0,0.0,0.0,0.0,0.0,0.0,0.0,0.0,0.0,0.0,0.0,0.0,0.0,0.0,0.0,0.0,0.0,3.2426,0.0,0.0,0.0,3.8258,4.0393,3.9517,3.9687,4.073,4.073,4.0859,4.1043,4.1043,4.1296,4.1702,4.1702,4.1856,4.2092,4.2092,4.2034,4.1877,4.1877,4.1778,4.1435,0.0,0.0,0.0,0.0,0.0,0.0,0.0,3.7864,0.0,3.7863,3.8617,3.9094,3.8542,3.922,3.9471,3.8919,3.8341,3.814,3.8467,3.7939,3.7864,3.8442,3.8191,0.0,3.681,3.6784,3.6508,3.5931,0.0,3.1009,3.0934,2.7344,2.5661,2.5711,2.6531,2.796,0.0,3.1587,3.3093,3.4374,3.5228,3.5579,3.5629,3.6204,3.6687,3.7129,3.7129,3.7428,3.7704,3.6709,3.6405,3.6499,3.6943,3.7407,3.7821,3.7821,3.8496,3.9166,3.8675,3.9563,4.0674,4.0603,4.1339,4.2092,4.2092,4.2092,4.2092,4.2092,4.2092,4.1686,4.0321,3.8057,0.0,0.0,0.0,0.0,0.0,0.0,0.0,0.0,0.0,0.0,0.0,0.0,0.0,0.0,0.0,0.0,0.0,0.0,0.0,0.0,0.0,0.0,0.0,0.0,0.0,3.9829,3.936,3.9645,4.0688,4.0688,4.073,4.0859,4.0859,4.1001,4.1339,4.1619,4.1856,4.2092,4.2092,4.2092,4.2092,4.2092,4.2092,4.1964,0.0,3.0131,0.0,0.0,3.3244,0.0,3.7136,3.9094,4.0124,3.9471,3.9772,4.0049,4.0049,4.0049,3.9948,3.9722,3.8994,3.8718,3.9145,3.8668,3.8467,3.8668,3.8844,3.8266,3.696,3.7211,3.6885,0.0,0.0,0.0,3.1336,2.841,2.7027,2.7077,0.0,0.0,0.0,0.0,3.4098,3.455,3.5877,3.6405,3.6405,3.664,3.7176,3.7795,3.8024,3.8541,3.8988,3.7474,3.6989,3.7036,3.7243,3.7658,3.8115,3.8115,3.9166,4.0173,3.9431,4.046,4.1619,4.1057,4.1535,4.2092,4.2092,4.2092,4.2092,4.2051,4.1968,4.1331,3.9315,3.8591,0.0,0.0,0.0,0.0,0.0,0.0,0.0,0.0,0.0,0.0,0.0,0.0,0.0,0.0,0.0,2.4994,2.6408,2.7513,2.8925,0.0,0.0,3.4474,3.6155,0.0,3.7533,3.9432,3.9191,3.9645,4.0688,4.0688,4.0688,4.0688,4.0688,4.0816,4.1043,4.1506,4.1827,4.2009,4.2092,4.2092,4.2092,4.2092,4.2092,4.2092,0.0,0.0,0.0,0.0,0.0,0.0,4.0423,4.0249,4.0099,4.0949,4.11,4.1125,4.1125,4.1125,4.0777,3.9772,4.0049,3.9471,3.7538,3.8743,3.9094,3.814,3.8592,3.8844,3.8693,3.8165,3.7638,0.0,0.0,0.0,0.0,2.9553,2.8662,0.0,0.0,0.0,0.0,3.3771,3.4776,3.6179,3.6355,3.6405,3.6499,3.7361,3.7704,3.7887,3.8765,3.9121,3.9166,3.8988,3.8944,3.9121,3.9929,3.9667,3.9077,3.9077,3.921,3.9299,3.921,3.9956,4.093,4.1773,4.2051,4.2092,4.2092,4.2092,4.2051,4.1785,4.1606,4.1436,4.1385,3.9917,3.7901,0.0,0.0,0.0,0.0,0.0,0.0,0.0,0.0,0.0,0.0,2.6525,0.0,0.0,0.0,2.4807,2.7569,2.6324,2.74,3.1447,0.0,3.3089,3.5467,3.6665,3.8331,4.0562,3.9574,3.9645,4.0688,4.0688,4.0688,4.0688,4.0688,4.0816,4.1043,4.1506,4.1702,4.1744,4.2009,4.2092,4.2092,4.2092,4.2092,4.2092,0.0,0.0,0.0,0.0,0.0,0.0,0.0,4.1028,4.1455,4.2233,4.1756,4.1275,4.1275,4.1275,4.11,4.0727,4.0824,4.0573,3.9747,3.9998,3.9998,3.9521,3.9421,3.9371,3.9371,3.8818,3.8417,0.0,0.0,0.0,0.0,0.0,0.0,0.0,0.0,3.3269,3.3997,3.5303,3.6257,3.6885,3.7211,3.7337,3.7482,3.851,3.9262,3.9838,4.0838,4.1551,4.2062,4.2062,4.0813,3.9299,3.9651,3.9913,4.0043,4.0043,4.046,4.083,4.0216,4.076,4.1451,4.1254,4.166,4.2092,4.2092,4.2092,4.2092,4.1939,4.1885,4.1773,4.1702,4.1069,3.9779,0.0,0.0,0.0,0.0,0.0,0.0,0.0,0.0,0.0,0.0,0.0,2.7115,0.0,0.0,0.0,2.6831,2.8025,0.0,3.2693,0.0,3.6012,3.8762,3.8496,3.9191,4.0873,4.0309,4.0294,4.0688,4.0688,4.0688,4.0688,4.0688,4.0816,4.1001,4.1212,4.1423,4.1702,4.1827,4.1939,4.2092,4.2092,4.2092,4.2092,3.9597,0.0,3.824,0.0,3.9497,4.0224,4.0701,4.1681,4.2464,4.2484,4.2108,4.1831,4.1831,4.1831,4.1626,4.13,4.148,4.1304,4.0651,4.0701,4.0551,4.0049,3.9973,0.0,3.9697,3.932,3.9044,3.8919,3.6179,0.0,0.0,0.0,0.0,0.0,3.4349,3.5102,3.5203,3.6759,3.7437,3.7511,3.8182,3.8481,3.8628,3.9923,4.0862,4.1581,4.2575,4.3428,4.3979,4.3979,4.2494,4.0614,4.0376,4.0582,4.0856,4.0659,4.1099,4.1493,4.0774,4.1339,4.1897,4.1212,4.1577,4.2092,4.2092,4.2092,4.2092,4.2092,4.2009,4.1856,4.1702,4.1702,4.0986,3.8842,0.0,0.0,0.0,0.0,0.0,0.0,0.0,3.3716,3.5094,3.1634,0.0,0.0,0.0,0.0,0.0,0.0,0.0,0.0,0.0,0.0,0.0,3.8887,3.9414,4.0916,4.0816,4.0773,4.0688,4.0688,4.0688,4.0688,4.0688,4.0773,4.0916,4.1001,4.1212,4.1506,4.166,4.1827,4.198,4.2092,4.2092,4.2092,4.125,4.1731,4.2137,4.2162,4.2615,4.2559,4.1451,4.2258,4.2585,4.1451,4.2283,4.2961,4.2961,4.2961,4.2534,4.1376,4.1831,4.1282,3.9095,4.0425,4.0601,0.0,0.0,4.0249,3.9697,3.9697,3.9421,3.8919,0.0,0.0,3.5458,0.0,3.5433,3.5508,3.7211,3.7965,3.7965,3.799,3.799,3.8088,3.9136,3.9568,3.9781,4.1736,4.2486,4.262,4.3603,4.3979,4.3979,4.3979,4.3979,4.382,4.3153,4.2324,4.1462,4.0772,4.0603,4.0603,4.0603,4.1339,4.2092,4.2092,4.2092,4.2092,4.2092,4.2092,4.2092,4.2092,4.176,4.148,4.166,4.1702,4.1069,3.9197,0.0,0.0,0.0,0.0,0.0,0.0,3.3642,3.2972,3.4905,0.0,0.0,0.0,0.0,0.0,0.0,0.0,0.0,3.2992,3.1993,0.0,3.563,3.6987,3.8672,4.0688,4.0873,4.0873,4.0688,4.0688,4.0688,4.0688,4.0688,4.0688,4.073,4.0916,4.1001,4.1043,4.1506,4.1702,4.1744,4.198,4.2092,4.2092,4.0375,4.158,4.2484,4.1731,4.2359,4.2861,4.2509,4.276,4.2861,4.2509,4.276,4.2986,4.2986,4.2986,4.2836,0.0,4.1932,4.163,0.0,4.1103,4.0877,4.1157,3.9998,3.932,3.9145,3.8743,3.8467,3.8291,0.0,0.0,0.0,3.6107,3.6508,3.7236,3.7764,3.8015,3.804,3.8442,3.9017,3.9708,4.0415,4.1112,4.1935,4.3213,4.3722,4.386,4.4944,4.5285,4.5285,4.5285,4.5285,4.5169,4.4501,4.3806,4.3085,4.2423,4.2222,4.2136,4.1734,4.1856,4.2092,4.2092,4.2092,4.2092,4.2092,4.2092,4.2092,4.2092,4.1968,4.1814,4.1702,4.1702,4.0986,3.8842,3.9693,0.0,0.0,0.0,0.0,0.0,3.6079,3.5525,0.0,3.5024,0.0,0.0,0.0,0.0,0.0,0.0,0.0,0.0,3.6974,0.0,3.9739,3.9309,3.99,4.1367,4.1283,4.1156,4.0873,4.0873,4.0816,4.0688,4.0688,4.0688,4.0688,4.0773,4.0873,4.1001,4.117,4.1423,4.1702,4.1785,4.1939,4.2092,4.1053,4.2032,4.276,4.2082,4.2534,4.2836,4.2434,4.271,4.2836,4.2409,4.271,4.2986,4.2986,4.2986,0.0,4.2986,4.2359,4.2233,4.2936,4.2007,4.1656,4.2187,4.0905,3.9975,3.9496,3.9145,0.0,3.8642,3.8291,3.7939,3.7662,3.7662,3.799,3.8642,3.8642,3.8868,3.9216,3.9573,4.0376,4.136,4.2096,4.2765,4.3464,4.4527,4.4897,4.4989,4.564,4.5895,4.5895,4.5895,4.5895,4.5808,4.5401,4.4995,4.4531,4.3631,4.3195,4.2905,4.2528,4.2266,4.2092,4.2092,4.2092,4.2092,4.2092,4.2092,4.2092,4.2092,4.2009,4.1939,4.1856,4.1744,4.1286,3.9946,4.0748,4.1092,3.9836,0.0,0.0,0.0,0.0,0.0,0.0,3.7172,3.623,0.0,0.0,0.0,0.0,0.0,0.0,3.7601,3.8562,0.0,4.0982,4.0285,4.0475,4.1577,4.148,4.1241,4.1001,4.1001,4.0873,4.0688,4.0688,4.0688,4.0688,4.0688,4.0773,4.0873,4.0958,4.117,4.1423,4.1535,4.1689,4.1843,4.276,4.2861,0.0,0.0,4.2936,0.0,4.1551,4.2333,4.261,4.1526,4.2333,4.2986,4.2986,4.2986,4.2986,4.2986,0.0,0.0,0.0,4.2911,4.266,4.2288,4.2162,4.1609,4.0551,4.045,4.0174,3.9697,3.9697,3.9697,3.9697,3.9697,3.9697,3.9697,3.9697,4.0211,4.1069,4.1169,4.1815,4.2889,4.389,4.4359,4.4499,4.5549,4.5895,4.5895,4.5895,4.5895,4.5895,4.5895,4.5895,4.5895,4.5895,4.5895,4.5634,4.4414,4.3602,4.3108,4.3079,4.2615,4.215,4.215,4.2121,4.2092,4.2092,4.2051,4.2051,4.2092,4.1897,4.1785,4.2051,4.1897,4.1785,4.2009,4.1856,4.1561,4.1266,0.0,0.0,0.0,0.0,0.0,0.0,3.8754,3.8667,0.0,0.0,0.0,0.0,0.0,3.4837,3.7564,3.7651,3.8379,3.9917,4.0144,4.0643,4.1438,4.1438,4.1283,4.1043,4.1043,4.0916,4.073,4.0688,4.0688,4.0688,4.0688,4.0688,4.0688,4.0916,4.1001,4.1043,4.1283,4.1396,4.1438,0.0,0.0,4.271,4.1882,4.2409,4.2886,4.2635,4.2811,4.2886,4.2635,4.2811,4.2986,4.2986,4.2986,4.2986,4.2986,4.2208,4.2082,4.2911,4.2183,4.2032,4.276,4.158,4.0777,4.0526,3.9697,3.9396,3.9697,3.9697,3.9697,3.9697,3.9697,3.9697,3.9697,3.9697,3.9826,4.0134,4.0895,4.1815,4.2889,4.389,4.4805,4.5549,4.5776,4.5895,4.5895,4.5895,4.5895,4.5895,4.5895,4.5895,4.5895,4.5895,4.5895,4.5721,4.4908,4.456,4.4327,4.3892,4.3282,4.2789,4.2789,4.2286,4.1785,4.1785,4.1689,4.1606,4.1744,4.1744,4.1702,4.1785,4.1744,4.166,4.1564,4.1619,4.1143,3.9505,3.8943,0.0,0.0,3.7223,3.815,3.8832,4.03,4.0641,0.0,0.0,0.0,0.0,3.831,3.8774,4.0902,4.096,4.1123,4.1546,4.1587,4.1732,4.1926,4.1926,4.1773,4.1506,4.1367,4.1156,4.0916,4.0773,4.0688,4.0688,4.0688,4.0688,4.0688,4.073,4.083,4.1001,4.1043,4.1241,4.1396,4.2133,4.2911,4.3539,4.2936,4.3338,4.374,4.374,4.3514,4.3363,4.3363,4.3137,4.2986,4.2986,4.2986,4.2986,4.2986,4.2434,4.2333,4.2936,4.2409,4.2359,4.2961,4.2133,4.153,4.1279,4.0729,4.0275,4.0074,4.0074,3.9948,3.9697,3.9697,3.9697,3.9697,3.9697,3.9981,4.0415,4.0995,4.2084,4.3559,4.4078,4.4943,4.5895,4.5895,4.5895,4.5895,4.5895,4.5895,4.5895,4.5895,4.585,4.573,4.585,4.585,4.5673,4.5459,4.514,4.4821,4.4472,4.3835,4.3199,4.2881,4.2163,4.1577,4.1702,4.1535,4.1438,4.1535,4.1535,4.1577,4.1702,4.1619,4.1535,4.1535,4.0735,3.9739,3.8631,3.7758,0.0,3.7062,3.8103,3.9207,4.0209,4.1372,4.1657,4.0612,3.9973,0.0,4.0495,3.9944,4.0379,4.2034,4.2092,4.2092,4.2092,4.2092,4.2092,4.2092,4.2092,4.1794,4.1299,4.1175,4.0754,4.0179,4.0054,3.9957,3.9873,3.9873,3.9873,3.9873,4.0182,4.0351,4.0506,4.0746,4.0944,4.11,4.4644,4.4618,4.4618,4.4618,4.4618,4.4618,4.4618,4.4217,4.3915,4.3915,4.3438,4.3112,4.3112,4.3037,4.2986,4.2986,4.2986,4.2986,4.2986,4.2986,4.2986,4.2986,4.2986,4.2816,4.2338,4.2263,4.1656,4.0651,4.0651,4.04,3.9948,3.9848,3.9823,3.9823,3.9747,4.0262,4.1219,4.1369,4.2523,4.4312,4.4452,4.511,4.5895,4.5895,4.5895,4.585,4.5895,4.5895,4.585,4.5895,4.573,4.5549,4.5776,4.5685,4.5549,4.5776,4.5444,4.498,4.5024,4.4413,4.3574,4.2783,4.2038,4.151,4.1647,4.1451,4.1311,4.1354,4.1354,4.1396,4.1577,4.1451,4.1323,4.1204,3.967,3.832,3.7951,0.0,3.6656,3.8289,3.8953,3.9996,4.1794,4.2051,4.2092,4.2092,4.1047,4.0902,4.2034,4.1018,4.0931,4.2063,4.2092,4.2092,4.2092,4.2092,4.2034,4.1947,4.1947,4.1517,4.0706,4.0665,4.0146,3.9268,3.9228,3.9106,3.8943,3.8902,3.8902,3.8958,3.9465,3.9648,3.9704,4.0238,4.0435,4.0477,4.4719,4.4618,4.4618,4.4618,4.4618,4.4618,4.4618,4.4543,4.4493,4.4493,4.4016,4.3664,4.3664,4.3263,4.2986,4.2986,4.2986,4.2986,4.2986,4.2986,4.2986,4.2986,4.2986,4.2936,4.2861,4.2439,4.1831,4.115,4.115,4.1125,4.1025,4.0601,4.04,4.0375,3.9898,4.0262,4.1269,4.2159,4.3225,4.4359,4.5293,4.573,4.5895,4.5895,4.573,4.5595,4.585,4.573,4.5595,4.585,4.573,4.5504,4.5549,4.5549,4.5504,4.5549,4.5492,4.545,4.5676,4.5123,4.4121,4.2941,4.2224,4.181,4.151,4.1142,4.0859,4.1001,4.1043,4.1085,4.1085,4.1085,4.0574,3.9081,3.8944,3.8309,3.6221,0.0,3.8467,3.8054,3.9804,4.1165,4.1451,4.1885,4.2092,4.2092,4.1918,4.1889,4.2092,4.1889,4.1889,4.2092,4.2092,4.2092,4.2092,4.2092,4.1802,4.125,4.125,4.0902,4.0224,4.0054,3.9877,3.9711,3.9349,3.9187,3.9147,3.8943,3.8902,3.893,3.9015,3.9043,3.9071,3.9155,3.9183,3.9268,4.5598,4.5547,4.5547,4.5547,4.5547,4.5547,4.5547,4.5271,4.5095,4.5095,4.4593,4.4141,4.384,4.3564,4.3288,4.3011,4.2986,4.2986,4.2986,4.2986,4.2986,4.2986,4.2986,4.2986,4.2986,4.2791,4.2333,4.1781,4.1781,4.163,4.1275,4.1025,4.0899,4.0899,4.0701,4.1154,4.2159,4.2325,4.3378,4.4865,4.4993,4.5384,4.5895,4.5895,4.573,4.5504,4.564,4.5595,4.5504,4.564,4.5595,4.5504,4.5504,4.5413,4.5276,4.5276,4.5504,4.564,4.5367,4.4862,4.4187,4.3453,4.2773,4.2285,4.2236,4.1707,4.1237,4.1295,4.1142,4.1001,4.1001,4.1001,4.0717,3.9867,3.9049,0.0,0.0,3.7929,3.8552,3.8161,4.0089,4.1396,4.1396,4.1689,4.1897,4.1897,4.2009,4.2051,4.1897,4.2009,4.2051,4.1897,4.2009,4.1918,4.157,4.157,4.1221,4.0554,4.0554,4.0234,3.9625,3.9508,3.9217,3.8755,3.8589,3.8432,3.8353,3.8207,3.8128,3.8077,3.8375,3.8476,3.8424,3.879,3.9127,3.9436,4.6301,4.6301,4.6301,4.6301,4.6301,4.6301,4.6301,4.5949,4.5673,4.5673,4.5171,4.4669,4.4242,4.3966,4.3639,4.3212,4.3062,4.2986,4.2986,4.2986,4.2986,4.2986,4.2986,4.2986,4.2986,4.2986,4.2816,4.2414,4.2414,4.2133,4.1652,4.158,4.153,4.153,4.1351,4.2078,4.3358,4.2884,4.3904,4.5846,4.5336,4.5631,4.633,4.6285,4.6015,4.5643,4.5643,4.5511,4.5367,4.5458,4.5458,4.5413,4.5413,4.5276,4.5064,4.5046,4.5367,4.5549,4.4982,4.4613,4.4322,4.3908,4.3314,4.2829,4.2883,4.2354,4.184,4.184,4.1464,4.1142,4.1142,4.1029,4.0774,4.0322,0.0,0.0,0.0,3.8206,3.8552,3.8795,4.0303,4.1311,4.1311,4.1493,4.1619,4.1619,4.1814,4.1798,4.1501,4.1695,4.1649,4.1324,4.1691,4.1541,4.0873,4.0873,4.0525,3.9886,3.9886,3.9567,3.8957,3.8957,3.8581,3.7967,3.7929,3.7815,3.7663,3.7625,3.751,3.7423,3.7866,3.7918,3.7845,3.8492,3.8986,3.9395,4.6301,4.6301,4.6301,4.6301,4.6301,4.6301,4.6301,4.6276,4.625,4.625,4.5773,4.5422,4.5372,4.4418,4.379,4.374,4.3263,4.2986,4.2986,4.2986,4.2986,4.2986,4.2986,4.2986,4.2986,4.2986,4.2961,4.2911,4.2911,4.2886,4.2836,4.2389,4.2137,4.2137,4.1555,4.25,4.4505,4.4401,4.5643,4.7601,4.7543,4.759,4.7637,4.7384,4.6774,4.6071,4.6071,4.5513,4.4936,4.5367,4.5321,4.511,4.511,4.511,4.5092,4.489,4.4954,4.5138,4.489,4.4926,4.4818,4.4021,4.3624,4.3318,4.2996,4.2693,4.2514,4.2514,4.2008,4.1531,4.1531,4.1081,4.0168,3.8424,0.0,0.0,3.799,3.8452,3.9268,4.0393,4.0817,4.1043,4.1043,4.1283,4.1438,4.1438,4.1438,4.1264,4.0896,4.0867,4.07,4.0224,4.0844,4.0844,4.0176,4.0176,3.9857,3.9276,3.9276,3.8928,3.8289,3.8289,3.826,3.8165,3.7967,3.7891,3.7853,3.7701,3.7586,3.7586,3.7643,3.7528,3.742,3.8043,3.815,3.8215,4.6301,4.6301,4.6301,4.6301,4.6301,4.6301,4.6301,4.6301,4.6301,4.6301,4.6125,4.5874,4.5522,4.5095,4.4568,4.3865,4.3614,4.3338,4.3011,4.2986,4.2986,4.2986,4.2986,4.2986,4.2986,4.2986,4.2986,4.2986,4.2986,4.2986,4.2961,4.276,4.2715,4.266,4.2213,4.3319,4.5383,4.4799,4.5907,4.8095,4.772,4.7641,4.7782,4.7528,4.7071,4.6652,4.649,4.6177,4.5931,4.6121,4.5959,4.5692,4.5523,4.5221,4.4862,4.4612,4.4723,4.4862,4.4612,4.4723,4.4805,4.4301,4.4106,4.4003,4.3842,4.3505,4.316,4.316,4.2654,4.2205,4.2205,4.1699,4.1025,4.0322,0.0,3.9929,3.9676,3.9845,4.0182,4.0659,4.0773,4.0816,4.0816,4.1029,4.1156,4.1156,4.1311,4.1239,4.0941,4.1066,4.1027,4.0728,4.096,4.0583,3.9538,3.9538,3.9218,3.858,3.858,3.8463,3.8202,3.8638,3.8812,3.8841,3.9141,3.9276,3.9276,3.9198,3.9081,3.8964,3.8964,3.8617,3.8165,3.8632,3.8779,3.8839,4.6301,4.6301,4.6301,4.6301,4.6301,4.6301,4.6301,4.6301,4.6301,4.6301,4.6301,4.6175,4.5773,4.5598,4.5171,4.4392,4.4016,4.3639,4.3263,4.3062,4.2986,4.2986,4.2986,4.2986,4.2986,4.2986,4.2986,4.2986,4.2986,4.2986,4.2986,4.2986,4.2986,4.3042,4.3129,4.4235,4.5899,4.5573,4.6694,4.8585,4.8134,4.8153,4.8391,4.8009,4.7625,4.7261,4.6923,4.6664,4.6494,4.6591,4.6452,4.6206,4.6063,4.5496,4.4912,4.4528,4.4518,4.4658,4.4472,4.4518,4.4658,4.4472,4.4425,4.4425,4.4425,4.4088,4.3778,4.3778,4.3301,4.2879,4.2879,4.2345,4.1924,4.1924,4.1559,4.1221,4.1025,4.0997,4.0912,4.0716,4.0688,4.0688,4.0688,4.0816,4.0916,4.0916,4.1071,4.1029,4.0717,4.0785,4.0761,4.0694,4.0625,4.026,3.9479,3.9479,3.9247,3.8783,3.8783,3.8783,3.8812,3.9276,3.9479,3.9509,3.9915,4.0089,4.0089,4.0089,4.0039,3.9881,3.9881,3.9503,3.9057,3.9527,3.9662,3.9666,4.6301,4.6301,4.6301,4.6301,4.6301,4.6301,4.6301,4.6301,4.6301,4.6301,4.6301,4.6301,4.6301,4.5824,4.5497,4.5497,4.4468,4.3815,4.379,4.3288,4.2986,4.2986,4.2986,4.2986,4.2986,4.2986,4.2986,4.2986,4.2986,4.2986,4.2986,4.3042,4.3042,4.3073,4.4206,4.5154,4.5979,4.7126,4.8252,4.9305,4.9305,4.9453,4.962,4.9079,4.8509,4.7918,4.7405,4.6813,4.6356,4.6522,4.6591,4.6591,4.6591,4.6022,4.5164,4.4593,4.4425,4.4425,4.4425,4.4425,4.4425,4.4425,4.4425,4.4425,4.4425,4.4425,4.4425,4.4425,4.3919,4.3497,4.3497,4.2992,4.2598,4.2598,4.257,4.2345,4.1699,4.1615,4.139,4.08,4.0716,4.0716,4.0716,4.0716,4.0716,4.0716,4.0688,4.052,4.0109,3.9719,3.9619,3.979,3.9619,3.9739,4.0118,4.0089,4.0089,4.0089,4.0089,4.0089,4.0089,4.0089,4.0118,4.0118,4.0118,4.0118,4.0118,4.0118,4.0118,4.0118,4.0118,4.0,3.9917,4.0579,4.0687,4.0539,4.6301,4.6301,4.6301,4.6301,4.6301,4.6301,4.6301,4.6301,4.6301,4.6301,4.6301,4.6301,4.6301,4.6175,4.5899,4.5522,4.5171,4.4644,4.384,4.3288,4.2986,4.2986,4.2986,4.2986,4.2986,4.2986,4.2986,4.2986,4.2986,4.2986,4.3042,4.3823,4.4206,4.4261,4.5128,4.6032,4.6816,4.6998,4.7694,4.8731,4.8731,4.8909,4.9079,4.8731,4.8518,4.8326,4.7954,4.774,4.7572,4.7622,4.739,4.694,4.6517,4.6187,4.5886,4.524,4.5043,4.4959,4.4537,4.4425,4.4425,4.4425,4.4425,4.4425,4.4425,4.4425,4.4425,4.4425,4.4256,4.4144,4.4144,4.3638,4.3216,4.3216,4.2879,4.2514,4.2317,4.2289,4.2233,4.2036,4.2008,4.2008,4.2008,4.1615,4.1334,4.1334,4.094,4.0689,4.0746,4.0618,4.0671,4.0907,4.0866,4.0866,4.1031,4.0262,3.996,4.0089,4.0089,4.0089,4.0118,4.0583,4.0786,4.0815,4.1308,4.1482,4.1482,4.1482,4.1482,4.1482,4.1482,4.1181,4.0752,4.1225,4.1114,4.0773,4.6301,4.6301,4.6301,4.6301,4.6301,4.6301,4.6301,4.6301,4.6301,4.6301,4.6301,4.6301,4.6301,4.6301,4.6175,4.5849,4.5623,4.5095,4.4192,4.3614,4.3313,4.3313,4.3087,4.2986,4.2986,4.2986,4.2986,4.2986,4.2986,4.2986,4.3042,4.4152,4.467,4.4778,4.6137,4.6971,4.7359,4.7666,4.81,4.8631,4.8631,4.876,4.8859,4.8581,4.8481,4.8431,4.8207,4.8134,4.8134,4.8134,4.7881,4.7459,4.6841,4.6673,4.6532,4.5886,4.5717,4.5633,4.5268,4.4959,4.479,4.479,4.4593,4.4425,4.4425,4.4425,4.4425,4.4425,4.4425,4.4425,4.4425,4.4116,4.3863,4.3863,4.3554,4.3216,4.2964,4.2935,4.2851,4.2598,4.257,4.257,4.257,4.2233,4.2008,4.2008,4.1643,4.1377,4.1225,4.124,4.1241,4.1241,4.1156,4.1227,4.1396,4.0666,4.0388,4.0631,4.0631,4.0631,4.066,4.1117,4.1331,4.136,4.1877,4.2092,4.2092,4.2092,4.2092,4.2092,4.2092,4.186,4.1541,4.1753,4.1625,4.1324,4.6301,4.6301,4.6301,4.6301,4.6301,4.6301,4.6301,4.6301,4.6301,4.6301,4.6301,4.6301,4.6301,4.6301,4.6301,4.6301,4.5799,4.5271,4.4744,4.4192,4.384,4.379,4.3313,4.3037,4.2986,4.2986,4.2986,4.2986,4.2986,4.2986,4.3042,4.4152,4.4724,4.494,4.7074,4.792,4.7819,4.8881,4.9157,4.8909,4.8909,4.8909,4.8859,4.8581,4.8481,4.8431,4.8207,4.8134,4.8134,4.8134,4.8134,4.8021,4.7459,4.7291,4.7178,4.656,4.6364,4.6364,4.6307,4.5858,4.5408,4.5408,4.4987,4.4537,4.4472,4.4425,4.4425,4.4443,4.4425,4.4425,4.4425,4.4425,4.4425,4.4425,4.4472,4.4275,4.3712,4.3628,4.3448,4.2885,4.2784,4.2739,4.2739,4.2683,4.2654,4.257,4.257,4.2317,4.1727,4.1699,4.1533,4.1156,4.0985,4.1099,4.1482,4.1227,4.1171,4.1396,4.1396,4.1396,4.1396,4.1577,4.166,4.1702,4.1939,4.2051,4.2051,4.2092,4.2092,4.2092,4.2092,4.2092,4.2092,4.2092,4.2092,4.2051,4.6301,4.6301,4.6301,4.6301,4.6301,4.6301,4.6301,4.6301,4.6301,4.6301,4.6301,4.6301,4.6301,4.6301,4.6301,4.6301,4.5799,4.5422,4.5296,4.4769,4.4242,4.3815,4.3689,4.3413,4.2986,4.2986,4.2986,4.2986,4.2986,4.2986,4.3042,4.4152,4.5154,4.6032,4.7383,4.8352,4.893,4.9207,4.9157,4.8909,4.8909,4.8909,4.8859,4.8581,4.8481,4.8431,4.8207,4.8134,4.8134,4.8134,4.8134,4.8106,4.7965,4.7909,4.7797,4.7178,4.701,4.6897,4.642,4.6195,4.6083,4.6083,4.597,4.5729,4.5089,4.4676,4.449,4.4862,4.4676,4.4425,4.4425,4.4425,4.4425,4.4425,4.4723,4.4897,4.4755,4.4755,4.4698,4.4556,4.4234,4.4003,4.4003,4.3582,4.3104,4.2626,4.257,4.2514,4.2374,4.2374,4.2362,4.2266,4.2221,4.2221,4.2354,4.1759,4.1425,4.1396,4.1396,4.1396,4.1396,4.1438,4.148,4.148,4.166,4.1785,4.1785,4.198,4.2092,4.2092,4.2092,4.2092,4.2092,4.2092,4.2092,4.2092,4.6301,4.6301,4.6301,4.6301,4.6301,4.6301,4.6301,4.6301,4.6301,4.6301,4.6301,4.6301,4.6301,4.6301,4.6301,4.6301,4.605,4.5874,4.5874,4.5347,4.4895,4.4618,4.4342,4.394,4.3388,4.3363,4.3237,4.2986,4.2986,4.2986,4.3042,4.4152,4.4993,4.5608,4.7229,4.8252,4.8731,4.9227,4.9355,4.9108,4.9108,4.8959,4.8681,4.8531,4.8409,4.8308,4.8185,4.8134,4.8134,4.8134,4.8134,4.8134,4.8134,4.8134,4.8078,4.774,4.7656,4.7572,4.7263,4.6954,4.6729,4.6729,4.6504,4.6103,4.5374,4.5035,4.4903,4.5057,4.4908,4.4723,4.4723,4.4723,4.4676,4.4472,4.4583,4.4862,4.5092,4.511,4.5155,4.5384,4.5046,4.463,4.4425,4.4116,4.3807,4.3469,4.3469,4.342,4.3381,4.3352,4.3239,4.2927,4.2927,4.2838,4.257,4.2233,4.2056,4.1964,4.1341,4.11,4.11,4.1156,4.1198,4.1241,4.1451,4.1535,4.1577,4.1814,4.1897,4.1939,4.2051,4.2009,4.1897,4.1897,4.1897,4.1897,4.6301,4.6301,4.6301,4.6301,4.6301,4.6301,4.6301,4.6301,4.6301,4.6301,4.6301,4.6301,4.6301,4.6301,4.6301,4.6301,4.6301,4.6301,4.6301,4.5874,4.5598,4.5497,4.502,4.4518,4.3966,4.394,4.3639,4.2986,4.2986,4.2986,4.3042,4.3987,4.4507,4.4778,4.6608,4.7666,4.8072,4.9001,4.9375,4.9305,4.9305,4.9009,4.8531,4.8531,4.8358,4.8156,4.8134,4.8134,4.8134,4.8134,4.8134,4.8134,4.8134,4.8134,4.8134,4.8134,4.8134,4.8134,4.8134,4.774,4.7375,4.7475,4.7031,4.6448,4.587,4.5645,4.5562,4.5567,4.5505,4.5373,4.5373,4.5287,4.5092,4.4583,4.4583,4.4769,4.5092,4.511,4.5247,4.5747,4.5475,4.5092,4.4676,4.4452,4.4396,4.4396,4.4218,4.4093,4.4008,4.4024,4.384,4.3413,4.3384,4.3165,4.2705,4.2592,4.2519,4.2402,4.125,4.08,4.1025,4.1099,4.1128,4.11,4.1255,4.1354,4.1354,4.1577,4.166,4.166,4.1897,4.1856,4.166,4.166,4.166,4.166,4.6301,4.6301,4.6301,4.6301,4.6301,4.6301,4.6301,4.6301,4.6301,4.6301,4.6301,4.6301,4.6301,4.6301,4.6301,4.6301,4.6301,4.6301,4.6301,4.625,4.5974,4.5522,4.5422,4.5095,4.4518,4.4518,4.4016,4.2986,4.2986,4.2986,4.2986,4.3129,4.3768,4.4724,4.4993,4.6189,4.8021,4.8173,4.8653,4.9305,4.9305,4.9108,4.881,4.8581,4.8481,4.8409,4.8156,4.8134,4.8134,4.8134,4.8134,4.8134,4.8134,4.8134,4.8134,4.8134,4.8134,4.8134,4.8134,4.8078,4.8094,4.8518,4.8289,4.7813,4.7657,4.7184,4.69,4.7333,4.6964,4.6558,4.6558,4.6123,4.5566,4.5064,4.5338,4.5475,4.5155,4.511,4.5247,4.5747,4.5747,4.5702,4.5611,4.476,4.4219,4.4219,4.3404,4.302,4.3307,4.3351,4.347,4.382,4.382,4.3603,4.312,4.2608,4.2149,4.1727,4.1025,4.1278,4.2317,4.1799,4.1518,4.149,4.1213,4.1043,4.1085,4.1325,4.1438,4.1438,4.148,4.148,4.1438,4.1438,4.1438,4.1438,4.6301,4.6301,4.6301,4.6301,4.6301,4.6301,4.6301,4.6301,4.6301,4.6301,4.6301,4.6301,4.6301,4.6301,4.6301,4.6301,4.6301,4.6301,4.6301,4.6301,4.62,4.5949,4.5949,4.5673,4.5121,4.5095,4.4719,4.389,4.3589,4.3288,4.2986,4.2986,4.3628,4.4724,4.5342,4.6503,4.8021,4.8703,4.9079,4.9305,4.9305,4.9058,4.8631,4.8531,4.8409,4.8258,4.8134,4.8134,4.8134,4.8134,4.8134,4.8134,4.8134,4.8134,4.8134,4.8134,4.8134,4.8134,4.8134,4.8134,4.8185,4.8409,4.8258,4.8151,4.8467,4.8497,4.8384,4.788,4.755,4.7439,4.7687,4.7499,4.704,4.6189,4.6223,4.6243,4.6014,4.5956,4.6001,4.6225,4.6269,4.6106,4.5837,4.5351,4.4982,4.471,4.4498,4.4461,4.464,4.4935,4.5026,4.4849,4.4849,4.4429,4.3603,4.3315,4.3085,4.2868,4.2625,4.2295,4.1922,4.1979,4.2181,4.2396,4.2281,4.2095,4.1753,4.1739,4.1511,4.1198,4.1354,4.148,4.1535,4.1438,4.1647,4.1939]}]]